[[{"header":{"parameterUnit":"m.s-1","parameterCategory":1,"la1":31.0,"la2":29.5877,"lo1":-88.7671,"lo2":-86.6584,"dy":0.0162,"dx":0.0185,"nx":115,"ny":88,"refTime":"2024-09-19T06:00:00:Z","depth":0,"parameterNumber":2,"parameterNumberName":"U-component_of_WINDS"},"data":[0.0,0.0,0.0,0.0,0.0,0.0,0.0,0.0,0.0,0.0,0.0,0.0,0.0,0.0,0.0,0.0,0.0,0.0,0.0,0.0,0.0,0.0,0.0,0.0,0.0,0.0,0.0,0.0,0.0,0.0,0.0,0.0,0.0,0.0,0.0,0.0,0.0,0.0,0.0,0.0,0.0,0.0,0.0,0.0,0.0,0.0,0.0,0.0,0.0,0.0,0.0,0.0,0.0,0.0,0.0,0.0,0.0,0.0,0.0,0.0,0.0,0.0,0.0,0.0,0.0,0.0,0.0,0.0,0.0,0.0,0.0,0.0,0.0,0.0,0.0,0.0,0.0,0.0,0.0,0.0,0.0,0.0,0.0,0.0,0.0,0.0,0.0,0.0,0.0,0.0,0.0,0.0,0.0,0.0,0.0,0.0,0.0,0.0,0.0,0.0,0.0,0.0,0.0,0.0,0.0,0.0,0.0,0.0,0.0,0.0,0.0,0.0,0.0,0.0,0.0,0.0,0.0,0.0,0.0,0.0,0.0,0.0,0.0,0.0,0.0,0.0,0.0,0.0,0.0,0.0,0.0,0.0,0.0,0.0,0.0,0.0,0.0,0.0,0.0,0.0,0.0,0.0,0.0,0.0,0.0,0.0,0.0,0.0,0.0,0.0,0.0,0.0,0.0,0.0,0.0,0.0,0.0,0.0,0.0,0.0,0.0,0.0,0.0,0.0,0.0,0.0,0.0,0.0,0.0,0.0,0.0,0.0,0.0,0.0,0.0,0.0,0.0,0.0,0.0,0.0,0.0,0.0,0.0,0.0,0.0,0.0,0.0,0.0,0.0,0.0,0.0,0.0,0.0,0.0,0.0,0.0,0.0,0.0,0.0,0.0,0.0,0.0,0.0,0.0,0.0,0.0,0.0,0.0,0.0,0.0,0.0,0.0,0.0,0.0,0.0,0.0,0.0,0.0,0.0,0.0,0.0,0.0,0.0,0.0,0.0,0.0,0.0,0.0,0.0,0.0,0.0,0.0,0.0,0.0,0.0,0.0,0.0,0.0,0.0,0.0,0.0,0.0,0.0,0.0,0.0,0.0,0.0,0.0,0.0,0.0,0.0,0.0,0.0,0.0,0.0,0.0,0.0,0.0,0.0,0.0,0.0,0.0,0.0,0.0,0.0,0.0,0.0,0.0,0.0,0.0,0.0,0.0,0.0,0.0,0.0,0.0,0.0,0.0,0.0,0.0,0.0,0.0,0.0,0.0,0.0,0.0,0.0,0.0,0.0,0.0,0.0,0.0,0.0,0.0,0.0,0.0,0.0,0.0,0.0,0.0,0.0,0.0,0.0,0.0,0.0,0.0,0.0,0.0,0.0,0.0,0.0,0.0,0.0,0.0,0.0,0.0,0.0,0.0,0.0,0.0,0.0,0.0,0.0,0.0,0.0,0.0,0.0,0.0,0.0,0.0,0.0,0.0,0.0,0.0,0.0,0.0,0.0,0.0,0.0,0.0,0.0,0.0,0.0,0.0,0.0,0.0,0.0,0.0,0.0,0.0,0.0,0.0,0.0,0.0,0.0,0.0,0.0,0.0,0.0,0.0,0.0,0.0,0.0,0.0,0.0,0.0,0.0,0.0,0.0,0.0,0.0,0.0,0.0,0.0,0.0,0.0,0.0,0.0,0.0,0.0,0.0,0.0,0.0,0.0,0.0,0.0,0.0,0.0,0.0,0.0,0.0,0.0,0.0,0.0,0.0,0.0,0.0,0.0,0.0,0.0,0.0,0.0,0.0,0.0,0.0,0.0,0.0,0.0,0.0,0.0,0.0,0.0,0.0,0.0,0.0,0.0,0.0,0.0,0.0,0.0,0.0,0.0,0.0,0.0,0.0,0.0,0.0,0.0,0.0,0.0,0.0,0.0,0.0,0.0,0.0,0.0,0.0,0.0,0.0,0.0,0.0,0.0,0.0,0.0,0.0,0.0,0.0,0.0,0.0,0.0,0.0,0.0,0.0,0.0,0.0,0.0,0.0,0.0,0.0,0.0,0.0,0.0,0.0,0.0,0.0,0.0,0.0,0.0,0.0,0.0,0.0,0.0,0.0,0.0,0.0,0.0,0.0,0.0,0.0,0.0,0.0,0.0,0.0,0.0,0.0,0.0,0.0,0.0,0.0,0.0,0.0,0.0,0.0,0.0,0.0,0.0,0.0,0.0,0.0,0.0,0.0,0.0,0.0,0.0,0.0,0.0,0.0,0.0,0.0,0.0,0.0,0.0,0.0,0.0,0.0,0.0,0.0,0.0,0.0,0.0,0.0,0.0,0.0,0.0,0.0,0.0,0.0,0.0,0.0,0.0,0.0,0.0,0.0,0.0,0.0,0.0,0.0,0.0,0.0,0.0,0.0,0.0,0.0,0.0,0.0,0.0,0.0,0.0,0.0,0.0,0.0,0.0,0.0,0.0,0.0,0.0,0.0,0.0,0.0,0.0,0.0,0.0,0.0,0.0,0.0,0.0,0.0,0.0,0.0,0.0,0.0,0.0,0.0,0.0,0.0,0.0,0.0,0.0,0.0,0.0,0.0,0.0,0.0,0.0,0.0,0.0,0.0,0.0,0.0,0.0,0.0,0.0,0.0,0.0,0.0,0.0,0.0,0.0,0.0,0.0,0.0,0.0,0.0,0.0,0.0,0.0,0.0,0.0,0.0,0.0,0.0,0.0,0.0,0.0,0.0,0.0,0.0,0.0,0.0,0.0,0.0,0.0,0.0,0.0,0.0,0.0,0.0,0.0,0.0,0.0,0.0,0.0,0.0,0.0,0.0,0.0,0.0,0.0,0.0,0.0,0.0,0.0,0.0,0.0,0.0,0.0,0.0,0.0,0.0,0.0,0.0,0.0,0.0,0.0,0.0,0.0,0.0,0.0,0.0,0.0,0.0,0.0,0.0,0.0,0.0,0.0,0.0,0.0,0.0,0.0,0.0,0.0,0.0,0.0,0.0,0.0,0.0,0.0,0.0,0.0,0.0,0.0,0.0,0.0,0.0,0.0,0.0,0.0,0.0,0.0,0.0,0.0,0.0,0.0,0.0,0.0,0.0,0.0,0.0,0.0,0.0,0.0,0.0,0.0,0.0,0.0,0.0,0.0,0.0,0.0,0.0,0.0,0.0,0.0,0.0,0.0,0.0,0.0,0.0,0.0,0.0,0.0,0.0,0.0,0.0,0.0,0.0,0.0,0.0,0.0,0.0,0.0,0.0,0.0,0.0,0.0,0.0,0.0,0.0,0.0,0.0,0.0,0.0,0.0,0.0,0.0,0.0,0.0,0.0,0.0,0.0,0.0,0.0,0.0,0.0,0.0,0.0,0.0,0.0,0.0,0.0,0.0,0.0,0.0,0.0,0.0,0.0,0.0,0.0,0.0,0.0,0.0,0.0,0.0,0.0,0.0,0.0,0.0,0.0,0.0,0.0,0.0,0.0,0.0,0.0,0.0,0.0,0.0,0.0,0.0,0.0,0.0,0.0,0.0,0.0,0.0,0.0,0.0,0.0,0.0,0.0,0.0,0.0,0.0,0.0,0.0,0.0,0.0,0.0,0.0,0.0,0.0,0.0,0.0,0.0,0.0,0.0,0.0,0.0,0.0,0.0,0.0,0.0,0.0,0.0,0.0,0.0,0.0,0.0,0.0,0.0,0.0,0.0,0.0,0.0,0.0,0.0,0.0,0.0,0.0,0.0,0.0,0.0,0.0,0.0,0.0,0.0,0.0,0.0,0.0,0.0,0.0,0.0,0.0,0.0,0.0,0.0,0.0,0.0,0.0,0.0,0.0,0.0,0.0,0.0,0.0,0.0,0.0,0.0,0.0,0.0,0.0,0.0,0.0,0.0,0.0,0.0,0.0,0.0,0.0,0.0,0.0,0.0,0.0,0.0,0.0,0.0,0.0,0.0,0.0,0.0,0.0,0.0,0.0,0.0,0.0,0.0,0.0,0.0,0.0,0.0,0.0,0.0,0.0,0.0,0.0,0.0,0.0,0.0,0.0,0.0,0.0,0.0,0.0,0.0,0.0,0.0,0.0,0.0,0.0,0.0,0.0,0.0,0.0,0.0,0.0,0.0,0.0,0.0,0.0,0.0,0.0,0.0,0.0,0.0,0.0,0.0,0.0,0.0,0.0,0.0,0.0,0.0,0.0,0.0,0.0,0.0,0.0,0.0,0.0,0.0,0.0,0.0,0.0,0.0,0.0,0.0,0.0,0.0,0.0,0.0,0.0,0.0,0.0,0.0,0.0,0.7584,0.0,0.0,0.0,0.0,0.0,0.0,0.0,0.0,0.0,0.0,0.0,0.0,0.0,0.0,0.0,0.0,0.0,0.0,0.0,0.0,0.0,0.0,0.0,0.0,0.0,0.0,0.0,0.0,0.0,0.0,0.0,0.0,0.0,0.0,0.0,0.0,0.0,0.0,0.0,0.0,0.0,0.0,0.0,0.0,0.0,0.0,0.0,0.0,0.0,0.0,0.0,0.0,0.0,0.0,0.0,0.0,0.0,0.0,0.0,0.0,0.0,0.0,0.0,0.0,0.0,0.0,0.0,0.0,0.0,0.0,0.0,0.0,0.0,0.0,0.0,0.0,0.0,0.0,0.0,0.0,0.0,0.0,0.0,0.0,0.0,0.0,0.0,0.0,0.0,0.0,0.0,0.0,0.0,0.0,0.0,0.0,0.0,0.0,0.0,0.0,0.0,0.0,0.0,0.0,0.0,0.0,0.0,0.0,0.0,0.0,0.8832,0.819,0.879,0.8669,0.7677,0.0,0.0,0.0,0.0,0.0,0.0,0.0,0.0,0.0,0.0,0.0,0.0,0.0,0.0,0.0,0.0,0.0,0.0,0.0,0.0,0.0,0.0,0.0,0.0,0.0,0.0,0.0,0.0,0.0,0.0,0.0,0.0,0.0,0.0,0.0,0.0,0.0,0.0,0.0,0.0,0.0,0.0,0.0,0.0,0.0,0.0,0.0,0.0,0.0,0.0,0.0,0.0,0.0,0.0,0.0,0.0,0.0,0.0,0.0,0.0,0.0,0.0,0.0,0.0,0.0,0.0,0.0,0.0,0.0,0.0,0.0,0.0,0.0,0.0,0.0,0.0,0.0,0.0,0.0,0.0,0.0,0.0,0.0,0.0,0.0,0.0,0.0,0.0,0.0,0.0,0.0,0.0,0.0,0.0,0.0,0.0,0.0,0.0,0.0,0.0,0.0,0.0,0.0,0.0,0.0,0.0,0.0,0.0,0.0,0.0,0.0,0.0,0.9458,0.9224,0.8018,0.0,0.0,0.0,0.0,0.0,0.0,0.0,0.0,0.0,0.0,0.0,0.0,0.0,0.0,0.0,0.0,0.0,0.0,0.0,0.0,0.0,0.0,0.0,0.0,0.0,0.0,0.0,0.0,0.0,0.0,0.0,0.0,0.0,0.0,0.0,0.0,0.0,0.0,0.0,0.0,0.0,0.0,0.0,0.0,0.0,0.0,0.0,0.0,0.0,0.0,0.0,0.0,0.0,0.0,0.0,0.0,0.0,0.0,0.0,0.0,0.0,0.0,0.0,0.0,0.0,0.0,0.0,0.0,0.0,0.0,0.0,0.0,0.0,0.0,0.0,0.0,0.0,0.0,0.0,0.0,0.0,0.0,0.0,0.0,0.0,0.0,0.0,0.0,0.0,0.0,0.0,0.0,0.0,0.0,0.0,0.0,0.0,0.0,0.0,0.0,0.0,0.0,0.0,0.0,0.0,0.0,0.0,0.0,0.0,0.0,0.8948,0.9492,1.0088,0.0,0.9006,0.0,0.0,0.0,0.0,0.0,0.0,0.0,0.0,0.0,0.0,0.0,0.0,0.0,0.0,0.0,0.0,0.0,0.0,0.0,0.0,0.0,0.0,0.0,0.0,0.0,0.0,0.0,0.0,0.0,0.0,0.0,0.0,0.0,0.0,0.0,0.0,0.0,0.0,0.0,0.0,0.0,0.0,0.0,0.0,0.0,0.0,0.0,0.0,0.0,0.0,0.0,0.0,0.0,0.0,0.0,0.0,0.0,0.0,0.0,0.0,0.0,0.0,0.0,0.0,0.0,0.0,0.0,0.0,0.0,0.0,0.0,0.0,0.0,0.0,0.0,0.0,0.0,0.0,0.0,0.0,0.0,0.0,0.0,0.0,0.0,0.0,0.0,0.0,0.0,0.0,0.0,0.0,0.0,0.0,0.0,0.0,0.0,0.0,0.0,0.0,0.0,0.0,0.0,0.0,0.0,0.0,0.0,0.0,0.0,0.0,0.9681,0.9618,0.9841,0.9763,0.0,0.0,0.0,0.0,0.0,0.0,0.0,0.0,0.0,0.0,0.0,0.0,0.0,0.0,0.0,0.0,0.0,0.0,0.0,0.0,0.0,0.0,0.0,0.0,0.0,0.0,0.0,0.0,0.0,0.0,0.0,0.0,0.0,0.0,0.0,0.0,0.0,0.0,0.0,0.0,0.0,0.0,0.0,0.0,0.0,0.0,0.0,0.0,0.0,0.0,0.0,0.0,0.0,0.0,0.0,0.0,0.0,0.0,0.0,0.0,0.0,0.0,0.0,0.0,0.0,0.0,0.0,0.0,0.0,0.0,0.0,0.0,0.0,0.0,0.0,0.0,0.0,0.0,0.0,0.0,0.0,0.0,0.0,0.0,0.0,0.0,0.0,0.0,0.0,0.0,0.0,0.0,0.0,0.0,0.0,0.0,0.0,0.0,0.0,0.0,0.0,0.0,0.0,0.0,0.0,0.0,0.0,0.0,0.0,0.0,0.9715,1.0209,1.0136,1.0122,0.9904,0.9442,0.0,0.0,0.0,0.0,0.0,0.0,0.0,0.0,0.0,0.0,0.0,0.0,0.0,0.0,0.0,0.0,0.0,0.0,0.0,0.0,0.0,0.0,0.0,0.0,0.0,0.0,0.0,0.0,0.0,0.0,0.0,0.0,0.0,0.0,0.0,0.0,0.0,0.0,0.0,0.0,0.0,0.0,0.0,0.0,0.0,0.0,0.0,0.0,0.0,0.0,0.0,0.0,0.0,0.0,0.0,0.0,0.0,0.0,0.0,0.0,0.0,0.0,0.0,0.0,0.0,0.0,0.0,0.0,0.0,0.0,0.0,0.0,0.0,0.0,0.0,0.0,0.0,0.0,0.0,0.0,0.0,0.0,0.0,0.0,0.0,0.0,0.0,0.0,0.0,0.0,0.0,0.0,0.0,0.0,0.0,0.0,0.0,0.0,0.0,0.0,0.0,0.0,0.0,0.0,0.0,0.0,0.0,0.0,1.1111,1.0209,1.0204,1.1358,1.1422,1.0671,0.0,0.0,0.0,0.0,0.0,0.0,0.0,0.0,0.0,0.0,0.0,0.0,0.0,0.0,0.0,0.0,0.0,0.0,0.0,0.0,0.0,0.0,0.0,0.0,0.0,0.0,0.0,0.0,0.0,0.0,0.0,0.0,0.0,0.0,0.0,0.0,0.0,0.0,0.0,0.0,0.0,0.0,0.0,0.0,0.0,0.0,0.0,0.0,0.0,0.0,0.0,0.0,0.0,0.0,0.0,0.0,0.0,0.0,0.0,0.0,0.0,0.0,0.0,0.0,0.0,0.0,0.0,0.0,0.0,0.0,0.0,0.0,0.0,0.0,0.0,0.0,0.0,0.0,0.0,0.0,0.0,0.0,0.0,0.0,0.0,0.0,0.0,0.0,0.0,0.0,0.0,0.0,0.0,0.0,0.0,0.0,0.0,0.0,0.0,0.0,0.0,0.0,0.0,0.0,0.0,0.0,0.0,0.0,0.0,0.8961,0.9386,1.055,1.2377,1.1074,1.0289,0.0,0.0,0.0,0.0,0.0,0.0,0.0,0.0,0.0,0.0,0.0,0.0,0.0,0.0,0.0,0.0,0.0,0.0,0.0,0.0,0.0,0.0,0.0,0.0,0.0,0.0,0.0,0.0,0.0,0.0,0.0,0.0,0.0,0.0,0.0,0.0,0.0,0.0,0.0,0.0,0.0,0.0,0.0,0.0,0.0,0.0,0.0,0.0,0.0,0.0,0.0,0.0,0.0,0.0,0.0,0.0,0.0,0.0,0.0,0.0,0.0,0.0,0.0,0.0,0.0,0.0,0.0,0.0,0.0,0.0,0.0,0.0,0.0,0.0,0.0,0.0,0.0,0.0,0.0,0.0,0.0,0.0,0.0,0.0,0.0,0.0,0.0,0.0,0.0,0.0,0.0,0.0,0.0,0.0,0.0,0.0,0.0,0.0,0.0,0.0,0.0,0.0,0.0,0.0,0.0,0.0,0.0,0.0,0.0,0.8637,0.0,1.1138,1.2224,1.0899,1.0032,0.0,0.0,0.0,0.0,0.0,0.0,0.0,0.0,0.0,0.0,0.0,0.0,0.0,0.0,0.0,0.0,0.0,0.0,0.0,0.0,0.0,0.0,0.0,0.0,0.0,0.0,0.0,0.0,0.0,0.0,0.0,0.0,0.0,0.0,0.0,0.0,0.0,0.0,0.0,0.0,0.0,0.0,0.0,0.0,0.0,0.0,0.0,0.0,0.0,0.0,0.0,0.0,0.0,0.0,0.0,0.0,0.0,0.0,0.0,0.0,0.0,0.0,0.0,0.0,0.0,0.0,0.0,0.0,0.0,0.0,0.0,0.0,0.0,0.0,0.0,0.0,0.0,0.0,0.0,0.0,0.0,0.0,0.0,0.0,0.0,0.0,0.0,0.0,0.0,0.0,0.0,0.0,0.0,0.0,0.0,0.0,0.0,0.0,0.0,0.0,0.0,0.0,0.0,0.0,0.0,0.0,0.0,0.0,0.8666,1.066,1.1808,1.1897,1.0916,1.1077,0.9923,0.0,0.0,0.0,0.0,0.0,0.0,0.0,0.0,0.0,0.0,0.0,0.0,0.0,0.0,0.0,0.0,0.0,0.0,0.0,0.0,0.0,0.0,0.0,0.0,0.0,0.0,0.0,0.0,0.0,0.0,0.0,0.0,0.0,0.0,0.0,0.0,0.0,0.0,0.0,0.0,0.0,0.0,0.0,0.0,0.0,0.0,0.0,0.0,0.0,0.0,0.0,0.0,0.0,0.0,0.0,0.0,0.0,0.0,0.0,0.0,0.0,0.0,0.0,0.0,0.0,0.0,0.0,0.0,0.0,0.0,0.0,0.0,0.0,0.0,0.0,0.0,0.0,0.0,0.0,0.0,0.0,0.0,0.0,0.0,0.0,0.0,0.0,0.0,0.0,0.0,0.0,0.0,0.0,0.0,0.0,0.0,0.0,0.0,0.0,0.0,0.0,0.0,0.0,0.0,0.0,0.0,0.0,0.0,0.0,0.9988,1.0951,1.1916,1.2768,1.1374,1.0456,0.0,0.0,0.0,0.0,0.0,0.0,0.0,0.0,0.0,0.0,0.0,0.0,0.0,0.0,0.0,0.0,0.0,0.0,0.0,0.0,0.0,0.0,0.0,0.0,0.0,0.0,0.0,0.0,0.0,0.0,0.0,0.0,0.0,0.0,0.0,0.0,0.0,0.0,0.0,0.0,0.0,0.0,0.0,0.0,0.0,0.0,0.0,0.0,0.0,0.0,0.0,0.0,0.0,0.0,0.0,0.0,0.0,0.0,0.0,0.0,0.0,0.0,0.0,0.0,0.0,0.0,0.0,0.0,0.0,0.0,0.0,0.0,0.0,0.0,0.0,0.0,0.0,0.0,0.0,0.0,0.0,0.0,0.0,0.0,0.0,0.0,0.0,0.0,0.0,0.0,0.0,0.0,0.0,0.0,0.0,0.0,0.0,0.0,0.0,0.0,0.0,0.0,0.0,0.0,0.0,0.0,0.0,0.0,0.0,1.0538,1.164,1.2628,1.3391,1.1938,1.0979,1.0606,0.0,0.0,0.0,0.0,0.0,0.0,0.0,0.0,0.0,0.0,0.0,0.0,0.0,0.0,0.0,0.0,0.0,0.0,0.0,0.0,0.0,0.0,0.0,0.0,0.0,0.0,0.0,0.0,0.0,0.0,0.0,0.0,0.0,0.0,0.0,0.0,0.0,0.0,0.0,0.0,0.0,0.0,0.0,0.0,0.0,0.0,0.0,0.0,0.0,0.0,0.0,0.0,0.0,0.0,0.0,0.0,0.0,0.0,0.0,0.0,0.0,0.0,0.0,0.0,0.0,0.0,0.0,0.0,0.0,0.0,0.0,0.0,0.0,0.0,0.0,0.0,0.0,0.0,0.0,0.0,0.0,0.0,0.0,0.0,0.0,0.0,0.0,0.0,0.0,0.0,0.0,0.0,0.0,0.0,0.0,0.0,0.0,0.0,0.0,0.0,0.0,0.0,0.0,0.0,0.0,0.0,0.0,0.0,1.2062,1.3663,1.3964,1.292,1.2707,1.1536,0.0,0.0,0.0,0.0,0.0,0.0,0.0,0.0,0.0,0.0,0.0,0.0,0.0,0.0,0.0,0.0,0.0,0.0,0.0,0.0,0.0,0.0,0.0,0.0,0.0,0.0,0.0,0.0,0.0,0.0,0.0,0.0,0.0,0.0,0.0,0.0,0.0,0.0,0.0,0.0,0.0,0.0,0.0,0.0,0.0,0.0,0.0,0.0,0.0,0.0,0.0,0.0,0.0,0.0,0.0,0.0,0.0,0.0,0.0,0.0,0.0,0.0,0.0,0.0,0.0,0.0,0.0,0.0,0.0,0.0,0.0,0.0,0.0,0.0,0.0,0.0,0.0,0.0,0.0,0.0,0.0,0.0,0.0,0.0,0.0,0.0,0.0,0.0,0.0,0.0,0.0,0.0,0.0,0.0,0.0,0.0,0.0,0.0,0.0,0.0,0.0,0.0,0.0,0.0,0.0,0.0,0.0,0.0,0.0,1.4174,1.5151,1.534,1.4691,1.3433,1.229,0.0,0.0,0.0,0.0,0.0,0.0,0.0,0.0,0.0,0.0,0.0,0.0,0.0,0.0,0.0,0.0,0.0,0.0,0.0,0.0,0.0,0.0,0.0,0.0,0.0,0.0,0.0,0.0,0.0,0.0,0.0,0.0,0.0,0.0,0.0,0.0,0.0,0.0,0.0,0.0,0.0,0.0,0.0,0.0,0.0,0.0,0.0,0.0,0.0,0.0,0.0,0.0,0.0,0.0,0.0,0.0,0.0,0.0,0.0,0.0,0.0,0.0,0.0,0.0,0.0,0.0,0.0,0.0,0.0,0.0,0.0,0.0,0.0,0.0,0.0,0.0,0.0,0.0,0.0,0.0,0.0,0.0,0.0,0.0,0.0,0.0,0.0,0.0,0.0,0.0,0.0,0.0,0.0,0.0,0.0,0.0,0.0,0.0,0.0,0.0,0.0,0.0,0.0,0.0,0.0,0.0,0.0,0.0,1.3429,1.4005,1.5407,1.5766,1.4955,1.4329,1.3392,0.0,0.0,0.0,0.0,0.0,0.0,0.0,0.0,0.0,0.0,0.0,0.0,0.0,0.0,0.0,0.0,0.0,0.0,0.0,0.0,0.0,0.0,0.0,0.0,0.0,0.0,0.0,0.0,0.0,0.0,0.0,0.0,0.0,0.0,0.0,0.0,0.0,0.0,0.0,0.0,0.0,0.0,0.0,0.0,0.0,0.0,0.0,0.0,0.0,0.0,0.0,0.0,0.0,0.0,0.0,0.0,0.0,0.0,0.0,0.0,0.0,0.0,0.0,0.0,0.0,0.0,0.0,0.0,0.0,0.0,0.0,0.0,0.0,0.0,0.0,0.0,0.0,0.0,0.0,0.0,0.0,0.0,0.0,0.0,0.0,0.0,0.0,0.0,0.0,0.0,0.0,0.0,0.0,0.0,0.0,0.0,0.0,0.0,0.0,0.0,0.0,0.0,0.0,0.0,0.0,0.0,0.0,0.0,1.3349,1.2952,1.5115,1.5765,1.467,1.5162,1.4419,0.0,0.0,0.0,0.0,0.0,0.0,0.0,0.0,0.0,0.0,0.0,0.0,0.0,0.0,0.0,0.0,0.0,0.0,0.0,0.0,0.0,0.0,0.0,0.0,0.0,0.0,0.0,0.0,0.0,0.0,0.0,0.0,0.0,0.0,0.0,0.0,0.0,0.0,0.0,0.0,0.0,0.0,0.0,0.0,0.0,0.0,0.0,0.0,0.0,0.0,0.0,0.0,0.0,0.0,0.0,0.0,0.0,0.0,0.0,0.0,0.0,0.0,0.0,0.0,0.0,0.0,0.0,0.0,0.0,0.0,0.0,0.0,0.0,0.0,0.0,0.0,0.0,0.0,0.0,0.0,0.0,0.0,0.0,0.0,0.0,0.0,0.0,0.0,0.0,0.0,0.0,0.0,0.0,0.0,0.0,0.0,0.0,0.0,0.0,0.0,0.0,0.0,0.0,0.0,0.0,0.0,0.0,0.0,1.4221,1.4896,1.6197,1.6774,1.6515,1.5198,1.3674,0.0,0.0,0.0,0.0,0.0,0.0,0.0,0.0,0.0,0.0,0.0,0.0,0.0,0.0,0.0,0.0,0.0,0.0,0.0,0.0,0.0,0.0,0.0,0.0,0.0,0.0,0.0,0.0,0.0,0.0,0.0,0.0,0.0,0.0,0.0,0.0,0.0,0.0,0.0,0.0,0.0,0.0,0.0,0.0,0.0,0.0,0.0,0.0,1.1077,0.0,0.0,0.0,0.0,0.0,0.0,0.0,0.0,0.0,0.0,0.0,0.0,0.0,0.0,0.0,0.0,0.0,0.0,0.0,0.0,0.0,0.0,0.0,0.0,0.0,0.0,0.0,0.0,0.0,0.0,0.0,0.0,0.0,0.0,0.0,0.0,0.0,0.0,0.0,0.0,0.0,0.0,0.0,0.0,0.0,0.0,0.0,0.0,0.0,0.0,0.0,0.0,0.0,0.0,0.0,0.0,0.0,0.0,0.0,1.4026,1.4983,1.6096,1.6623,1.6452,1.5508,1.4188,0.0,0.0,0.0,0.0,0.0,0.0,0.0,0.0,0.0,0.0,0.0,0.0,0.0,0.0,0.0,0.0,0.0,0.0,0.0,0.0,0.0,0.0,0.0,0.0,0.0,0.0,0.0,0.0,0.0,0.0,0.0,0.0,0.0,0.0,0.0,0.0,0.0,0.0,0.0,0.0,0.0,0.0,0.0,0.0,0.0,0.0,0.0,0.0,0.0,0.0,0.0,0.0,0.0,0.0,0.0,0.0,0.0,0.0,0.0,0.0,0.0,0.0,0.0,0.0,0.0,0.0,0.0,0.0,0.0,0.0,0.0,0.0,0.0,0.0,0.0,0.0,0.0,0.0,0.0,0.0,0.0,0.0,0.0,0.0,0.0,0.0,0.0,0.0,0.0,0.0,0.0,0.0,0.0,0.0,0.0,0.0,0.0,0.0,0.0,0.0,0.0,0.0,0.0,0.0,0.0,0.0,0.0,1.2831,1.3693,1.4617,1.5766,1.6251,1.6042,1.5874,1.5019,1.3374,0.0,0.0,0.0,0.0,0.0,0.0,0.0,0.0,0.0,0.0,0.0,0.0,0.0,0.0,0.0,0.0,0.0,0.0,0.0,0.0,0.0,0.0,0.0,0.0,0.0,0.0,0.0,0.0,0.0,0.0,0.0,0.0,0.0,0.0,0.0,0.0,0.0,0.0,1.066,1.2162,0.0,0.0,0.0,0.0,0.0,0.0,0.0,0.0,1.2736,0.0,0.0,0.0,0.0,0.0,0.0,0.0,0.0,0.0,0.0,0.0,0.0,0.0,0.0,0.0,0.0,0.0,0.0,0.0,0.0,0.0,0.0,0.0,0.0,0.0,0.0,0.0,0.0,0.0,0.0,0.0,0.0,0.0,0.0,0.0,0.0,0.0,0.0,0.0,0.0,0.0,0.0,0.0,0.0,0.0,0.0,0.0,0.0,0.0,0.0,0.0,0.0,0.0,0.0,0.0,0.0,1.2766,1.3619,1.4519,1.5551,1.6576,1.7107,1.703,1.6238,1.5042,1.3448,0.0,0.0,0.0,0.0,0.0,0.0,0.0,0.0,0.0,0.0,0.0,0.0,0.0,0.0,0.0,0.0,0.0,0.0,0.0,0.0,0.0,0.0,0.0,0.0,0.0,0.0,0.0,0.0,0.0,0.0,0.0,0.0,0.0,0.0,0.0,0.0,0.0,0.0,0.0,1.3416,1.3975,0.0,0.0,0.0,0.0,0.0,0.0,0.0,0.0,1.2601,0.0,0.0,0.0,0.0,0.0,0.0,0.0,0.0,0.0,0.0,0.0,0.0,0.0,0.0,0.0,0.0,0.0,0.0,0.0,0.0,0.0,0.0,0.0,0.0,0.0,0.0,0.0,0.0,0.0,0.0,0.0,0.0,0.0,0.0,0.0,0.0,0.0,0.0,0.0,0.0,0.0,0.0,0.0,0.0,0.0,0.0,0.0,0.0,0.0,0.0,0.0,0.0,0.0,0.0,0.0,1.2711,1.3541,1.4547,1.5767,1.6511,1.6885,1.6852,1.5705,1.4424,0.0,0.0,0.0,0.0,0.0,0.0,0.0,0.0,0.0,0.0,0.0,0.0,0.0,0.0,0.0,0.0,0.0,0.0,0.0,0.0,0.0,0.0,0.0,0.0,0.0,0.0,0.0,0.0,0.0,0.0,0.0,0.0,0.0,0.0,0.0,0.0,0.0,0.0,0.0,0.0,1.445,1.5025,1.509,0.0,0.0,0.0,0.0,0.0,0.0,1.3414,1.2815,0.0,0.0,0.0,0.0,0.0,0.0,0.0,0.0,0.0,0.0,0.0,0.0,0.0,0.0,0.0,0.0,0.0,0.0,0.0,0.0,0.0,0.0,0.0,0.0,0.0,0.0,0.0,0.0,0.0,0.0,0.0,0.0,0.0,0.0,0.0,0.0,0.0,0.0,0.0,0.0,0.0,0.0,0.0,0.0,0.0,0.0,0.0,0.0,0.0,0.0,0.0,0.0,0.0,0.0,0.0,1.2537,1.3357,1.4419,1.5744,1.6319,1.6572,1.6489,1.5226,1.395,0.0,0.0,0.0,0.0,0.0,0.0,0.0,0.0,0.0,0.0,0.0,0.0,0.0,0.0,0.0,0.0,0.0,0.0,0.0,0.0,0.0,0.0,0.0,0.0,0.0,0.0,0.0,0.0,0.0,0.0,0.0,0.0,0.0,0.0,0.0,0.0,0.0,0.0,0.0,0.0,0.0,1.6024,1.5254,1.5633,0.0,0.0,0.0,0.0,1.5259,1.4348,0.0,0.0,0.0,0.0,0.0,0.0,0.0,0.0,0.0,0.0,0.0,0.0,0.0,0.0,0.0,0.0,0.0,0.0,0.0,0.0,0.0,0.0,0.0,0.0,0.0,0.0,0.0,0.0,0.0,0.0,0.0,0.0,0.0,0.0,0.0,0.0,0.0,0.0,0.0,0.0,0.0,0.0,0.0,0.0,0.0,0.0,0.0,0.0,0.0,0.0,0.0,0.0,0.0,0.0,0.0,0.0,1.2525,1.3508,1.457,1.5756,1.6553,1.6799,1.6511,1.5542,1.4212,0.0,0.0,0.0,0.0,0.0,0.0,0.0,0.0,0.0,0.0,0.0,0.0,0.0,0.0,0.0,0.0,0.0,0.0,0.0,0.0,0.0,0.0,0.0,0.0,0.0,0.0,0.0,0.0,0.0,0.0,0.0,0.0,0.0,0.0,0.0,0.0,0.0,0.0,0.0,0.0,0.0,1.6601,1.6254,1.609,1.597,0.0,0.0,1.5491,1.5777,1.5872,0.0,0.0,0.0,0.0,0.0,0.0,0.0,0.0,0.0,0.0,0.0,0.0,0.0,0.0,0.0,0.0,0.0,0.0,0.0,0.0,0.0,0.0,0.0,0.0,0.0,0.0,0.0,0.0,0.0,0.0,0.0,0.0,0.0,0.0,0.0,0.0,0.0,0.0,0.0,0.0,0.0,0.0,0.0,0.0,0.0,0.0,0.0,0.0,0.0,0.0,0.0,0.0,0.0,0.0,0.0,0.9987,1.2092,1.3107,1.4116,1.5142,1.5777,1.5908,1.5476,1.4386,1.3183,0.0,0.0,0.0,0.0,0.0,0.0,0.0,0.0,0.0,0.0,0.0,0.0,0.0,0.0,0.0,0.0,0.0,0.0,0.0,0.0,0.0,0.0,0.0,0.0,0.0,0.0,0.0,0.0,0.0,0.0,0.0,0.0,0.0,0.0,0.0,0.0,0.0,0.0,0.0,0.0,0.0,0.0,1.6558,1.6798,0.0,0.0,0.0,1.6628,1.629,0.0,0.0,0.0,0.0,0.0,0.0,0.0,0.0,0.0,0.0,0.0,0.0,0.0,0.0,0.0,0.0,0.0,0.0,0.0,0.0,0.0,0.0,0.0,0.0,0.0,0.0,0.0,0.0,0.0,0.0,0.0,0.0,0.0,0.0,0.0,0.0,0.0,0.0,0.0,0.0,0.0,0.0,0.0,0.0,0.0,0.0,0.0,0.0,0.0,0.0,0.0,0.0,0.0,0.0,0.0,0.0,0.0,1.175,1.2774,1.3709,1.4671,1.5122,1.5156,1.4692,1.3558,0.0,0.0,0.0,0.0,0.0,0.0,0.0,0.0,0.0,0.0,0.0,0.0,0.0,0.0,0.0,0.0,0.0,0.0,0.0,0.0,0.0,0.0,0.0,0.0,0.0,0.0,0.0,0.8004,0.0,0.0,0.0,0.0,0.0,0.0,0.0,0.0,0.0,0.0,0.0,0.0,0.0,0.0,1.7193,1.6738,1.7262,1.7506,0.0,0.0,1.7356,1.6948,1.6641,1.6159,0.0,0.0,0.0,0.0,0.0,0.0,0.0,0.0,0.0,0.0,0.0,0.0,0.0,0.0,0.0,0.0,0.0,0.0,0.0,0.0,0.0,0.0,0.0,0.0,0.0,0.0,0.0,0.0,0.0,0.0,0.0,0.0,0.0,0.0,0.0,0.0,0.0,0.0,0.0,0.0,0.0,0.0,0.0,0.0,0.0,0.0,0.0,0.0,0.0,0.0,0.0,0.0,0.0,0.0,0.9791,1.174,1.2668,1.3628,1.4658,1.5022,1.5044,1.4703,1.3754,1.2648,0.0,0.0,0.0,0.0,0.0,0.0,0.0,0.0,0.0,0.0,0.0,0.0,0.0,0.0,0.0,0.0,0.0,0.0,0.0,0.0,0.0,0.0,0.0,0.0,0.0,0.0,0.0,0.0,0.0,0.0,0.0,0.0,0.0,0.0,0.0,0.0,0.0,0.0,0.0,0.0,0.0,1.7617,1.698,1.7178,1.7683,0.0,1.7625,1.7157,1.7795,1.8053,1.766,1.6022,0.0,0.0,0.0,0.0,0.0,0.0,0.0,0.0,0.0,0.0,0.0,0.0,0.0,0.0,0.0,0.0,0.0,0.0,0.0,0.0,0.0,0.0,0.0,0.0,0.0,0.0,0.0,0.0,0.0,0.0,0.0,0.0,0.0,0.0,0.0,0.0,0.0,0.0,0.0,0.0,0.0,0.0,0.0,0.0,0.0,0.0,0.0,0.0,0.0,0.0,0.0,0.0,0.0,0.9716,1.1358,1.2425,1.333,1.3981,1.4143,1.4153,1.4024,1.3488,1.2668,0.0,0.0,0.0,0.0,0.0,0.0,0.0,0.0,0.0,0.0,0.0,0.0,0.0,0.0,0.0,0.0,0.0,0.0,0.0,0.0,0.0,0.0,0.0,0.0,0.0,0.0,0.0,0.0,0.9228,0.9444,0.9467,0.0,0.0,0.0,0.0,0.0,0.0,0.0,0.0,0.0,0.0,1.6595,1.6932,1.6863,0.0,0.0,1.7364,1.739,1.7445,1.7112,1.6602,1.5861,1.4797,0.0,0.0,0.0,0.0,0.0,0.0,0.0,0.0,0.0,0.0,0.0,0.0,0.0,0.0,0.0,0.0,0.0,0.0,0.0,0.0,0.0,0.0,0.0,0.0,0.0,0.0,0.0,0.0,0.0,0.0,0.0,0.0,0.0,0.0,0.0,0.0,0.0,0.0,0.0,0.0,0.0,0.0,0.0,0.0,0.0,0.0,0.0,0.0,0.0,0.0,0.0,0.0,0.9843,1.1096,1.2266,1.3121,1.3586,1.361,1.361,1.36,1.3244,1.2611,0.0,0.0,0.0,0.0,0.0,0.0,0.0,0.0,0.0,0.0,0.0,0.0,0.0,0.0,0.0,0.0,0.0,0.0,0.0,0.0,0.0,0.0,0.0,0.0,0.0,0.0,0.0,0.0,0.9275,0.9305,0.9569,0.0,0.0,0.0,0.0,0.0,0.0,0.0,0.0,0.0,0.0,1.59,1.659,1.6694,1.6815,1.7137,1.7514,1.773,1.7585,1.6875,1.617,1.5756,0.0,0.0,0.0,0.0,0.0,0.0,0.0,0.0,0.0,0.0,0.0,0.0,0.0,0.0,0.0,0.0,0.0,0.0,0.0,0.0,0.0,0.0,0.0,0.0,0.0,0.0,0.0,0.5988,0.0,0.0,0.5543,0.0,0.0,0.0,0.0,0.0,0.0,0.0,0.0,0.0,0.0,0.0,0.0,0.0,0.0,0.0,0.0,0.0,0.0,0.0,0.0,0.0,0.0,1.0149,1.1098,1.2339,1.3142,1.3598,1.3609,1.3609,1.3598,1.3164,1.2535,1.1714,0.0,0.0,0.0,0.0,0.0,0.0,0.0,0.0,0.0,0.0,0.0,0.0,0.0,0.0,0.0,0.0,0.0,0.0,0.0,0.0,0.0,0.0,0.0,0.0,0.0,0.0,0.9318,0.9422,0.9434,0.0,0.0,0.0,0.0,0.0,0.0,0.0,0.0,0.0,0.0,1.4887,1.5835,1.6,1.6769,1.756,1.8495,1.8252,1.8104,1.8481,1.7796,1.69,0.0,0.0,0.0,0.0,0.0,0.0,0.0,0.0,0.0,0.0,0.0,0.0,0.0,0.0,0.0,0.0,0.0,0.0,0.0,0.0,0.0,0.0,0.0,0.0,0.0,0.0,0.0,0.6737,0.662,0.0,0.0,0.0,0.0,0.0,0.0,0.0,0.0,0.0,0.0,0.0,1.1671,1.2058,0.0,0.0,0.0,0.0,0.0,0.0,0.0,0.0,0.0,0.0,0.0,0.0,1.0772,1.1943,1.3189,1.3898,1.4064,1.4076,1.3909,1.3631,1.3442,1.2701,1.1266,0.0,0.0,0.0,0.0,0.0,0.0,0.0,0.0,0.0,0.0,0.0,0.0,0.0,0.0,0.0,0.0,0.0,0.0,0.0,0.0,0.0,0.0,0.0,0.0,0.0,0.9554,0.0,0.0,0.0,0.0,0.0,0.0,0.0,0.0,0.0,0.0,0.0,1.3841,1.4208,1.4683,1.506,1.5192,1.5393,1.5748,0.0,0.0,0.0,0.0,0.0,0.0,0.0,0.0,0.0,0.0,0.0,0.0,0.0,0.0,1.5432,1.3895,1.3368,1.3227,1.3377,0.0,0.0,0.0,0.0,0.0,0.0,0.0,0.0,0.0,0.0,0.0,0.0,0.0,0.0,0.7356,0.0,0.7315,0.0,0.0,0.0,0.0,0.0,0.0,0.0,0.0,1.1069,1.1849,1.2137,1.2353,1.2464,0.0,1.2273,1.1745,0.0,0.0,0.0,0.0,0.0,0.0,0.0,0.0,1.1351,1.247,1.3596,1.4261,1.4455,1.4465,1.4274,1.3845,1.3514,1.2762,1.1486,1.1026,1.0157,0.0,0.0,0.0,0.0,0.0,0.0,0.0,0.0,0.0,0.0,0.0,0.0,0.0,0.0,0.0,0.0,0.0,0.0,0.0,0.0,0.0,0.0,0.0,0.9689,0.0,0.0,0.0,0.0,0.0,0.0,0.0,0.0,0.0,1.3888,1.3768,1.3824,1.4528,1.4494,1.4548,1.489,0.0,0.0,0.0,0.0,0.0,0.0,0.0,1.5104,1.5791,1.5154,1.4696,1.5138,1.5657,1.5927,1.5628,0.0,0.0,1.5029,1.4496,1.4303,1.4258,1.4209,1.4105,1.4041,1.3934,1.3894,0.0,0.0,0.0,0.0,0.0,0.0,0.0,0.0,0.8336,0.8258,0.0,0.8131,0.0,0.0,0.0,0.0,0.0,0.9714,0.0,0.0,1.1613,1.2206,1.2194,1.2225,1.2583,1.3191,1.3398,1.3345,1.2926,1.0634,0.0,0.0,0.0,0.0,0.0,0.0,1.1909,1.2649,1.353,1.4238,1.4777,1.4834,1.4648,1.4268,1.342,1.275,1.2306,1.1923,1.1099,0.9734,0.9253,0.0,0.0,0.0,0.0,0.0,0.0,0.0,0.0,0.0,0.0,0.0,0.0,0.0,0.0,0.0,0.0,0.0,0.0,0.0,0.0,1.0,0.0,0.0,0.0,0.0,0.0,0.0,0.0,0.0,0.0,0.0,1.355,1.3579,1.3778,1.4473,0.0,0.0,0.0,0.0,1.6374,1.618,1.6819,1.7315,1.7315,1.6804,1.6411,1.632,0.0,0.0,1.5769,1.629,1.6578,1.583,1.6558,1.7204,1.6947,1.6167,1.5594,1.5464,1.4704,1.4299,1.4767,1.4331,1.4086,0.9355,0.0,0.0,0.0,0.0,0.9326,0.9391,0.9416,0.9197,0.9071,0.9036,0.9016,0.0,0.0,0.0,0.0,0.0,0.0,1.0718,1.0925,1.1944,1.2391,1.2352,1.2653,1.2935,1.3258,1.2908,1.2825,1.2887,1.1472,1.0571,1.024,0.0,0.0,0.0,0.0,1.268,1.3517,1.4399,1.4914,1.509,1.51,1.4753,1.4043,1.3745,1.326,1.2545,1.2483,1.1994,1.0938,1.0212,0.0,0.0,0.0,0.0,0.0,0.0,0.0,0.0,0.0,0.0,0.0,0.0,0.0,0.0,0.0,0.0,0.0,0.0,0.0,0.9637,0.9391,0.9367,0.0,0.0,0.0,0.0,0.0,0.0,0.0,0.0,0.0,1.3983,1.4091,1.3972,0.0,0.0,1.469,1.4577,1.5056,1.5487,1.5681,1.5908,0.0,1.6373,1.6055,1.5936,1.6368,1.6656,1.6834,1.6825,1.7,1.7155,1.7122,1.7015,1.6987,1.7422,1.6903,1.6273,1.5894,1.5194,1.4719,1.4852,1.4461,1.4163,0.9108,0.8894,0.9558,0.9766,0.965,0.9717,0.9785,0.9811,0.9614,0.9582,0.9674,0.9674,0.9571,0.9389,0.9532,0.0,0.0,0.0,1.088,1.0845,1.1595,1.1925,1.1903,1.2119,1.2424,1.2759,1.25,1.2557,1.2929,1.2173,1.1623,1.1235,0.0,0.0,1.1496,1.2254,1.316,1.4228,1.4778,1.5153,1.5399,1.5271,1.4934,1.4436,1.4245,1.3726,1.2846,1.2869,1.2407,1.1281,1.0812,1.0081,0.0,0.0,0.0,0.0,0.0,0.0,0.0,0.0,0.0,0.0,0.0,0.7033,0.6779,0.0,0.0,0.0,0.7975,0.8812,0.9895,0.9652,0.0,0.0,0.0,0.0,0.0,0.0,0.0,1.3113,1.3388,1.3699,1.4192,1.4491,1.4537,1.4245,1.4675,1.4984,1.4969,0.0,1.5476,1.5727,1.5893,1.6044,1.6248,1.6233,1.6382,1.7021,1.7043,1.7124,1.7465,1.7429,1.7363,1.7317,1.7098,1.6899,1.6889,1.6498,1.598,1.5449,1.5012,1.4755,1.467,1.4411,1.4303,0.8403,0.8491,0.9386,0.9754,0.9731,0.9782,0.9821,0.9801,0.9801,0.994,1.0165,1.0172,1.0077,0.9947,1.0306,0.0,0.9623,1.0828,1.1023,1.0475,1.0878,1.105,1.1059,1.1075,1.1367,1.1966,1.2097,1.2428,1.2847,1.2595,1.2249,1.1828,1.1338,1.1602,1.2519,1.2653,1.3332,1.4584,1.466,1.4948,1.5493,1.5219,1.5058,1.4984,1.4565,1.3909,1.3028,1.2962,1.236,1.1128,1.107,1.0518,0.9346,0.0,0.0,0.0,0.0,0.0,0.0,0.0,0.0,0.0,0.0,0.0,0.0,0.0,0.0,0.0,0.9329,0.0,1.0498,1.0469,0.0,0.0,0.0,1.1563,1.19,1.2492,1.3138,1.3757,0.0,0.0,1.4238,1.4818,1.5305,1.5541,1.5268,1.5256,1.5847,1.5895,1.5993,1.6175,1.6453,1.6676,1.6683,1.6907,1.7168,1.7559,1.7387,1.7099,1.7363,1.7264,1.6971,1.6706,1.6809,1.6715,1.568,1.5494,1.5105,1.4483,1.4423,1.4439,1.4358,1.431,1.4431,0.8403,0.8419,0.8659,0.9176,0.9906,1.0506,1.0735,1.0704,1.0697,1.0738,1.0804,1.0782,1.0862,1.1035,1.1125,1.1081,1.0935,1.1035,1.1007,1.0856,1.0755,1.0719,1.0728,1.0719,1.1021,1.1554,1.1202,1.1381,1.2042,1.1511,1.1246,1.1296,1.115,1.1254,1.1581,1.2164,1.2672,1.311,1.3417,1.3722,1.4004,1.3939,1.3767,1.3444,1.3104,1.2631,1.2057,1.1875,1.1653,1.1323,1.1119,1.0897,1.0635,0.93,0.0,0.0,0.0,0.0,0.0,0.0,0.0,0.0,0.0,0.9024,0.7054,0.0,0.9851,0.0,0.883,0.941,1.0292,1.0491,0.0,0.0,1.2285,1.2678,1.3048,1.346,1.3809,1.4079,1.4424,1.4685,1.4719,1.5098,1.5368,1.5437,1.5371,1.5323,1.5397,1.5475,1.5726,1.6234,1.6433,1.6566,1.6831,1.6912,1.6841,1.6342,1.6153,1.5878,1.5393,1.5238,1.535,1.5833,1.5598,1.5413,1.5651,1.5123,1.4549,1.434,1.4332,1.436,1.4315,1.4327,1.4339,0.7465,0.7498,0.7846,0.8376,0.9011,0.9646,0.9886,0.9848,0.9842,0.9842,0.987,1.0204,1.0653,1.1108,1.1149,1.1131,1.1136,1.0962,1.0948,1.1042,1.0883,1.0761,1.0658,1.0642,1.0761,1.0942,1.0618,1.0751,1.1209,1.0886,1.0782,1.0886,1.0877,1.0885,1.0973,1.1784,1.2428,1.286,1.3015,1.3169,1.3252,1.3275,1.3143,1.2861,1.2677,1.2228,1.1469,1.1315,1.1086,1.0714,1.0824,1.083,1.0611,0.9819,0.9171,0.0,0.0,0.0,0.0,0.0,0.0,0.0,0.0,0.0,0.0,0.0,1.0218,0.9402,0.9601,1.0153,1.1022,1.124,1.1674,1.2445,1.2901,1.3249,1.3492,1.3923,1.4301,1.4503,1.4741,1.4809,1.4591,1.5058,1.5257,1.4873,1.4831,1.4985,1.5428,1.5596,1.5826,1.6309,1.6514,1.6741,1.7041,1.6977,1.6789,1.6451,1.5915,1.5428,1.5268,1.4837,1.4653,1.4869,1.4603,1.4489,1.4986,1.449,1.4016,1.425,1.4322,1.4322,1.4322,1.4322,1.4322,0.628,0.6358,0.7065,0.7442,0.7643,0.7966,0.8242,0.846,0.846,0.846,0.8496,0.9342,1.0102,1.0749,1.0877,1.0906,1.0929,1.0868,1.0959,1.1121,1.1082,1.0933,1.0717,1.0717,1.0587,1.037,1.0331,1.0408,1.0583,1.0543,1.0514,1.053,1.0561,1.0577,1.0634,1.1413,1.2181,1.2872,1.2795,1.2765,1.278,1.2765,1.2693,1.2555,1.2489,1.1979,1.097,1.0885,1.0517,0.9829,1.0315,1.0438,1.0067,1.0191,0.9847,0.0,0.8449,0.0,0.0,0.0,0.0,0.0,0.0,0.0,0.0,0.9986,1.0341,1.0679,1.0952,1.1363,1.2038,1.2301,1.2552,1.2867,1.321,1.3465,1.3541,1.393,1.4311,1.4571,1.4613,1.4419,1.4022,1.4608,1.4741,1.4055,1.3922,1.424,1.5247,1.549,1.5684,1.6125,1.6361,1.629,1.6614,1.6561,1.6401,1.6472,1.5594,1.5113,1.5261,1.4638,1.4028,1.3734,1.362,1.3722,1.4058,1.3775,1.3678,1.4082,1.4232,1.4298,1.4322,1.4322,1.4322,0.628,0.6319,0.6474,0.6548,0.6598,0.6671,0.7472,0.8732,0.8737,0.8719,0.8801,0.9871,1.0403,1.0611,1.1242,1.1529,1.1523,1.1319,1.1228,1.1257,1.0999,1.0842,1.0774,1.078,1.0765,1.0691,1.0469,1.041,1.0427,1.0219,1.011,1.0117,1.0285,1.045,1.0609,0.0,0.0,0.0,1.1389,1.1522,1.1608,1.1514,1.1392,1.1264,1.0843,0.0,0.9989,0.9709,0.954,0.9489,0.9603,0.0,0.0,0.0,0.0,0.0,0.0,0.0,0.0,0.0,0.0,0.0,1.0153,1.0082,0.9326,1.0494,1.129,1.1273,1.1821,1.2145,1.2035,1.2782,1.3297,1.3349,1.3271,1.3269,1.3513,1.3042,1.2758,1.3071,1.313,1.3106,1.3023,1.312,1.3163,1.2999,1.2972,1.3111,1.353,1.4137,1.4613,1.4994,1.4829,1.4591,1.4828,1.4667,1.4369,1.3701,1.3434,1.3008,1.2484,1.2155,1.2087,1.2287,1.236,1.2559,1.3026,1.3292,1.3491,1.3636,1.3992,1.4322,1.4322,1.4322,1.4322,0.618,0.0,0.628,0.628,0.0,0.628,0.6782,0.7555,0.7574,0.7799,0.8197,0.877,0.9253,0.9631,1.0032,1.0226,1.0214,1.0074,1.0282,1.0741,1.0592,1.0658,1.0901,1.0901,1.0832,1.0701,1.0553,1.0459,1.0388,1.0255,1.0116,1.0005,1.0206,1.0355,1.045,1.0561,1.064,1.0697,1.0791,1.0886,1.0942,1.0886,1.0772,1.0604,0.0,0.0,0.0,0.0,0.0,0.0,0.0,0.0,0.0,0.0,0.0,0.974,0.9516,0.9465,0.9623,0.9863,1.0123,1.0384,1.0925,1.1002,1.0372,1.1108,1.1693,1.1926,1.2441,1.2743,1.2765,1.3353,1.3624,1.3348,1.3323,1.3272,1.294,1.2638,1.2509,1.2666,1.2696,1.2541,1.2081,1.2456,1.2458,1.2092,1.2113,1.2357,1.2911,1.3303,1.3736,1.4226,1.4345,1.4268,1.4231,1.3832,1.356,1.3435,1.3055,1.2532,1.2038,1.1531,1.1321,1.1536,1.1614,1.1785,1.2273,1.2589,1.2905,1.3364,1.3732,1.401,1.4226,1.4322,1.4322,0.6175,0.6375,0.6347,0.6337,0.6334,0.631,0.628,0.628,0.0,0.0,0.0,0.7446,0.7868,0.8489,0.8642,0.8703,0.8703,0.8703,0.916,0.9916,0.9935,1.0237,1.0791,1.081,1.0766,1.0682,1.0644,1.056,1.0455,1.0361,1.0198,1.0007,1.0136,1.0222,1.026,1.045,1.0545,1.0545,1.0586,1.0624,1.064,1.0624,1.0515,1.0317,1.0057,0.9864,0.9702,0.9445,0.9358,0.9493,0.9645,0.9721,0.969,1.012,1.0278,1.017,1.0391,1.058,1.0682,1.0682,1.0726,1.085,1.1407,1.1738,1.1664,1.1782,1.2052,1.2562,1.295,1.3233,1.3356,1.3697,1.3659,1.3028,1.3101,1.2864,1.2156,1.2099,1.2114,1.2227,1.212,1.1943,1.1225,1.1731,1.2008,1.1341,1.1307,1.1696,1.2439,1.2747,1.3043,1.3431,1.3607,1.3872,1.3701,1.3213,1.3106,1.3368,1.2889,1.2471,1.2297,1.1746,1.1267,1.1243,1.1194,1.1394,1.1761,1.198,1.2322,1.3201,1.3443,1.3654,1.4154,1.4322,1.4322,0.6593,0.663,0.6518,0.646,0.647,0.6351,0.628,0.628,0.628,0.6358,0.6509,0.7196,0.7561,0.7691,0.8399,0.8703,0.8703,0.8703,0.8775,0.0,0.8927,0.9334,1.0037,1.0056,1.0413,1.0966,1.0797,1.0682,1.0598,1.0192,0.995,0.9912,0.9883,0.9916,1.0053,1.0244,1.0333,1.0333,1.0507,1.0649,1.076,1.0672,1.053,1.0376,1.0179,0.9964,0.9705,0.9644,0.9682,0.9833,0.9868,0.9925,1.0031,1.0116,1.0187,1.0251,1.0315,1.053,1.0997,1.1034,1.1245,1.1771,1.2158,1.2253,1.1998,1.2465,1.283,1.294,1.3433,1.3532,1.2889,1.3291,1.3258,1.2437,1.1909,1.1567,1.1412,1.0864,1.0506,1.0528,1.0381,1.0441,1.0364,1.0534,1.0753,1.0555,1.0749,1.0908,1.134,1.1893,1.2372,1.2411,1.2023,1.1716,1.1833,1.16,1.1668,1.1604,1.1639,1.1526,1.1536,1.1365,1.1194,1.1194,1.1194,1.1243,1.1365,1.1707,1.217,1.2789,1.3152,1.3606,1.413,1.4274,1.4298,0.5152,0.5708,0.5814,0.6141,0.661,0.6546,0.6518,0.6522,0.6518,0.6446,0.6342,0.6683,0.6853,0.6891,0.7234,0.7407,0.7388,0.7384,0.7638,0.8036,0.8055,0.847,0.9193,0.9255,0.9439,0.9787,0.9667,0.9551,0.9389,0.9147,0.8971,0.8822,0.8769,0.8816,0.8947,0.9368,0.9646,0.9776,1.0301,1.0624,1.0681,1.0624,1.0573,1.05,1.0244,1.0045,0.992,0.9781,0.9723,0.9795,0.9868,0.9962,1.0106,1.0348,1.0557,1.0718,1.0803,1.0991,1.1341,1.1517,1.1794,1.2246,1.2582,1.25,1.195,1.2566,1.2898,1.2658,1.3021,1.2978,1.2304,1.259,1.2541,1.179,1.1434,1.1111,1.0657,1.0272,1.0016,1.0016,1.0016,1.0038,1.0152,1.0233,1.0342,1.0444,1.065,1.0858,1.1019,1.1409,1.1693,1.1679,1.1419,1.1228,1.1194,1.1194,1.1194,1.1194,1.1194,1.1194,1.1194,1.1194,1.1194,1.1194,1.1194,1.1194,1.1194,1.1389,1.178,1.2273,1.2789,1.3268,1.3727,1.4058,1.4298,0.3786,0.4631,0.4795,0.5424,0.6301,0.6512,0.664,0.6698,0.6719,0.6573,0.6399,0.6399,0.6379,0.6379,0.6364,0.6351,0.6344,0.6313,0.6644,0.718,0.7234,0.7657,0.836,0.8418,0.8532,0.8665,0.8703,0.8595,0.8421,0.8323,0.816,0.7929,0.791,0.7931,0.8003,0.8531,0.8881,0.9015,0.9727,1.028,1.0577,1.0586,1.0586,1.0573,1.0356,1.0199,1.0207,1.0015,0.9909,0.9909,1.0006,1.0095,1.022,1.0592,1.0892,1.1088,1.1213,1.1323,1.1425,1.1752,1.1983,1.206,1.2378,1.2304,1.1789,1.2322,1.2572,1.2204,1.2317,1.2251,1.1776,1.1864,1.174,1.1112,1.0998,1.0722,1.012,1.0016,1.0016,1.0016,1.0037,1.0124,1.0264,1.038,1.0515,1.072,1.0878,1.1014,1.1161,1.1194,1.1194,1.1194,1.1194,1.1194,1.1194,1.1194,1.1194,1.1194,1.1194,1.1194,1.1194,1.1194,1.1194,1.1194,1.1194,1.1194,1.1194,1.1218,1.1463,1.1956,1.237,1.2789,1.3443,1.3943,1.4274,0.3592,0.3673,0.3564,0.4115,0.5165,0.5978,0.6466,0.6712,0.6722,0.6692,0.6661,0.6658,0.6678,0.6644,0.6532,0.6494,0.646,0.6361,0.6361,0.6439,0.6412,0.6853,0.758,0.7618,0.7978,0.857,0.8627,0.8537,0.8472,0.8328,0.8151,0.793,0.7906,0.7847,0.7912,0.8117,0.8203,0.8044,0.8416,0.9255,1.0511,1.0586,1.0586,1.0586,1.055,1.0568,1.0485,1.0533,1.0506,1.0528,1.0477,1.0521,1.053,1.0699,1.0869,1.1057,1.1195,1.1196,1.0952,1.1456,1.1505,1.0904,1.115,1.1304,1.1187,1.1662,1.187,1.1584,1.1762,1.1655,1.1011,1.1181,1.1048,1.0344,1.0207,1.0077,1.0038,1.0016,1.0016,1.0016,1.0161,1.0285,1.0343,1.0631,1.091,1.1068,1.1112,1.1142,1.1179,1.1194,1.1194,1.1194,1.1194,1.1194,1.1194,1.1194,1.1194,1.1194,1.1194,1.1194,1.1194,1.1194,1.1194,1.1194,1.1194,1.1194,1.1194,1.1218,1.137,1.1761,1.2102,1.2419,1.3268,1.3943,1.4274,0.2101,0.2704,0.2637,0.3601,0.514,0.544,0.6069,0.6916,0.6812,0.6812,0.6916,0.6938,0.6843,0.6698,0.6654,0.6627,0.6597,0.6474,0.6426,0.6399,0.634,0.647,0.6756,0.6776,0.6968,0.7253,0.7273,0.7292,0.7261,0.7179,0.7015,0.6789,0.677,0.6738,0.6694,0.7167,0.7412,0.7442,0.799,0.862,0.9211,0.9338,0.9348,0.9348,0.9348,0.9556,0.9859,0.9588,0.954,0.9875,0.9566,0.9412,0.9464,0.9528,0.9655,0.9853,1.0132,1.039,1.0548,1.09,1.1032,1.0894,1.1026,1.0965,1.0604,1.0787,1.0748,1.0495,1.1015,1.1068,1.0286,1.036,1.0386,1.0077,1.0016,1.0016,1.0016,1.0016,1.0032,1.0161,1.026,1.0399,1.0626,1.0906,1.109,1.1184,1.1194,1.1194,1.1194,1.1194,1.1194,1.1194,1.1194,1.1194,1.1194,1.1194,1.1194,1.1194,1.1194,1.1194,1.1194,1.1194,1.1194,1.1194,1.1194,1.1194,1.1194,1.1194,1.1292,1.1634,1.2248,1.2783,1.3775,1.413,1.4274,0.0762,0.1501,0.1859,0.2973,0.449,0.4645,0.5312,0.6226,0.6185,0.6343,0.6697,0.6719,0.6763,0.6813,0.6762,0.6766,0.6742,0.6627,0.6556,0.6546,0.6447,0.6402,0.6364,0.6338,0.6337,0.6306,0.6319,0.6319,0.628,0.628,0.6219,0.6086,0.6091,0.6037,0.5994,0.6492,0.6761,0.6837,0.7382,0.7729,0.778,0.7894,0.8148,0.8457,0.8506,0.8732,0.9182,0.8748,0.8716,0.9176,0.8764,0.8565,0.8706,0.8761,0.8881,0.9156,0.9551,0.984,1.0065,1.0271,1.0423,1.0447,1.0457,1.0274,0.9995,0.9954,0.9888,0.974,1.0338,1.0453,0.9904,0.9887,0.9985,1.0016,1.0016,1.0016,1.0016,1.0032,1.0146,1.0271,1.0413,1.0579,1.0901,1.1095,1.1184,1.1189,1.1194,1.1194,1.1194,1.1194,1.1194,1.1194,1.1194,1.1194,1.1194,1.1194,1.1194,1.1194,1.1194,1.1194,1.1194,1.1194,1.1194,1.1194,1.1194,1.1194,1.1194,1.1194,1.1218,1.1419,1.2054,1.2953,1.3534,1.3986,1.4274,0.0045,0.0,0.1322,0.1991,0.2326,0.3444,0.4113,0.4599,0.449,0.4934,0.5719,0.5764,0.6242,0.6938,0.6754,0.6855,0.688,0.6759,0.6692,0.6688,0.6671,0.6597,0.6508,0.6501,0.6436,0.6327,0.632,0.631,0.63,0.628,0.6277,0.6263,0.6256,0.626,0.6252,0.6322,0.6239,0.6217,0.6422,0.6401,0.6338,0.659,0.7341,0.8298,0.849,0.8457,0.8549,0.8517,0.8522,0.8528,0.8473,0.8526,0.874,0.8851,0.9034,0.9402,0.9901,0.9875,0.9353,0.963,0.965,0.9022,0.9041,0.8957,0.9217,0.9435,0.9614,0.9627,0.9938,1.006,0.9978,0.9971,1.0016,1.0016,1.0016,1.0016,1.0021,1.0165,1.0289,1.0366,1.064,1.0915,1.1152,1.1184,1.1194,1.1194,1.1194,1.1194,1.1194,1.1194,1.1194,1.1194,1.1194,1.1194,1.1194,1.1194,1.1194,1.1194,1.1194,1.1194,1.1194,1.1194,1.1194,1.1194,1.1194,1.1194,1.1194,1.1218,1.1247,1.1541,1.2175,1.291,1.3364,1.3865,1.4178,0.0,0.0,0.065,0.1276,0.1925,0.2195,0.2953,0.3996,0.3913,0.42,0.4734,0.4825,0.5001,0.5309,0.5252,0.5895,0.6964,0.6891,0.6823,0.6813,0.6728,0.6671,0.6624,0.6617,0.6559,0.6453,0.6436,0.6365,0.6306,0.628,0.628,0.628,0.628,0.628,0.628,0.628,0.6269,0.6224,0.6402,0.6456,0.6445,0.6665,0.7051,0.7497,0.7526,0.775,0.8174,0.7767,0.7733,0.8162,0.7784,0.758,0.7643,0.7692,0.7933,0.8371,0.8595,0.8747,0.8847,0.9016,0.9022,0.877,0.8831,0.8972,0.9184,0.9413,0.963,0.9819,0.9916,1.0016,1.0016,1.0016,1.0016,1.0016,1.0016,1.0016,1.0032,1.0162,1.0342,1.0517,1.083,1.1138,1.1165,1.1194,1.1194,1.1194,1.1194,1.1194,1.1194,1.1194,1.1194,1.1194,1.1194,1.1194,1.1194,1.1194,1.1194,1.1194,1.1194,1.1194,1.1194,1.1194,1.1194,1.1194,1.1194,1.1194,1.1194,1.1194,1.1243,1.1663,1.2327,1.2837,1.3225,1.3793,1.4154,0.0,0.0,0.0292,0.0806,0.1411,0.1345,0.1993,0.304,0.2953,0.3266,0.3779,0.3846,0.4002,0.4267,0.4312,0.4934,0.6107,0.6094,0.6055,0.605,0.5964,0.6051,0.6291,0.6326,0.6419,0.6471,0.621,0.602,0.586,0.5612,0.5512,0.5473,0.5495,0.565,0.5828,0.5886,0.5983,0.6241,0.6412,0.6526,0.6602,0.6813,0.6951,0.707,0.7127,0.7315,0.7664,0.7255,0.7197,0.7531,0.7237,0.7016,0.7069,0.7131,0.7318,0.7654,0.7848,0.8065,0.8452,0.8608,0.8751,0.8807,0.892,0.9109,0.9352,0.9522,0.9734,0.9933,1.0016,1.0016,1.0016,1.0016,1.0016,1.0016,1.0016,1.0016,1.003,1.0251,1.0508,1.0778,1.1005,1.117,1.1194,1.1194,1.1194,1.1194,1.1194,1.1194,1.1194,1.1194,1.1194,1.1194,1.1194,1.1194,1.1194,1.1194,1.1194,1.1194,1.1194,1.1194,1.1194,1.1194,1.1194,1.1194,1.1194,1.1194,1.1194,1.1194,1.1414,1.1736,1.2297,1.2837,1.3316,1.3817,1.4106,0.0,0.0,0.0292,0.0516,0.074,0.0964,0.1211,0.1502,0.1524,0.2084,0.2822,0.2889,0.329,0.3978,0.3931,0.42,0.4241,0.4255,0.4386,0.4541,0.4515,0.4883,0.5475,0.5494,0.5817,0.6343,0.5615,0.5115,0.4984,0.4401,0.4062,0.3917,0.4049,0.4416,0.4982,0.5024,0.5398,0.5906,0.6064,0.6251,0.6579,0.6711,0.6931,0.7203,0.739,0.7353,0.7104,0.7056,0.7073,0.7082,0.706,0.7068,0.7224,0.7354,0.7502,0.7589,0.7878,0.8074,0.8174,0.8499,0.8793,0.8934,0.9005,0.9178,0.9489,0.9611,0.9752,0.9952,1.0016,1.0016,1.0016,1.0016,1.0016,1.0016,1.0016,1.0016,1.0089,1.0356,1.0749,1.1081,1.1184,1.1194,1.1194,1.1194,1.1194,1.1194,1.1194,1.1194,1.1194,1.1194,1.1194,1.1194,1.1194,1.1194,1.1194,1.1194,1.1194,1.1194,1.1194,1.1194,1.1194,1.1194,1.1194,1.1194,1.1194,1.1194,1.1194,1.1194,1.1194,1.1536,1.22,1.2764,1.3123,1.3552,1.4034,0.0,0.0,0.009,0.0157,0.0247,0.0516,0.074,0.0942,0.1099,0.148,0.1816,0.1861,0.2039,0.224,0.2306,0.2329,0.2306,0.2327,0.2996,0.4089,0.4267,0.4386,0.4628,0.4687,0.4768,0.4822,0.4464,0.4216,0.4136,0.3895,0.3804,0.3818,0.3785,0.3932,0.4146,0.4183,0.4358,0.4552,0.4713,0.5121,0.5835,0.6102,0.6568,0.7326,0.7465,0.7457,0.7344,0.7355,0.7359,0.7328,0.7355,0.7365,0.7403,0.7452,0.7561,0.7718,0.7953,0.8159,0.8312,0.8546,0.8803,0.8977,0.9128,0.9315,0.9573,0.9776,0.9914,0.9985,1.0016,1.0016,1.0016,1.0016,0.9951,0.9994,1.0016,1.0017,1.0098,1.0509,1.0877,1.1127,1.1194,1.1194,1.1194,1.1194,1.1145,1.1194,1.1194,1.1194,1.1194,1.1194,1.1194,1.1194,1.1194,1.1194,1.1194,1.1194,1.1194,1.1194,1.1194,1.1194,1.1194,1.1194,1.1194,1.1194,1.1194,1.1194,1.1194,1.1194,1.1194,1.1487,1.2127,1.2516,1.2783,1.3244,1.3799,0.0,0.0,0.0,0.0067,0.0157,0.0336,0.0516,0.0718,0.0874,0.1076,0.1256,0.1301,0.1346,0.1391,0.1413,0.1413,0.1413,0.1413,0.2038,0.3087,0.3221,0.34,0.3779,0.4154,0.4244,0.4015,0.3654,0.3402,0.3333,0.302,0.2855,0.2867,0.2874,0.3039,0.3313,0.3367,0.3457,0.3761,0.3949,0.4338,0.4924,0.5251,0.5696,0.6356,0.653,0.6707,0.6957,0.7034,0.7169,0.7422,0.7499,0.7499,0.7499,0.7499,0.7561,0.7699,0.7929,0.814,0.8298,0.8596,0.8892,0.9099,0.9286,0.9493,0.9708,0.9921,1.0011,1.0016,1.0016,0.9907,0.9641,0.9576,0.9516,0.9261,0.9437,0.9553,0.9667,1.0094,1.0425,1.0489,1.0375,1.06,1.1022,1.085,1.0949,1.1096,1.1194,1.1194,1.1194,1.1194,1.1194,1.1194,1.1194,1.1194,1.1194,1.1194,1.1194,1.1194,1.1194,1.1194,1.1194,1.1194,1.1194,1.1194,1.1194,1.1194,1.1194,1.1194,1.1243,1.1683,1.2005,1.237,1.271,1.3147,1.363,0.0,0.0,0.0,0.0112,0.0314,0.0381,0.0493,0.065,0.0718,0.0852,0.1031,0.1099,0.1211,0.1368,0.1391,0.1413,0.1413,0.1413,0.1457,0.1614,0.1704,0.2084,0.2822,0.3487,0.3699,0.36,0.3001,0.2669,0.2506,0.19,0.1308,0.1517,0.1594,0.1726,0.2385,0.2516,0.2844,0.3331,0.3509,0.3655,0.4027,0.4224,0.4555,0.486,0.5118,0.5506,0.6047,0.6163,0.6568,0.7346,0.7499,0.7499,0.7499,0.7499,0.7499,0.7542,0.788,0.8098,0.8245,0.87,0.9104,0.9291,0.9382,0.967,0.9755,0.9645,0.9598,0.9619,0.9663,0.9467,0.8956,0.8858,0.8605,0.8185,0.8586,0.8775,0.8474,0.9172,0.9591,0.9547,0.9217,0.9217,1.0453,1.0035,1.0384,1.0826,1.1022,1.0998,1.1194,1.1194,1.1194,1.1194,1.1194,1.1194,1.1194,1.1194,1.1194,1.1194,1.1194,1.1194,1.1194,1.1194,1.1194,1.1194,1.1194,1.1194,1.1194,1.1194,1.1194,1.1365,1.1756,1.2224,1.2589,1.2929,1.3292,0.0,0.0,0.0,0.0045,0.0135,0.0314,0.0426,0.0493,0.0628,0.074,0.0852,0.1009,0.1144,0.1211,0.1346,0.1413,0.1413,0.1413,0.1413,0.1413,0.1413,0.1503,0.1771,0.2039,0.2211,0.2153,0.2017,0.1752,0.1718,0.1497,0.1379,0.1356,0.134,0.1409,0.1625,0.1704,0.1724,0.1909,0.1977,0.2512,0.3256,0.3413,0.3949,0.4868,0.4915,0.5049,0.5295,0.5312,0.6028,0.7365,0.7499,0.7499,0.7403,0.7411,0.7361,0.7435,0.7922,0.8269,0.8363,0.8829,0.9255,0.9426,0.9063,0.8982,0.9157,0.8693,0.8452,0.8386,0.836,0.8342,0.8164,0.8157,0.7909,0.7572,0.8023,0.8456,0.8446,0.8779,0.9026,0.8987,0.8796,0.8524,0.8198,0.8694,0.9418,1.0138,1.0437,1.0609,1.0998,1.1194,1.1194,1.1194,1.1194,1.1194,1.1194,1.1194,1.1194,1.1194,1.1194,1.1194,1.1194,1.1194,1.1194,1.1194,1.1194,1.1194,1.1194,1.1194,1.1194,1.1194,1.1658,1.2146,1.2151,1.237,1.2832,-0.1318,-0.1249,-0.1272,-0.0995,-0.0606,-0.0426,-0.0135,0.0224,0.0471,0.0628,0.074,0.0987,0.1144,0.1234,0.1346,0.1413,0.1413,0.1413,0.1413,0.1413,0.1413,0.1413,0.1436,0.1413,0.1413,0.1413,0.1413,0.1412,0.1431,0.1394,0.141,0.1407,0.1371,0.1357,0.1386,0.1455,0.1498,0.1527,0.1587,0.204,0.2623,0.2764,0.3108,0.3831,0.3989,0.4139,0.4461,0.4863,0.5566,0.6278,0.6456,0.6456,0.6444,0.6484,0.6512,0.6522,0.7091,0.7446,0.7599,0.8119,0.8581,0.8653,0.8375,0.8365,0.8362,0.8009,0.7815,0.7856,0.7815,0.7694,0.7472,0.7371,0.7131,0.692,0.7279,0.7622,0.7603,0.7979,0.8064,0.7928,0.773,0.7531,0.6509,0.758,0.8701,0.9649,1.0093,1.0511,1.0998,1.1096,1.1194,1.1194,1.1194,1.1194,1.1194,1.1194,1.1194,1.1194,1.1194,1.1194,1.1169,1.1169,1.1169,1.1169,1.1194,1.1169,1.1096,1.112,1.1194,1.134,1.1731,1.1878,1.1858,1.1707,1.2195,-0.3106,-0.2997,-0.2974,-0.2441,-0.1616,-0.1547,-0.1099,-0.0359,-0.0157,0.0045,0.0246,0.0605,0.0582,0.1053,0.0717,0.1008,0.1009,0.0807,0.1053,0.1076,0.1144,0.1189,0.1413,0.1413,0.1413,0.1413,0.1413,0.1413,0.1412,0.1411,0.1412,0.1408,0.1408,0.1398,0.144,0.1627,0.1761,0.1754,0.1905,0.2065,0.2293,0.2419,0.2625,0.2751,0.2919,0.3206,0.3754,0.4326,0.4846,0.4742,0.4905,0.5199,0.5145,0.5156,0.5215,0.5445,0.6043,0.6459,0.6458,0.725,0.7643,0.7723,0.7759,0.7698,0.7658,0.7504,0.7367,0.738,0.7598,0.7277,0.6991,0.6572,0.6456,0.6455,0.6476,0.6399,0.6456,0.6992,0.7182,0.6537,0.6459,0.6412,0.6587,0.7083,0.8,0.8899,0.9422,1.0015,1.0605,1.1022,1.112,1.1194,1.1194,1.1194,1.1194,1.1194,1.1194,1.1194,1.1194,1.1194,1.1096,1.1096,1.112,1.1047,1.0674,1.0674,1.085,1.0924,1.0875,1.0748,1.065,1.1115,1.1507,1.1213,1.138,-0.3122,-0.2997,-0.2997,-0.285,-0.2603,-0.2553,-0.233,-0.1904,-0.1859,-0.1567,-0.15,-0.1253,-0.1075,-0.103,-0.0718,-0.0806,-0.065,-0.0605,-0.0448,0.0269,0.0292,0.0762,0.1166,0.1256,0.1346,0.1391,0.1413,0.1413,0.1413,0.1413,0.1413,0.1413,0.1412,0.141,0.1445,0.1687,0.18,0.1829,0.2018,0.2217,0.2345,0.2408,0.2492,0.2619,0.2681,0.2775,0.2907,0.312,0.3218,0.3506,0.4337,0.4948,0.4959,0.5005,0.5005,0.5175,0.5843,0.6366,0.6559,0.7048,0.769,0.7534,0.719,0.7022,0.6978,0.6529,0.6314,0.6283,0.6318,0.6461,0.6489,0.637,0.6333,0.6374,0.6387,0.6401,0.6407,0.6542,0.6606,0.6487,0.6412,0.6412,0.6412,0.6512,0.7257,0.8053,0.8722,0.9369,1.0084,1.0777,1.0998,1.1096,1.1194,1.1145,1.085,1.0752,1.0576,1.06,1.0674,1.0723,1.065,1.0625,1.0507,1.0256,0.9957,1.0084,1.031,0.9838,0.9616,0.9542,0.9616,1.0055,1.042,1.0375,1.0587,-0.4653,-0.4551,-0.4482,-0.4137,-0.3678,-0.3574,-0.3157,-0.2552,-0.235,-0.2192,-0.1997,-0.1785,-0.1703,-0.1703,-0.1567,-0.1476,-0.1472,-0.1414,-0.1141,-0.0717,-0.065,-0.0381,-0.0067,0.0224,0.0403,0.1166,0.1413,0.1413,0.1413,0.1391,0.1413,0.1413,0.1413,0.1412,0.148,0.1796,0.1966,0.2072,0.2315,0.2538,0.2625,0.2647,0.2647,0.2778,0.2797,0.2789,0.2781,0.2809,0.2802,0.2984,0.3633,0.4106,0.4048,0.4067,0.4085,0.4229,0.4949,0.5414,0.564,0.6248,0.6757,0.6852,0.6454,0.6404,0.6323,0.5989,0.5914,0.5956,0.6025,0.6091,0.6271,0.6331,0.6355,0.639,0.6412,0.6412,0.6412,0.6412,0.6412,0.6412,0.6412,0.6412,0.6412,0.6412,0.6808,0.773,0.7953,0.8623,0.9768,1.0433,1.0801,1.0973,1.1145,1.1022,1.058,1.0212,0.9813,0.9735,0.9686,0.971,0.9686,0.9715,0.9719,0.9616,0.9616,0.9468,0.9517,0.8973,0.8726,0.8998,0.9196,0.9238,0.9513,1.0035,1.0206,-0.6369,-0.6287,-0.6181,-0.5571,-0.4811,-0.4602,-0.401,-0.3032,-0.2688,-0.2747,-0.2267,-0.2096,-0.2365,-0.2157,-0.2226,-0.2087,-0.2101,-0.2058,-0.2069,-0.1692,-0.1671,-0.1416,-0.1211,-0.0984,-0.0537,0.0874,0.0762,0.0807,0.1031,0.1211,0.1144,0.1323,0.1413,0.1436,0.1569,0.1929,0.2193,0.228,0.2612,0.2812,0.2858,0.286,0.286,0.2881,0.2878,0.2859,0.2835,0.2853,0.2867,0.2805,0.287,0.2835,0.2787,0.2785,0.2819,0.2928,0.3944,0.4475,0.4745,0.5277,0.5847,0.5724,0.5763,0.5842,0.5944,0.5985,0.602,0.6075,0.6143,0.6192,0.6314,0.6363,0.6393,0.6412,0.6412,0.6412,0.6412,0.6412,0.6412,0.6412,0.6412,0.6412,0.6412,0.6437,0.6883,0.7257,0.7481,0.7928,0.9072,1.0043,1.0413,1.0801,1.0949,1.0826,1.0388,0.9665,0.9245,0.9069,0.8945,0.8945,0.8945,0.9147,0.9299,0.9443,0.9418,0.9122,0.8751,0.8304,0.8255,0.8577,0.8602,0.8499,0.9023,0.9772,0.9755,-0.6347,-0.629,-0.6271,-0.6093,-0.585,-0.5795,-0.533,-0.49,-0.4601,-0.4499,-0.4098,-0.4093,-0.3933,-0.4004,-0.4074,-0.4073,-0.3799,-0.3678,-0.3398,-0.2855,-0.2687,-0.2422,-0.1851,-0.1804,-0.1371,-0.1074,-0.092,-0.0607,0.009,0.0247,0.0494,0.1167,0.1233,0.1278,0.1592,0.2019,0.2199,0.2424,0.2716,0.2897,0.2897,0.2897,0.2897,0.2897,0.2897,0.2889,0.2883,0.2888,0.2892,0.2883,0.2892,0.2882,0.2861,0.2867,0.2874,0.3055,0.3684,0.4212,0.4424,0.5139,0.5675,0.5821,0.5877,0.5934,0.6041,0.6062,0.614,0.6241,0.6309,0.6352,0.6377,0.6398,0.6406,0.6412,0.6412,0.6412,0.6412,0.6412,0.6412,0.6412,0.6412,0.6412,0.6412,0.6412,0.6612,0.6908,0.7132,0.7431,0.8177,0.9221,1.0019,1.0413,1.0777,1.0511,1.0191,0.9344,0.8722,0.8574,0.8474,0.845,0.8524,0.8751,0.8899,0.8775,0.8577,0.8251,0.7904,0.7605,0.7633,0.7836,0.7786,0.7736,0.8325,0.8951,0.8899,-0.6379,-0.6352,-0.632,-0.626,-0.6173,-0.5971,-0.5663,-0.5329,-0.5135,-0.4925,-0.4704,-0.4642,-0.4643,-0.4667,-0.4667,-0.4646,-0.4609,-0.4595,-0.4285,-0.3851,-0.3775,-0.3625,-0.3001,-0.3001,-0.3052,-0.3053,-0.2981,-0.212,-0.0876,-0.0816,-0.0498,-0.0224,-0.0045,0.0313,0.0963,0.1254,0.1817,0.229,0.272,0.2855,0.2877,0.2877,0.2899,0.2899,0.29,0.2897,0.2897,0.2897,0.2897,0.2896,0.2897,0.2897,0.2899,0.2901,0.29,0.3035,0.3569,0.4103,0.4404,0.5078,0.558,0.5954,0.5999,0.608,0.6164,0.6216,0.6233,0.6331,0.6385,0.6412,0.6406,0.6412,0.6412,0.6412,0.6412,0.6412,0.6412,0.6412,0.6412,0.6412,0.6412,0.6412,0.6412,0.6412,0.6412,0.6562,0.6808,0.7107,0.7481,0.8375,0.9422,0.9817,1.006,0.9542,0.9196,0.8499,0.8003,0.7904,0.7854,0.7854,0.7854,0.7978,0.7857,0.7711,0.7487,0.7609,0.7282,0.7107,0.7113,0.7225,0.7506,0.7754,0.7819,0.7967,0.8175,-0.6412,-0.6401,-0.6342,-0.6304,-0.619,-0.5917,-0.559,-0.5295,-0.506,-0.4873,-0.4658,-0.4698,-0.4734,-0.4734,-0.4726,-0.4694,-0.4626,-0.4656,-0.46,-0.4554,-0.4504,-0.4546,-0.4571,-0.4619,-0.4413,-0.4209,-0.4292,-0.3618,-0.2136,-0.1845,-0.1723,-0.1327,-0.1362,-0.0906,0.0068,0.0434,0.1202,0.1816,0.2318,0.2454,0.2635,0.2841,0.2931,0.2933,0.2956,0.2938,0.2947,0.2927,0.2922,0.292,0.2919,0.2938,0.2939,0.2925,0.2931,0.2997,0.3393,0.3902,0.4457,0.4972,0.5528,0.606,0.6121,0.6213,0.6287,0.6309,0.6336,0.6393,0.6412,0.6412,0.6412,0.6412,0.6412,0.6412,0.6412,0.6412,0.6412,0.6412,0.6412,0.6412,0.6412,0.6412,0.6412,0.6412,0.6412,0.6412,0.6637,0.6711,0.7107,0.7829,0.8673,0.9122,0.9143,0.8496,0.7978,0.7406,0.7083,0.7008,0.7008,0.6983,0.7008,0.703,0.6986,0.7116,0.7388,0.7459,0.7036,0.6934,0.7327,0.7598,0.7701,0.7847,0.8064,0.8225,0.8407,-0.6412,-0.6409,-0.6396,-0.6268,-0.6041,-0.5946,-0.5675,-0.5246,-0.5162,-0.5005,-0.4757,-0.4756,-0.4787,-0.4785,-0.4785,-0.4783,-0.4771,-0.475,-0.4718,-0.4698,-0.4689,-0.4657,-0.4617,-0.4619,-0.4626,-0.4642,-0.4667,-0.4026,-0.3108,-0.289,-0.2483,-0.1952,-0.176,-0.1226,-0.0468,-0.0304,0.0047,0.0733,0.0945,0.1275,0.1909,0.2567,0.2827,0.2971,0.2969,0.3012,0.3025,0.3018,0.2996,0.2996,0.2973,0.2971,0.298,0.3048,0.3069,0.3177,0.3482,0.3951,0.4489,0.4933,0.5472,0.5999,0.6222,0.6309,0.6339,0.6374,0.6382,0.6401,0.6412,0.6412,0.6412,0.6412,0.6412,0.6412,0.6412,0.6412,0.6412,0.6412,0.6412,0.6412,0.6412,0.6412,0.6412,0.6412,0.6412,0.6412,0.6437,0.6512,0.6811,0.7531,0.8053,0.8524,0.8549,0.7925,0.7403,0.6758,0.6562,0.6412,0.6412,0.6412,0.6537,0.6659,0.6736,0.6914,0.7213,0.7516,0.7397,0.7487,0.7817,0.7983,0.8076,0.8227,0.8402,0.8537,0.8625,-0.6412,-0.6412,-0.6412,-0.6337,-0.6189,-0.5889,-0.5636,-0.5388,-0.5087,-0.491,-0.4809,-0.4782,-0.4782,-0.4782,-0.4782,-0.4782,-0.4782,-0.4782,-0.4793,-0.4761,-0.4748,-0.4732,-0.471,-0.472,-0.472,-0.4718,-0.4726,-0.4641,-0.4023,-0.3639,-0.3251,-0.2908,-0.2525,-0.19,-0.1027,-0.0905,-0.0262,0.0357,0.0667,0.0786,0.1143,0.1501,0.193,0.2335,0.236,0.2601,0.2928,0.3077,0.3057,0.3057,0.3057,0.3057,0.3061,0.3107,0.32,0.3556,0.3702,0.394,0.4205,0.4715,0.53,0.5831,0.6166,0.636,0.6404,0.6412,0.6412,0.6412,0.6412,0.6412,0.6412,0.6412,0.6412,0.6412,0.6412,0.6412,0.6412,0.6412,0.6412,0.6412,0.6412,0.6412,0.6412,0.6412,0.6412,0.6412,0.6412,0.6462,0.6736,0.7257,0.768,0.7978,0.7854,0.7503,0.7033,0.6509,0.6512,0.6412,0.6412,0.6412,0.6412,0.6487,0.6612,0.6814,0.7166,0.7434,0.7652,0.7909,0.8105,0.8266,0.8454,0.8503,0.857,0.8618,0.871,-0.6412,-0.6412,-0.6412,-0.6312,-0.6159,-0.5784,-0.5511,-0.5336,-0.4985,-0.4809,-0.4782,-0.4782,-0.4782,-0.4782,-0.4782,-0.4782,-0.4782,-0.4782,-0.4782,-0.4782,-0.4782,-0.4776,-0.4787,-0.4795,-0.4797,-0.4782,-0.4791,-0.4616,-0.4355,-0.4,-0.3651,-0.3816,-0.3159,-0.2473,-0.1789,-0.1478,-0.1069,-0.0219,0.0146,0.0291,0.0413,0.063,0.1065,0.1379,0.1618,0.186,0.2415,0.2449,0.2422,0.2374,0.2638,0.2591,0.2377,0.2807,0.3025,0.33,0.3397,0.3769,0.4143,0.4618,0.5142,0.5705,0.6062,0.6401,0.6406,0.6412,0.6412,0.6412,0.6412,0.6412,0.6412,0.6412,0.6412,0.6412,0.6412,0.6412,0.6412,0.6412,0.6412,0.6412,0.6412,0.6412,0.6412,0.6412,0.6412,0.6412,0.6412,0.6412,0.6661,0.7033,0.7157,0.7381,0.7257,0.7033,0.6783,0.6437,0.6412,0.6412,0.6412,0.6412,0.6412,0.6487,0.6637,0.6864,0.7185,0.7569,0.7916,0.8132,0.8362,0.8509,0.8648,0.8659,0.8672,0.8737,0.8777,-0.6412,-0.6412,-0.6387,-0.6112,-0.5712,-0.5634,-0.5311,-0.4985,-0.4834,-0.4782,-0.4782,-0.4782,-0.4782,-0.4782,-0.4782,-0.4782,-0.4782,-0.4782,-0.4782,-0.4782,-0.4782,-0.4782,-0.4782,-0.4782,-0.4782,-0.4782,-0.4782,-0.4533,-0.4083,-0.3646,-0.3635,-0.3815,-0.3111,-0.2778,-0.2326,-0.1916,-0.1769,-0.1072,-0.0648,-0.0375,-0.015,0.0175,0.0649,0.0775,0.0852,0.0903,0.0977,0.1135,0.1198,0.1222,0.1712,0.1761,0.1593,0.2251,0.2569,0.255,0.2831,0.3254,0.3754,0.4677,0.567,0.6132,0.6362,0.6412,0.6412,0.6412,0.6412,0.6412,0.6412,0.6412,0.6412,0.6412,0.6412,0.6412,0.6412,0.6412,0.6412,0.6412,0.6412,0.6412,0.6412,0.6412,0.6412,0.6412,0.6412,0.6412,0.6412,0.6412,0.6412,0.6661,0.6612,0.6661,0.6612,0.6537,0.6512,0.6412,0.6412,0.6412,0.6412,0.6412,0.6412,0.6512,0.6589,0.702,0.7358,0.7782,0.813,0.8316,0.8509,0.8716,0.8828,0.8781,0.8784,0.8818,0.8845,-0.6064,-0.5912,-0.5909,-0.5887,-0.5814,-0.5687,-0.5411,-0.5037,-0.486,-0.4782,-0.4782,-0.4782,-0.4782,-0.4782,-0.4782,-0.4782,-0.4782,-0.4782,-0.4782,-0.4782,-0.4782,-0.4782,-0.4782,-0.4782,-0.4782,-0.4782,-0.4782,-0.4533,-0.4008,-0.3456,-0.3077,-0.2925,-0.2549,-0.2196,-0.1943,-0.1969,-0.1793,-0.1641,-0.1313,-0.1136,-0.1086,-0.0884,-0.0454,0.005,0.0076,0.0353,0.0704,0.0776,0.0773,0.0822,0.1046,0.0896,0.0747,0.1482,0.1738,0.1688,0.2091,0.2519,0.3224,0.4304,0.5459,0.6237,0.6412,0.6412,0.6412,0.6412,0.6412,0.6412,0.6412,0.6412,0.6412,0.6412,0.6412,0.6412,0.6412,0.6412,0.6412,0.6412,0.6412,0.6412,0.6412,0.6412,0.6412,0.6412,0.6412,0.6412,0.6412,0.6412,0.6412,0.6412,0.6412,0.6412,0.6412,0.6412,0.6412,0.6412,0.6417,0.6425,0.6431,0.6455,0.6471,0.6414,0.6578,0.7046,0.753,0.7894,0.822,0.8444,0.8632,0.8814,0.8875,0.8865,0.8885,0.8909,0.8909,-0.5839,-0.5611,-0.5584,-0.5661,-0.5741,-0.5564,-0.5338,-0.5087,-0.486,-0.4782,-0.4782,-0.4782,-0.4782,-0.4782,-0.4782,-0.4782,-0.4782,-0.4782,-0.4782,-0.4782,-0.4782,-0.4782,-0.4782,-0.4782,-0.4782,-0.4782,-0.4734,-0.4483,-0.3706,-0.338,-0.2851,-0.2271,-0.1818,-0.1693,-0.1642,-0.1592,-0.1592,-0.1592,-0.1592,-0.1592,-0.1566,-0.1516,-0.1364,-0.0808,-0.0758,-0.0581,-0.0227,-0.0151,-0.0101,0.0,0.0176,0.0252,0.0328,0.0504,0.0806,0.1007,0.1258,0.1586,0.239,0.3699,0.5083,0.5912,0.6337,0.6387,0.6412,0.6387,0.6412,0.6412,0.6412,0.6412,0.6412,0.6412,0.6412,0.6412,0.6412,0.6412,0.6412,0.6412,0.6412,0.6412,0.6412,0.6412,0.6414,0.6417,0.6425,0.6423,0.6412,0.6412,0.6412,0.6412,0.6412,0.6412,0.6412,0.6412,0.6412,0.6474,0.6554,0.6525,0.6536,0.6566,0.6561,0.6532,0.672,0.7264,0.7705,0.8029,0.8348,0.8615,0.875,0.8848,0.8896,0.8892,0.8899,0.8909,0.8909,-0.5814,-0.5609,-0.5584,-0.5438,-0.524,-0.5215,-0.5087,-0.486,-0.4809,-0.4782,-0.4782,-0.4782,-0.4782,-0.4782,-0.4782,-0.4782,-0.4782,-0.4782,-0.4782,-0.4782,-0.4782,-0.4782,-0.4782,-0.4782,-0.4782,-0.4782,-0.4709,-0.4284,-0.3305,-0.3256,-0.2651,-0.197,-0.1641,-0.1592,-0.1592,-0.1592,-0.1592,-0.1592,-0.1592,-0.1592,-0.1592,-0.1592,-0.1491,-0.1415,-0.1364,-0.1212,-0.1111,-0.106,-0.1035,-0.101,-0.0606,-0.0656,-0.101,-0.005,0.0177,-0.0202,0.0378,0.0932,0.1635,0.3346,0.4402,0.5334,0.5784,0.6187,0.6312,0.6362,0.6312,0.6237,0.6337,0.6387,0.6412,0.6412,0.6412,0.6412,0.6412,0.6412,0.6412,0.6412,0.6412,0.6412,0.6412,0.6412,0.6414,0.642,0.6436,0.6436,0.6417,0.642,0.6436,0.6452,0.6466,0.6474,0.6479,0.6482,0.6509,0.6616,0.6688,0.666,0.6639,0.6658,0.6763,0.6854,0.7148,0.7562,0.7885,0.8224,0.8507,0.8794,0.8858,0.8902,0.8906,0.8906,0.8909,0.8909,0.8909,-0.5313,-0.506,-0.506,-0.501,-0.496,-0.5138,-0.5037,-0.4834,-0.4782,-0.4782,-0.4782,-0.4782,-0.4782,-0.4782,-0.4782,-0.4782,-0.4782,-0.4782,-0.4782,-0.4782,-0.4782,-0.4782,-0.4782,-0.4782,-0.4784,-0.4782,-0.4709,-0.4209,-0.323,-0.3155,-0.255,-0.1869,-0.1592,-0.1592,-0.1592,-0.1592,-0.1592,-0.1592,-0.1592,-0.1592,-0.1592,-0.1592,-0.1592,-0.1592,-0.1592,-0.1592,-0.1592,-0.1592,-0.1592,-0.1592,-0.1136,-0.1288,-0.1566,-0.0681,-0.0858,-0.1136,-0.0757,-0.0454,0.0227,0.136,0.2541,0.3872,0.5181,0.5584,0.5436,0.6087,0.6112,0.6084,0.6259,0.6337,0.6412,0.6412,0.6412,0.6412,0.6412,0.6412,0.6412,0.6412,0.6412,0.6412,0.6412,0.642,0.6425,0.6481,0.6511,0.6517,0.6507,0.6517,0.6534,0.6553,0.6569,0.6603,0.6608,0.658,0.6635,0.6738,0.68,0.6763,0.6757,0.6763,0.6895,0.7104,0.7402,0.771,0.8061,0.8419,0.8658,0.8858,0.8882,0.8909,0.8909,0.8909,0.8909,0.8909,0.8909,-0.5391,-0.5559,-0.5008,-0.4985,-0.516,-0.5112,-0.4935,-0.4809,-0.4782,-0.4782,-0.4782,-0.4782,-0.4782,-0.4782,-0.4782,-0.4782,-0.4782,-0.4782,-0.4782,-0.4782,-0.4782,-0.4782,-0.4782,-0.4759,-0.4634,-0.4609,-0.4408,-0.3959,-0.2901,-0.2901,-0.2397,-0.1793,-0.1592,-0.1592,-0.1592,-0.1592,-0.1592,-0.1592,-0.1592,-0.1592,-0.1592,-0.1592,-0.1592,-0.1592,-0.1592,-0.1592,-0.1592,-0.1592,-0.1592,-0.1592,-0.1592,-0.1592,-0.1592,-0.1592,-0.1592,-0.1592,-0.1516,-0.1263,-0.0757,-0.0101,0.1158,0.2441,0.4024,0.478,0.4885,0.5564,0.5762,0.5862,0.6134,0.6312,0.6412,0.6412,0.6412,0.6412,0.6412,0.6412,0.6412,0.6412,0.6412,0.6412,0.6428,0.6436,0.6474,0.6526,0.658,0.6603,0.6624,0.6649,0.6673,0.6661,0.6685,0.6728,0.6736,0.6715,0.6787,0.6883,0.6899,0.6872,0.6877,0.6888,0.7096,0.732,0.7602,0.791,0.8307,0.8626,0.8783,0.8909,0.8909,0.8909,0.8909,0.8909,0.8909,0.8909,0.8909,-0.6014,-0.6889,-0.5511,-0.5361,-0.5839,-0.5361,-0.4985,-0.4809,-0.4782,-0.4782,-0.4782,-0.4782,-0.4782,-0.4782,-0.4782,-0.4782,-0.4782,-0.4782,-0.4782,-0.4782,-0.4782,-0.4782,-0.4759,-0.4709,-0.4458,-0.4158,-0.3883,-0.3504,-0.2522,-0.2371,-0.2044,-0.1717,-0.1592,-0.1592,-0.1592,-0.1592,-0.1592,-0.1592,-0.1592,-0.1592,-0.1592,-0.1592,-0.1592,-0.1592,-0.1592,-0.1592,-0.1592,-0.1592,-0.1592,-0.1592,-0.1592,-0.1592,-0.1592,-0.1592,-0.1592,-0.1592,-0.1592,-0.1516,-0.1338,-0.0707,0.0076,0.136,0.2667,0.3723,0.4556,0.5087,0.5438,0.5687,0.5984,0.6237,0.6412,0.6412,0.6412,0.6412,0.6412,0.6412,0.6412,0.6412,0.6412,0.6423,0.6422,0.6454,0.6561,0.6632,0.6717,0.6785,0.6801,0.6836,0.6847,0.6806,0.6834,0.6872,0.6877,0.6885,0.6942,0.7037,0.7046,0.7016,0.7068,0.7119,0.7332,0.7522,0.7755,0.8087,0.8548,0.883,0.8881,0.8909,0.8909,0.8909,0.8909,0.8909,0.8909,0.8909,0.8909,-0.6836,-0.7138,-0.6686,-0.6661,-0.6814,-0.6612,-0.5884,-0.4885,-0.4782,-0.4782,-0.4782,-0.4782,-0.4782,-0.4782,-0.4782,-0.4782,-0.4782,-0.4782,-0.4782,-0.4782,-0.4782,-0.4782,-0.4659,-0.4458,-0.4183,-0.3907,-0.3556,-0.3078,-0.2448,-0.2095,-0.1843,-0.1642,-0.1592,-0.1592,-0.1592,-0.1592,-0.1592,-0.1592,-0.1592,-0.1592,-0.1592,-0.1592,-0.1592,-0.1592,-0.1592,-0.1592,-0.1592,-0.1592,-0.1592,-0.1592,-0.1592,-0.1592,-0.1592,-0.1592,-0.1592,-0.1592,-0.1592,-0.1566,-0.1465,-0.0859,-0.005,0.0731,0.1914,0.2696,0.3655,0.4537,0.5115,0.5313,0.5787,0.6137,0.6287,0.6337,0.6362,0.6412,0.6412,0.6412,0.6412,0.6412,0.6414,0.6428,0.6427,0.6524,0.6634,0.6767,0.6886,0.6937,0.7002,0.7032,0.7032,0.6986,0.6975,0.701,0.7032,0.7008,0.7073,0.7133,0.7138,0.7147,0.7202,0.721,0.731,0.7526,0.7845,0.8214,0.8633,0.8826,0.8909,0.8909,0.8909,0.8909,0.8909,0.8909,0.8909,0.8909,0.8909,-0.7587,-0.8035,-0.7434,-0.721,-0.721,-0.7185,-0.6437,-0.5413,-0.5261,-0.5135,-0.4809,-0.4782,-0.4782,-0.4782,-0.4782,-0.4782,-0.4782,-0.4782,-0.4782,-0.4782,-0.4782,-0.4782,-0.4609,-0.4257,-0.3907,-0.3605,-0.3153,-0.2574,-0.2145,-0.1843,-0.1592,-0.1592,-0.1592,-0.1592,-0.1592,-0.1592,-0.1592,-0.1592,-0.1592,-0.1592,-0.1592,-0.1592,-0.1592,-0.1592,-0.1592,-0.1592,-0.1592,-0.1592,-0.1592,-0.1592,-0.1592,-0.1592,-0.1592,-0.1592,-0.1592,-0.1592,-0.1592,-0.1592,-0.1465,-0.0833,-0.005,0.0756,0.1538,0.237,0.3103,0.391,0.4286,0.4585,0.5386,0.6012,0.6137,0.6234,0.6337,0.6412,0.6412,0.6412,0.6412,0.6412,0.6423,0.6433,0.6504,0.6604,0.6727,0.6899,0.7017,0.7078,0.71,0.7117,0.7122,0.71,0.7092,0.7114,0.7136,0.7152,0.721,0.721,0.7202,0.7196,0.7204,0.7238,0.7293,0.7598,0.8017,0.8353,0.8688,0.8826,0.8909,0.8909,0.8909,0.8909,0.8909,0.8909,0.8909,0.8909,0.8909,-0.8258,-0.9426,-0.8035,-0.7459,-0.7338,-0.7437,-0.6961,-0.6117,-0.6089,-0.5614,-0.4935,-0.4782,-0.4782,-0.4782,-0.4782,-0.4782,-0.4782,-0.4782,-0.4782,-0.4782,-0.4782,-0.4782,-0.4634,-0.4207,-0.3681,-0.3153,-0.2624,-0.2146,-0.1768,-0.1592,-0.1592,-0.1592,-0.1592,-0.1592,-0.1592,-0.1592,-0.1592,-0.1592,-0.1592,-0.1592,-0.1592,-0.1592,-0.1592,-0.1592,-0.1592,-0.1592,-0.1592,-0.1592,-0.1592,-0.1592,-0.1592,-0.1592,-0.1592,-0.1592,-0.1592,-0.1592,-0.1592,-0.1592,-0.1313,-0.0656,0.005,0.0832,0.1588,0.2422,0.3155,0.3432,0.3758,0.421,0.4962,0.5361,0.5536,0.5709,0.5862,0.6037,0.6137,0.6262,0.6387,0.6403,0.646,0.6496,0.6593,0.6696,0.681,0.6969,0.7089,0.716,0.7171,0.721,0.7207,0.7166,0.7199,0.7207,0.721,0.721,0.721,0.721,0.721,0.721,0.721,0.721,0.7238,0.7684,0.8214,0.8522,0.8799,0.8854,0.8909,0.8909,0.8909,0.8909,0.8909,0.8909,0.8909,0.8909,0.8909,-0.9229,-0.955,-0.9179,-0.868,-0.823,-0.8779,-0.8184,-0.6939,-0.6911,-0.6112,-0.4985,-0.4809,-0.4782,-0.4782,-0.4782,-0.4782,-0.4782,-0.4782,-0.4782,-0.4782,-0.4782,-0.4782,-0.4609,-0.3982,-0.343,-0.2928,-0.2398,-0.1793,-0.1642,-0.1592,-0.1592,-0.1592,-0.1592,-0.1592,-0.1592,-0.1592,-0.1592,-0.1592,-0.1592,-0.1592,-0.1592,-0.1592,-0.1592,-0.1592,-0.1592,-0.1592,-0.1592,-0.1592,-0.1592,-0.1592,-0.1592,-0.1592,-0.1592,-0.1592,-0.1592,-0.1592,-0.1592,-0.1592,-0.1212,-0.0454,0.0429,0.1109,0.1891,0.2649,0.3155,0.318,0.3432,0.3909,0.4334,0.4686,0.4964,0.5165,0.5445,0.5671,0.5929,0.6155,0.6408,0.6446,0.6512,0.6593,0.6691,0.6817,0.6923,0.7016,0.713,0.7168,0.7204,0.721,0.721,0.7204,0.7202,0.721,0.721,0.721,0.721,0.721,0.721,0.721,0.721,0.721,0.7238,0.7684,0.8183,0.8602,0.8909,0.8909,0.8909,0.8909,0.8909,0.8909,0.8909,0.8909,0.8909,0.8909,0.8909,-0.9599,-0.9599,-0.9603,-0.9356,-0.9051,-0.9402,-0.8878,-0.7808,-0.7363,-0.6512,-0.5363,-0.4985,-0.4782,-0.4782,-0.4782,-0.4782,-0.4782,-0.4782,-0.4782,-0.4782,-0.4782,-0.4782,-0.4408,-0.3932,-0.3506,-0.3004,-0.2146,-0.1617,-0.1592,-0.1592,-0.1592,-0.1592,-0.1592,-0.1592,-0.1592,-0.1592,-0.1592,-0.1592,-0.1592,-0.1592,-0.1592,-0.1592,-0.1592,-0.1592,-0.1592,-0.1592,-0.1592,-0.1592,-0.1592,-0.1592,-0.1592,-0.1592,-0.1592,-0.1592,-0.1592,-0.1592,-0.1592,-0.1592,-0.1136,-0.0303,0.0731,0.1286,0.227,0.3079,0.3155,0.3205,0.323,0.3657,0.4034,0.4384,0.4481,0.4663,0.533,0.5752,0.6167,0.6514,0.6618,0.6634,0.6684,0.6719,0.6809,0.6896,0.6991,0.7087,0.7188,0.7174,0.721,0.721,0.721,0.721,0.721,0.721,0.721,0.721,0.721,0.721,0.721,0.721,0.721,0.7379,0.7518,0.7792,0.8156,0.8629,0.8909,0.8909,0.8909,0.8909,0.8909,0.8909,0.8909,0.8909,0.8909,0.8909,0.8909,-0.9599,-0.9599,-0.9599,-0.9603,-0.9599,-0.9599,-0.9204,-0.8482,-0.7587,-0.6839,-0.6039,-0.5186,-0.486,-0.4782,-0.4782,-0.4782,-0.4782,-0.4782,-0.4782,-0.4782,-0.4782,-0.4782,-0.4609,-0.4207,-0.3605,-0.2876,-0.2045,-0.1718,-0.1592,-0.1592,-0.1592,-0.1592,-0.1592,-0.1592,-0.1592,-0.1592,-0.1592,-0.1592,-0.1592,-0.1592,-0.1592,-0.1592,-0.1592,-0.1592,-0.1592,-0.1592,-0.1592,-0.1592,-0.1592,-0.1592,-0.1592,-0.1592,-0.1592,-0.1592,-0.1592,-0.1592,-0.1592,-0.1592,-0.1263,-0.0126,0.0504,0.1184,0.2447,0.313,0.3181,0.3208,0.3233,0.3401,0.3755,0.3937,0.4031,0.4393,0.5148,0.5853,0.6315,0.678,0.6809,0.6804,0.6809,0.6825,0.6904,0.7013,0.7073,0.7169,0.7191,0.7204,0.721,0.721,0.721,0.721,0.721,0.721,0.721,0.721,0.721,0.721,0.721,0.721,0.7238,0.7546,0.7795,0.7934,0.8211,0.8712,0.8909,0.8909,0.8909,0.8909,0.8909,0.8909,0.8909,0.8909,0.8909,0.8909,0.8909,-0.9599,-0.9599,-0.9599,-0.9599,-0.9599,-0.9599,-0.9505,-0.9154,-0.7808,-0.7086,-0.6587,-0.5459,-0.4782,-0.4782,-0.4782,-0.4782,-0.4782,-0.4782,-0.4782,-0.4782,-0.4782,-0.4782,-0.4634,-0.4234,-0.3428,-0.2724,-0.207,-0.1693,-0.1592,-0.1592,-0.1592,-0.1592,-0.1592,-0.1592,-0.1592,-0.1592,-0.1592,-0.1592,-0.1592,-0.1592,-0.1592,-0.1592,-0.1592,-0.1592,-0.1592,-0.1592,-0.1592,-0.1592,-0.1592,-0.1592,-0.1592,-0.1592,-0.1592,-0.1592,-0.1592,-0.1592,-0.1592,-0.1592,-0.1111,0.0,0.0605,0.0958,0.2144,0.3159,0.3212,0.3217,0.3239,0.329,0.3526,0.3522,0.3693,0.4231,0.4897,0.5648,0.6223,0.6679,0.695,0.6928,0.6912,0.6964,0.7035,0.7092,0.7136,0.7199,0.7199,0.721,0.721,0.721,0.721,0.721,0.721,0.721,0.721,0.721,0.721,0.721,0.721,0.721,0.7265,0.7518,0.7768,0.7937,0.8269,0.8743,0.8909,0.8909,0.8909,0.8909,0.8909,0.8909,0.8909,0.8909,0.8909,0.8909,0.8909]},{"header":{"parameterUnit":"m.s-1","parameterCategory":1,"la1":31.0,"la2":29.5877,"lo1":-88.7671,"lo2":-86.6584,"dy":0.0162,"dx":0.0185,"nx":115,"ny":88,"refTime":"2024-09-19T06:00:00:Z","depth":0,"parameterNumber":3,"parameterNumberName":"V-component_of_WINDS"},"data":[0.0,0.0,0.0,0.0,0.0,0.0,0.0,0.0,0.0,0.0,0.0,0.0,0.0,0.0,0.0,0.0,0.0,0.0,0.0,0.0,0.0,0.0,0.0,0.0,0.0,0.0,0.0,0.0,0.0,0.0,0.0,0.0,0.0,0.0,0.0,0.0,0.0,0.0,0.0,0.0,0.0,0.0,0.0,0.0,0.0,0.0,0.0,0.0,0.0,0.0,0.0,0.0,0.0,0.0,0.0,0.0,0.0,0.0,0.0,0.0,0.0,0.0,0.0,0.0,0.0,0.0,0.0,0.0,0.0,0.0,0.0,0.0,0.0,0.0,0.0,0.0,0.0,0.0,0.0,0.0,0.0,0.0,0.0,0.0,0.0,0.0,0.0,0.0,0.0,0.0,0.0,0.0,0.0,0.0,0.0,0.0,0.0,0.0,0.0,0.0,0.0,0.0,0.0,0.0,0.0,0.0,0.0,0.0,0.0,0.0,0.0,0.0,0.0,0.0,0.0,0.0,0.0,0.0,0.0,0.0,0.0,0.0,0.0,0.0,0.0,0.0,0.0,0.0,0.0,0.0,0.0,0.0,0.0,0.0,0.0,0.0,0.0,0.0,0.0,0.0,0.0,0.0,0.0,0.0,0.0,0.0,0.0,0.0,0.0,0.0,0.0,0.0,0.0,0.0,0.0,0.0,0.0,0.0,0.0,0.0,0.0,0.0,0.0,0.0,0.0,0.0,0.0,0.0,0.0,0.0,0.0,0.0,0.0,0.0,0.0,0.0,0.0,0.0,0.0,0.0,0.0,0.0,0.0,0.0,0.0,0.0,0.0,0.0,0.0,0.0,0.0,0.0,0.0,0.0,0.0,0.0,0.0,0.0,0.0,0.0,0.0,0.0,0.0,0.0,0.0,0.0,0.0,0.0,0.0,0.0,0.0,0.0,0.0,0.0,0.0,0.0,0.0,0.0,0.0,0.0,0.0,0.0,0.0,0.0,0.0,0.0,0.0,0.0,0.0,0.0,0.0,0.0,0.0,0.0,0.0,0.0,0.0,0.0,0.0,0.0,0.0,0.0,0.0,0.0,0.0,0.0,0.0,0.0,0.0,0.0,0.0,0.0,0.0,0.0,0.0,0.0,0.0,0.0,0.0,0.0,0.0,0.0,0.0,0.0,0.0,0.0,0.0,0.0,0.0,0.0,0.0,0.0,0.0,0.0,0.0,0.0,0.0,0.0,0.0,0.0,0.0,0.0,0.0,0.0,0.0,0.0,0.0,0.0,0.0,0.0,0.0,0.0,0.0,0.0,0.0,0.0,0.0,0.0,0.0,0.0,0.0,0.0,0.0,0.0,0.0,0.0,0.0,0.0,0.0,0.0,0.0,0.0,0.0,0.0,0.0,0.0,0.0,0.0,0.0,0.0,0.0,0.0,0.0,0.0,0.0,0.0,0.0,0.0,0.0,0.0,0.0,0.0,0.0,0.0,0.0,0.0,0.0,0.0,0.0,0.0,0.0,0.0,0.0,0.0,0.0,0.0,0.0,0.0,0.0,0.0,0.0,0.0,0.0,0.0,0.0,0.0,0.0,0.0,0.0,0.0,0.0,0.0,0.0,0.0,0.0,0.0,0.0,0.0,0.0,0.0,0.0,0.0,0.0,0.0,0.0,0.0,0.0,0.0,0.0,0.0,0.0,0.0,0.0,0.0,0.0,0.0,0.0,0.0,0.0,0.0,0.0,0.0,0.0,0.0,0.0,0.0,0.0,0.0,0.0,0.0,0.0,0.0,0.0,0.0,0.0,0.0,0.0,0.0,0.0,0.0,0.0,0.0,0.0,0.0,0.0,0.0,0.0,0.0,0.0,0.0,0.0,0.0,0.0,0.0,0.0,0.0,0.0,0.0,0.0,0.0,0.0,0.0,0.0,0.0,0.0,0.0,0.0,0.0,0.0,0.0,0.0,0.0,0.0,0.0,0.0,0.0,0.0,0.0,0.0,0.0,0.0,0.0,0.0,0.0,0.0,0.0,0.0,0.0,0.0,0.0,0.0,0.0,0.0,0.0,0.0,0.0,0.0,0.0,0.0,0.0,0.0,0.0,0.0,0.0,0.0,0.0,0.0,0.0,0.0,0.0,0.0,0.0,0.0,0.0,0.0,0.0,0.0,0.0,0.0,0.0,0.0,0.0,0.0,0.0,0.0,0.0,0.0,0.0,0.0,0.0,0.0,0.0,0.0,0.0,0.0,0.0,0.0,0.0,0.0,0.0,0.0,0.0,0.0,0.0,0.0,0.0,0.0,0.0,0.0,0.0,0.0,0.0,0.0,0.0,0.0,0.0,0.0,0.0,0.0,0.0,0.0,0.0,0.0,0.0,0.0,0.0,0.0,0.0,0.0,0.0,0.0,0.0,0.0,0.0,0.0,0.0,0.0,0.0,0.0,0.0,0.0,0.0,0.0,0.0,0.0,0.0,0.0,0.0,0.0,0.0,0.0,0.0,0.0,0.0,0.0,0.0,0.0,0.0,0.0,0.0,0.0,0.0,0.0,0.0,0.0,0.0,0.0,0.0,0.0,0.0,0.0,0.0,0.0,0.0,0.0,0.0,0.0,0.0,0.0,0.0,0.0,0.0,0.0,0.0,0.0,0.0,0.0,0.0,0.0,0.0,0.0,0.0,0.0,0.0,0.0,0.0,0.0,0.0,0.0,0.0,0.0,0.0,0.0,0.0,0.0,0.0,0.0,0.0,0.0,0.0,0.0,0.0,0.0,0.0,0.0,0.0,0.0,0.0,0.0,0.0,0.0,0.0,0.0,0.0,0.0,0.0,0.0,0.0,0.0,0.0,0.0,0.0,0.0,0.0,0.0,0.0,0.0,0.0,0.0,0.0,0.0,0.0,0.0,0.0,0.0,0.0,0.0,0.0,0.0,0.0,0.0,0.0,0.0,0.0,0.0,0.0,0.0,0.0,0.0,0.0,0.0,0.0,0.0,0.0,0.0,0.0,0.0,0.0,0.0,0.0,0.0,0.0,0.0,0.0,0.0,0.0,0.0,0.0,0.0,0.0,0.0,0.0,0.0,0.0,0.0,0.0,0.0,0.0,0.0,0.0,0.0,0.0,0.0,0.0,0.0,0.0,0.0,0.0,0.0,0.0,0.0,0.0,0.0,0.0,0.0,0.0,0.0,0.0,0.0,0.0,0.0,0.0,0.0,0.0,0.0,0.0,0.0,0.0,0.0,0.0,0.0,0.0,0.0,0.0,0.0,0.0,0.0,0.0,0.0,0.0,0.0,0.0,0.0,0.0,0.0,0.0,0.0,0.0,0.0,0.0,0.0,0.0,0.0,0.0,0.0,0.0,0.0,0.0,0.0,0.0,0.0,0.0,0.0,0.0,0.0,0.0,0.0,0.0,0.0,0.0,0.0,0.0,0.0,0.0,0.0,0.0,0.0,0.0,0.0,0.0,0.0,0.0,0.0,0.0,0.0,0.0,0.0,0.0,0.0,0.0,0.0,0.0,0.0,0.0,0.0,0.0,0.0,0.0,0.0,0.0,0.0,0.0,0.0,0.0,0.0,0.0,0.0,0.0,0.0,0.0,0.0,0.0,0.0,0.0,0.0,0.0,0.0,0.0,0.0,0.0,0.0,0.0,0.0,0.0,0.0,0.0,0.0,0.0,0.0,0.0,0.0,0.0,0.0,0.0,0.0,0.0,0.0,0.0,0.0,0.0,0.0,0.0,0.0,0.0,0.0,0.0,0.0,0.0,0.0,0.0,0.0,0.0,0.0,0.0,0.0,0.0,0.0,0.0,0.0,0.0,0.0,0.0,0.0,0.0,0.0,0.0,0.0,0.0,0.0,0.0,0.0,0.0,0.0,0.0,0.0,0.0,0.0,0.0,0.0,0.0,0.0,0.0,0.0,0.0,0.0,0.0,0.0,0.0,0.0,0.0,0.0,0.0,0.0,0.0,0.0,0.0,0.0,0.0,0.0,0.0,0.0,0.0,0.0,0.0,0.0,0.0,0.0,0.0,0.0,0.0,0.0,0.0,0.0,0.0,0.0,0.0,0.0,0.0,0.0,0.0,0.0,0.0,0.0,0.0,0.0,0.0,0.0,0.0,0.0,0.0,0.0,0.0,0.0,0.0,0.0,0.0,0.0,0.0,0.0,0.0,0.0,0.0,0.0,0.0,0.0,0.0,0.0,0.0,0.0,0.0,0.0,0.0,0.0,0.0,0.0,0.0,0.0,0.0,0.0,0.0,0.0,0.0,0.0,0.0,0.0,0.0,0.6988,0.0,0.0,0.0,0.0,0.0,0.0,0.0,0.0,0.0,0.0,0.0,0.0,0.0,0.0,0.0,0.0,0.0,0.0,0.0,0.0,0.0,0.0,0.0,0.0,0.0,0.0,0.0,0.0,0.0,0.0,0.0,0.0,0.0,0.0,0.0,0.0,0.0,0.0,0.0,0.0,0.0,0.0,0.0,0.0,0.0,0.0,0.0,0.0,0.0,0.0,0.0,0.0,0.0,0.0,0.0,0.0,0.0,0.0,0.0,0.0,0.0,0.0,0.0,0.0,0.0,0.0,0.0,0.0,0.0,0.0,0.0,0.0,0.0,0.0,0.0,0.0,0.0,0.0,0.0,0.0,0.0,0.0,0.0,0.0,0.0,0.0,0.0,0.0,0.0,0.0,0.0,0.0,0.0,0.0,0.0,0.0,0.0,0.0,0.0,0.0,0.0,0.0,0.0,0.0,0.0,0.0,0.0,0.0,0.0,0.0,0.7909,0.7366,0.7897,0.7797,0.6973,0.0,0.0,0.0,0.0,0.0,0.0,0.0,0.0,0.0,0.0,0.0,0.0,0.0,0.0,0.0,0.0,0.0,0.0,0.0,0.0,0.0,0.0,0.0,0.0,0.0,0.0,0.0,0.0,0.0,0.0,0.0,0.0,0.0,0.0,0.0,0.0,0.0,0.0,0.0,0.0,0.0,0.0,0.0,0.0,0.0,0.0,0.0,0.0,0.0,0.0,0.0,0.0,0.0,0.0,0.0,0.0,0.0,0.0,0.0,0.0,0.0,0.0,0.0,0.0,0.0,0.0,0.0,0.0,0.0,0.0,0.0,0.0,0.0,0.0,0.0,0.0,0.0,0.0,0.0,0.0,0.0,0.0,0.0,0.0,0.0,0.0,0.0,0.0,0.0,0.0,0.0,0.0,0.0,0.0,0.0,0.0,0.0,0.0,0.0,0.0,0.0,0.0,0.0,0.0,0.0,0.0,0.0,0.0,0.0,0.0,0.0,0.0,0.8498,0.8378,0.7468,0.0,0.0,0.0,0.0,0.0,0.0,0.0,0.0,0.0,0.0,0.0,0.0,0.0,0.0,0.0,0.0,0.0,0.0,0.0,0.0,0.0,0.0,0.0,0.0,0.0,0.0,0.0,0.0,0.0,0.0,0.0,0.0,0.0,0.0,0.0,0.0,0.0,0.0,0.0,0.0,0.0,0.0,0.0,0.0,0.0,0.0,0.0,0.0,0.0,0.0,0.0,0.0,0.0,0.0,0.0,0.0,0.0,0.0,0.0,0.0,0.0,0.0,0.0,0.0,0.0,0.0,0.0,0.0,0.0,0.0,0.0,0.0,0.0,0.0,0.0,0.0,0.0,0.0,0.0,0.0,0.0,0.0,0.0,0.0,0.0,0.0,0.0,0.0,0.0,0.0,0.0,0.0,0.0,0.0,0.0,0.0,0.0,0.0,0.0,0.0,0.0,0.0,0.0,0.0,0.0,0.0,0.0,0.0,0.0,0.0,0.8013,0.8518,0.9083,0.0,0.8947,0.0,0.0,0.0,0.0,0.0,0.0,0.0,0.0,0.0,0.0,0.0,0.0,0.0,0.0,0.0,0.0,0.0,0.0,0.0,0.0,0.0,0.0,0.0,0.0,0.0,0.0,0.0,0.0,0.0,0.0,0.0,0.0,0.0,0.0,0.0,0.0,0.0,0.0,0.0,0.0,0.0,0.0,0.0,0.0,0.0,0.0,0.0,0.0,0.0,0.0,0.0,0.0,0.0,0.0,0.0,0.0,0.0,0.0,0.0,0.0,0.0,0.0,0.0,0.0,0.0,0.0,0.0,0.0,0.0,0.0,0.0,0.0,0.0,0.0,0.0,0.0,0.0,0.0,0.0,0.0,0.0,0.0,0.0,0.0,0.0,0.0,0.0,0.0,0.0,0.0,0.0,0.0,0.0,0.0,0.0,0.0,0.0,0.0,0.0,0.0,0.0,0.0,0.0,0.0,0.0,0.0,0.0,0.0,0.0,0.0,0.8717,0.8612,0.8832,0.8917,0.0,0.0,0.0,0.0,0.0,0.0,0.0,0.0,0.0,0.0,0.0,0.0,0.0,0.0,0.0,0.0,0.0,0.0,0.0,0.0,0.0,0.0,0.0,0.0,0.0,0.0,0.0,0.0,0.0,0.0,0.0,0.0,0.0,0.0,0.0,0.0,0.0,0.0,0.0,0.0,0.0,0.0,0.0,0.0,0.0,0.0,0.0,0.0,0.0,0.0,0.0,0.0,0.0,0.0,0.0,0.0,0.0,0.0,0.0,0.0,0.0,0.0,0.0,0.0,0.0,0.0,0.0,0.0,0.0,0.0,0.0,0.0,0.0,0.0,0.0,0.0,0.0,0.0,0.0,0.0,0.0,0.0,0.0,0.0,0.0,0.0,0.0,0.0,0.0,0.0,0.0,0.0,0.0,0.0,0.0,0.0,0.0,0.0,0.0,0.0,0.0,0.0,0.0,0.0,0.0,0.0,0.0,0.0,0.0,0.0,0.8767,0.9182,0.9087,0.9074,0.8966,0.8747,0.0,0.0,0.0,0.0,0.0,0.0,0.0,0.0,0.0,0.0,0.0,0.0,0.0,0.0,0.0,0.0,0.0,0.0,0.0,0.0,0.0,0.0,0.0,0.0,0.0,0.0,0.0,0.0,0.0,0.0,0.0,0.0,0.0,0.0,0.0,0.0,0.0,0.0,0.0,0.0,0.0,0.0,0.0,0.0,0.0,0.0,0.0,0.0,0.0,0.0,0.0,0.0,0.0,0.0,0.0,0.0,0.0,0.0,0.0,0.0,0.0,0.0,0.0,0.0,0.0,0.0,0.0,0.0,0.0,0.0,0.0,0.0,0.0,0.0,0.0,0.0,0.0,0.0,0.0,0.0,0.0,0.0,0.0,0.0,0.0,0.0,0.0,0.0,0.0,0.0,0.0,0.0,0.0,0.0,0.0,0.0,0.0,0.0,0.0,0.0,0.0,0.0,0.0,0.0,0.0,0.0,0.0,0.0,0.996,0.9152,0.9158,1.0182,1.0228,0.9864,0.0,0.0,0.0,0.0,0.0,0.0,0.0,0.0,0.0,0.0,0.0,0.0,0.0,0.0,0.0,0.0,0.0,0.0,0.0,0.0,0.0,0.0,0.0,0.0,0.0,0.0,0.0,0.0,0.0,0.0,0.0,0.0,0.0,0.0,0.0,0.0,0.0,0.0,0.0,0.0,0.0,0.0,0.0,0.0,0.0,0.0,0.0,0.0,0.0,0.0,0.0,0.0,0.0,0.0,0.0,0.0,0.0,0.0,0.0,0.0,0.0,0.0,0.0,0.0,0.0,0.0,0.0,0.0,0.0,0.0,0.0,0.0,0.0,0.0,0.0,0.0,0.0,0.0,0.0,0.0,0.0,0.0,0.0,0.0,0.0,0.0,0.0,0.0,0.0,0.0,0.0,0.0,0.0,0.0,0.0,0.0,0.0,0.0,0.0,0.0,0.0,0.0,0.0,0.0,0.0,0.0,0.0,0.0,0.0,0.8086,0.8432,0.9562,1.1441,1.0059,0.95,0.0,0.0,0.0,0.0,0.0,0.0,0.0,0.0,0.0,0.0,0.0,0.0,0.0,0.0,0.0,0.0,0.0,0.0,0.0,0.0,0.0,0.0,0.0,0.0,0.0,0.0,0.0,0.0,0.0,0.0,0.0,0.0,0.0,0.0,0.0,0.0,0.0,0.0,0.0,0.0,0.0,0.0,0.0,0.0,0.0,0.0,0.0,0.0,0.0,0.0,0.0,0.0,0.0,0.0,0.0,0.0,0.0,0.0,0.0,0.0,0.0,0.0,0.0,0.0,0.0,0.0,0.0,0.0,0.0,0.0,0.0,0.0,0.0,0.0,0.0,0.0,0.0,0.0,0.0,0.0,0.0,0.0,0.0,0.0,0.0,0.0,0.0,0.0,0.0,0.0,0.0,0.0,0.0,0.0,0.0,0.0,0.0,0.0,0.0,0.0,0.0,0.0,0.0,0.0,0.0,0.0,0.0,0.0,0.0,0.8178,0.0,1.0593,1.169,1.0163,0.9375,0.0,0.0,0.0,0.0,0.0,0.0,0.0,0.0,0.0,0.0,0.0,0.0,0.0,0.0,0.0,0.0,0.0,0.0,0.0,0.0,0.0,0.0,0.0,0.0,0.0,0.0,0.0,0.0,0.0,0.0,0.0,0.0,0.0,0.0,0.0,0.0,0.0,0.0,0.0,0.0,0.0,0.0,0.0,0.0,0.0,0.0,0.0,0.0,0.0,0.0,0.0,0.0,0.0,0.0,0.0,0.0,0.0,0.0,0.0,0.0,0.0,0.0,0.0,0.0,0.0,0.0,0.0,0.0,0.0,0.0,0.0,0.0,0.0,0.0,0.0,0.0,0.0,0.0,0.0,0.0,0.0,0.0,0.0,0.0,0.0,0.0,0.0,0.0,0.0,0.0,0.0,0.0,0.0,0.0,0.0,0.0,0.0,0.0,0.0,0.0,0.0,0.0,0.0,0.0,0.0,0.0,0.0,0.0,0.8233,1.0719,1.2055,1.2133,1.0988,1.0685,0.9603,0.0,0.0,0.0,0.0,0.0,0.0,0.0,0.0,0.0,0.0,0.0,0.0,0.0,0.0,0.0,0.0,0.0,0.0,0.0,0.0,0.0,0.0,0.0,0.0,0.0,0.0,0.0,0.0,0.0,0.0,0.0,0.0,0.0,0.0,0.0,0.0,0.0,0.0,0.0,0.0,0.0,0.0,0.0,0.0,0.0,0.0,0.0,0.0,0.0,0.0,0.0,0.0,0.0,0.0,0.0,0.0,0.0,0.0,0.0,0.0,0.0,0.0,0.0,0.0,0.0,0.0,0.0,0.0,0.0,0.0,0.0,0.0,0.0,0.0,0.0,0.0,0.0,0.0,0.0,0.0,0.0,0.0,0.0,0.0,0.0,0.0,0.0,0.0,0.0,0.0,0.0,0.0,0.0,0.0,0.0,0.0,0.0,0.0,0.0,0.0,0.0,0.0,0.0,0.0,0.0,0.0,0.0,0.0,0.0,0.9365,1.0703,1.1838,1.2588,1.0912,1.0175,0.0,0.0,0.0,0.0,0.0,0.0,0.0,0.0,0.0,0.0,0.0,0.0,0.0,0.0,0.0,0.0,0.0,0.0,0.0,0.0,0.0,0.0,0.0,0.0,0.0,0.0,0.0,0.0,0.0,0.0,0.0,0.0,0.0,0.0,0.0,0.0,0.0,0.0,0.0,0.0,0.0,0.0,0.0,0.0,0.0,0.0,0.0,0.0,0.0,0.0,0.0,0.0,0.0,0.0,0.0,0.0,0.0,0.0,0.0,0.0,0.0,0.0,0.0,0.0,0.0,0.0,0.0,0.0,0.0,0.0,0.0,0.0,0.0,0.0,0.0,0.0,0.0,0.0,0.0,0.0,0.0,0.0,0.0,0.0,0.0,0.0,0.0,0.0,0.0,0.0,0.0,0.0,0.0,0.0,0.0,0.0,0.0,0.0,0.0,0.0,0.0,0.0,0.0,0.0,0.0,0.0,0.0,0.0,0.0,1.0538,1.2028,1.3192,1.3867,1.1899,1.1063,1.1474,0.0,0.0,0.0,0.0,0.0,0.0,0.0,0.0,0.0,0.0,0.0,0.0,0.0,0.0,0.0,0.0,0.0,0.0,0.0,0.0,0.0,0.0,0.0,0.0,0.0,0.0,0.0,0.0,0.0,0.0,0.0,0.0,0.0,0.0,0.0,0.0,0.0,0.0,0.0,0.0,0.0,0.0,0.0,0.0,0.0,0.0,0.0,0.0,0.0,0.0,0.0,0.0,0.0,0.0,0.0,0.0,0.0,0.0,0.0,0.0,0.0,0.0,0.0,0.0,0.0,0.0,0.0,0.0,0.0,0.0,0.0,0.0,0.0,0.0,0.0,0.0,0.0,0.0,0.0,0.0,0.0,0.0,0.0,0.0,0.0,0.0,0.0,0.0,0.0,0.0,0.0,0.0,0.0,0.0,0.0,0.0,0.0,0.0,0.0,0.0,0.0,0.0,0.0,0.0,0.0,0.0,0.0,0.0,1.3529,1.5477,1.5888,1.47,1.3494,1.229,0.0,0.0,0.0,0.0,0.0,0.0,0.0,0.0,0.0,0.0,0.0,0.0,0.0,0.0,0.0,0.0,0.0,0.0,0.0,0.0,0.0,0.0,0.0,0.0,0.0,0.0,0.0,0.0,0.0,0.0,0.0,0.0,0.0,0.0,0.0,0.0,0.0,0.0,0.0,0.0,0.0,0.0,0.0,0.0,0.0,0.0,0.0,0.0,0.0,0.0,0.0,0.0,0.0,0.0,0.0,0.0,0.0,0.0,0.0,0.0,0.0,0.0,0.0,0.0,0.0,0.0,0.0,0.0,0.0,0.0,0.0,0.0,0.0,0.0,0.0,0.0,0.0,0.0,0.0,0.0,0.0,0.0,0.0,0.0,0.0,0.0,0.0,0.0,0.0,0.0,0.0,0.0,0.0,0.0,0.0,0.0,0.0,0.0,0.0,0.0,0.0,0.0,0.0,0.0,0.0,0.0,0.0,0.0,0.0,1.525,1.6976,1.7435,1.6496,1.487,1.356,0.0,0.0,0.0,0.0,0.0,0.0,0.0,0.0,0.0,0.0,0.0,0.0,0.0,0.0,0.0,0.0,0.0,0.0,0.0,0.0,0.0,0.0,0.0,0.0,0.0,0.0,0.0,0.0,0.0,0.0,0.0,0.0,0.0,0.0,0.0,0.0,0.0,0.0,0.0,0.0,0.0,0.0,0.0,0.0,0.0,0.0,0.0,0.0,0.0,0.0,0.0,0.0,0.0,0.0,0.0,0.0,0.0,0.0,0.0,0.0,0.0,0.0,0.0,0.0,0.0,0.0,0.0,0.0,0.0,0.0,0.0,0.0,0.0,0.0,0.0,0.0,0.0,0.0,0.0,0.0,0.0,0.0,0.0,0.0,0.0,0.0,0.0,0.0,0.0,0.0,0.0,0.0,0.0,0.0,0.0,0.0,0.0,0.0,0.0,0.0,0.0,0.0,0.0,0.0,0.0,0.0,0.0,0.0,1.5448,1.6728,1.8711,1.9276,1.8324,1.6502,1.5038,0.0,0.0,0.0,0.0,0.0,0.0,0.0,0.0,0.0,0.0,0.0,0.0,0.0,0.0,0.0,0.0,0.0,0.0,0.0,0.0,0.0,0.0,0.0,0.0,0.0,0.0,0.0,0.0,0.0,0.0,0.0,0.0,0.0,0.0,0.0,0.0,0.0,0.0,0.0,0.0,0.0,0.0,0.0,0.0,0.0,0.0,0.0,0.0,0.0,0.0,0.0,0.0,0.0,0.0,0.0,0.0,0.0,0.0,0.0,0.0,0.0,0.0,0.0,0.0,0.0,0.0,0.0,0.0,0.0,0.0,0.0,0.0,0.0,0.0,0.0,0.0,0.0,0.0,0.0,0.0,0.0,0.0,0.0,0.0,0.0,0.0,0.0,0.0,0.0,0.0,0.0,0.0,0.0,0.0,0.0,0.0,0.0,0.0,0.0,0.0,0.0,0.0,0.0,0.0,0.0,0.0,0.0,0.0,1.6559,1.8159,2.0474,2.116,2.0099,1.8331,1.6606,0.0,0.0,0.0,0.0,0.0,0.0,0.0,0.0,0.0,0.0,0.0,0.0,0.0,0.0,0.0,0.0,0.0,0.0,0.0,0.0,0.0,0.0,0.0,0.0,0.0,0.0,0.0,0.0,0.0,0.0,0.0,0.0,0.0,0.0,0.0,0.0,0.0,0.0,0.0,0.0,0.0,0.0,0.0,0.0,0.0,0.0,0.0,0.0,0.0,0.0,0.0,0.0,0.0,0.0,0.0,0.0,0.0,0.0,0.0,0.0,0.0,0.0,0.0,0.0,0.0,0.0,0.0,0.0,0.0,0.0,0.0,0.0,0.0,0.0,0.0,0.0,0.0,0.0,0.0,0.0,0.0,0.0,0.0,0.0,0.0,0.0,0.0,0.0,0.0,0.0,0.0,0.0,0.0,0.0,0.0,0.0,0.0,0.0,0.0,0.0,0.0,0.0,0.0,0.0,0.0,0.0,0.0,0.0,1.8408,1.9858,2.147,2.2209,2.1916,2.0169,1.7942,0.0,0.0,0.0,0.0,0.0,0.0,0.0,0.0,0.0,0.0,0.0,0.0,0.0,0.0,0.0,0.0,0.0,0.0,0.0,0.0,0.0,0.0,0.0,0.0,0.0,0.0,0.0,0.0,0.0,0.0,0.0,0.0,0.0,0.0,0.0,0.0,0.0,0.0,0.0,0.0,0.0,0.0,0.0,0.0,0.0,0.0,0.0,0.0,1.3422,0.0,0.0,0.0,0.0,0.0,0.0,0.0,0.0,0.0,0.0,0.0,0.0,0.0,0.0,0.0,0.0,0.0,0.0,0.0,0.0,0.0,0.0,0.0,0.0,0.0,0.0,0.0,0.0,0.0,0.0,0.0,0.0,0.0,0.0,0.0,0.0,0.0,0.0,0.0,0.0,0.0,0.0,0.0,0.0,0.0,0.0,0.0,0.0,0.0,0.0,0.0,0.0,0.0,0.0,0.0,0.0,0.0,0.0,0.0,1.8826,2.0764,2.2129,2.288,2.2932,2.2045,1.9868,0.0,0.0,0.0,0.0,0.0,0.0,0.0,0.0,0.0,0.0,0.0,0.0,0.0,0.0,0.0,0.0,0.0,0.0,0.0,0.0,0.0,0.0,0.0,0.0,0.0,0.0,0.0,0.0,0.0,0.0,0.0,0.0,0.0,0.0,0.0,0.0,0.0,0.0,0.0,0.0,0.0,0.0,0.0,0.0,0.0,0.0,0.0,0.0,0.0,0.0,0.0,0.0,0.0,0.0,0.0,0.0,0.0,0.0,0.0,0.0,0.0,0.0,0.0,0.0,0.0,0.0,0.0,0.0,0.0,0.0,0.0,0.0,0.0,0.0,0.0,0.0,0.0,0.0,0.0,0.0,0.0,0.0,0.0,0.0,0.0,0.0,0.0,0.0,0.0,0.0,0.0,0.0,0.0,0.0,0.0,0.0,0.0,0.0,0.0,0.0,0.0,0.0,0.0,0.0,0.0,0.0,0.0,1.6988,1.9021,2.1568,2.2912,2.3645,2.3811,2.3618,2.1624,1.7728,0.0,0.0,0.0,0.0,0.0,0.0,0.0,0.0,0.0,0.0,0.0,0.0,0.0,0.0,0.0,0.0,0.0,0.0,0.0,0.0,0.0,0.0,0.0,0.0,0.0,0.0,0.0,0.0,0.0,0.0,0.0,0.0,0.0,0.0,0.0,0.0,0.0,0.0,1.229,1.4526,0.0,0.0,0.0,0.0,0.0,0.0,0.0,0.0,1.6173,0.0,0.0,0.0,0.0,0.0,0.0,0.0,0.0,0.0,0.0,0.0,0.0,0.0,0.0,0.0,0.0,0.0,0.0,0.0,0.0,0.0,0.0,0.0,0.0,0.0,0.0,0.0,0.0,0.0,0.0,0.0,0.0,0.0,0.0,0.0,0.0,0.0,0.0,0.0,0.0,0.0,0.0,0.0,0.0,0.0,0.0,0.0,0.0,0.0,0.0,0.0,0.0,0.0,0.0,0.0,0.0,1.7037,1.8617,2.0615,2.3082,2.4488,2.5213,2.5218,2.4103,2.1964,1.8788,0.0,0.0,0.0,0.0,0.0,0.0,0.0,0.0,0.0,0.0,0.0,0.0,0.0,0.0,0.0,0.0,0.0,0.0,0.0,0.0,0.0,0.0,0.0,0.0,0.0,0.0,0.0,0.0,0.0,0.0,0.0,0.0,0.0,0.0,0.0,0.0,0.0,0.0,0.0,1.653,1.7258,0.0,0.0,0.0,0.0,0.0,0.0,0.0,0.0,1.5405,0.0,0.0,0.0,0.0,0.0,0.0,0.0,0.0,0.0,0.0,0.0,0.0,0.0,0.0,0.0,0.0,0.0,0.0,0.0,0.0,0.0,0.0,0.0,0.0,0.0,0.0,0.0,0.0,0.0,0.0,0.0,0.0,0.0,0.0,0.0,0.0,0.0,0.0,0.0,0.0,0.0,0.0,0.0,0.0,0.0,0.0,0.0,0.0,0.0,0.0,0.0,0.0,0.0,0.0,0.0,1.6735,1.8962,2.1191,2.3431,2.4508,2.5033,2.4984,2.3284,2.1085,0.0,0.0,0.0,0.0,0.0,0.0,0.0,0.0,0.0,0.0,0.0,0.0,0.0,0.0,0.0,0.0,0.0,0.0,0.0,0.0,0.0,0.0,0.0,0.0,0.0,0.0,0.0,0.0,0.0,0.0,0.0,0.0,0.0,0.0,0.0,0.0,0.0,0.0,0.0,0.0,1.7904,1.872,1.9142,0.0,0.0,0.0,0.0,0.0,0.0,1.7131,1.6533,0.0,0.0,0.0,0.0,0.0,0.0,0.0,0.0,0.0,0.0,0.0,0.0,0.0,0.0,0.0,0.0,0.0,0.0,0.0,0.0,0.0,0.0,0.0,0.0,0.0,0.0,0.0,0.0,0.0,0.0,0.0,0.0,0.0,0.0,0.0,0.0,0.0,0.0,0.0,0.0,0.0,0.0,0.0,0.0,0.0,0.0,0.0,0.0,0.0,0.0,0.0,0.0,0.0,0.0,0.0,1.6155,1.8878,2.1301,2.3423,2.4308,2.4655,2.4475,2.2547,2.0368,0.0,0.0,0.0,0.0,0.0,0.0,0.0,0.0,0.0,0.0,0.0,0.0,0.0,0.0,0.0,0.0,0.0,0.0,0.0,0.0,0.0,0.0,0.0,0.0,0.0,0.0,0.0,0.0,0.0,0.0,0.0,0.0,0.0,0.0,0.0,0.0,0.0,0.0,0.0,0.0,0.0,2.0122,1.9856,2.0032,0.0,0.0,0.0,0.0,1.9531,1.8975,0.0,0.0,0.0,0.0,0.0,0.0,0.0,0.0,0.0,0.0,0.0,0.0,0.0,0.0,0.0,0.0,0.0,0.0,0.0,0.0,0.0,0.0,0.0,0.0,0.0,0.0,0.0,0.0,0.0,0.0,0.0,0.0,0.0,0.0,0.0,0.0,0.0,0.0,0.0,0.0,0.0,0.0,0.0,0.0,0.0,0.0,0.0,0.0,0.0,0.0,0.0,0.0,0.0,0.0,0.0,0.0,1.614,1.8721,2.1151,2.3415,2.4832,2.5231,2.4508,2.3041,2.0922,0.0,0.0,0.0,0.0,0.0,0.0,0.0,0.0,0.0,0.0,0.0,0.0,0.0,0.0,0.0,0.0,0.0,0.0,0.0,0.0,0.0,0.0,0.0,0.0,0.0,0.0,0.0,0.0,0.0,0.0,0.0,0.0,0.0,0.0,0.0,0.0,0.0,0.0,0.0,0.0,0.0,2.1035,2.1231,2.0641,2.0463,0.0,0.0,2.051,2.1345,2.0662,0.0,0.0,0.0,0.0,0.0,0.0,0.0,0.0,0.0,0.0,0.0,0.0,0.0,0.0,0.0,0.0,0.0,0.0,0.0,0.0,0.0,0.0,0.0,0.0,0.0,0.0,0.0,0.0,0.0,0.0,0.0,0.0,0.0,0.0,0.0,0.0,0.0,0.0,0.0,0.0,0.0,0.0,0.0,0.0,0.0,0.0,0.0,0.0,0.0,0.0,0.0,0.0,0.0,0.0,0.0,1.3359,1.6491,1.9004,2.1176,2.2932,2.4035,2.4206,2.3437,2.1606,1.9637,0.0,0.0,0.0,0.0,0.0,0.0,0.0,0.0,0.0,0.0,0.0,0.0,0.0,0.0,0.0,0.0,0.0,0.0,0.0,0.0,0.0,0.0,0.0,0.0,0.0,0.0,0.0,0.0,0.0,0.0,0.0,0.0,0.0,0.0,0.0,0.0,0.0,0.0,0.0,0.0,0.0,0.0,2.2249,2.2216,0.0,0.0,0.0,2.2343,2.2422,0.0,0.0,0.0,0.0,0.0,0.0,0.0,0.0,0.0,0.0,0.0,0.0,0.0,0.0,0.0,0.0,0.0,0.0,0.0,0.0,0.0,0.0,0.0,0.0,0.0,0.0,0.0,0.0,0.0,0.0,0.0,0.0,0.0,0.0,0.0,0.0,0.0,0.0,0.0,0.0,0.0,0.0,0.0,0.0,0.0,0.0,0.0,0.0,0.0,0.0,0.0,0.0,0.0,0.0,0.0,0.0,0.0,1.6761,1.9253,2.1186,2.2564,2.3342,2.3367,2.2597,2.0655,0.0,0.0,0.0,0.0,0.0,0.0,0.0,0.0,0.0,0.0,0.0,0.0,0.0,0.0,0.0,0.0,0.0,0.0,0.0,0.0,0.0,0.0,0.0,0.0,0.0,0.0,0.0,0.731,0.0,0.0,0.0,0.0,0.0,0.0,0.0,0.0,0.0,0.0,0.0,0.0,0.0,0.0,2.2945,2.3519,2.384,2.4122,0.0,0.0,2.4109,2.3897,2.3492,2.2733,0.0,0.0,0.0,0.0,0.0,0.0,0.0,0.0,0.0,0.0,0.0,0.0,0.0,0.0,0.0,0.0,0.0,0.0,0.0,0.0,0.0,0.0,0.0,0.0,0.0,0.0,0.0,0.0,0.0,0.0,0.0,0.0,0.0,0.0,0.0,0.0,0.0,0.0,0.0,0.0,0.0,0.0,0.0,0.0,0.0,0.0,0.0,0.0,0.0,0.0,0.0,0.0,0.0,0.0,1.3983,1.6767,1.9299,2.1238,2.2572,2.3383,2.3416,2.2613,2.118,1.9406,0.0,0.0,0.0,0.0,0.0,0.0,0.0,0.0,0.0,0.0,0.0,0.0,0.0,0.0,0.0,0.0,0.0,0.0,0.0,0.0,0.0,0.0,0.0,0.0,0.0,0.0,0.0,0.0,0.0,0.0,0.0,0.0,0.0,0.0,0.0,0.0,0.0,0.0,0.0,0.0,0.0,2.3944,2.5322,2.5377,2.5789,0.0,2.6347,2.5768,2.6351,2.5842,2.4588,2.223,0.0,0.0,0.0,0.0,0.0,0.0,0.0,0.0,0.0,0.0,0.0,0.0,0.0,0.0,0.0,0.0,0.0,0.0,0.0,0.0,0.0,0.0,0.0,0.0,0.0,0.0,0.0,0.0,0.0,0.0,0.0,0.0,0.0,0.0,0.0,0.0,0.0,0.0,0.0,0.0,0.0,0.0,0.0,0.0,0.0,0.0,0.0,0.0,0.0,0.0,0.0,0.0,0.0,1.4696,1.7099,1.9457,2.1127,2.2078,2.2415,2.2432,2.212,2.1096,1.9742,0.0,0.0,0.0,0.0,0.0,0.0,0.0,0.0,0.0,0.0,0.0,0.0,0.0,0.0,0.0,0.0,0.0,0.0,0.0,0.0,0.0,0.0,0.0,0.0,0.0,0.0,0.0,0.0,1.0114,1.0733,1.1459,0.0,0.0,0.0,0.0,0.0,0.0,0.0,0.0,0.0,0.0,2.5646,2.6451,2.7118,0.0,0.0,2.8301,2.8101,2.7952,2.6892,2.5595,2.4049,2.2224,0.0,0.0,0.0,0.0,0.0,0.0,0.0,0.0,0.0,0.0,0.0,0.0,0.0,0.0,0.0,0.0,0.0,0.0,0.0,0.0,0.0,0.0,0.0,0.0,0.0,0.0,0.0,0.0,0.0,0.0,0.0,0.0,0.0,0.0,0.0,0.0,0.0,0.0,0.0,0.0,0.0,0.0,0.0,0.0,0.0,0.0,0.0,0.0,0.0,0.0,0.0,0.0,1.5358,1.7293,1.9535,2.105,2.1796,2.1781,2.1781,2.1764,2.1042,1.9963,0.0,0.0,0.0,0.0,0.0,0.0,0.0,0.0,0.0,0.0,0.0,0.0,0.0,0.0,0.0,0.0,0.0,0.0,0.0,0.0,0.0,0.0,0.0,0.0,0.0,0.0,0.0,0.0,1.0932,1.144,1.203,0.0,0.0,0.0,0.0,0.0,0.0,0.0,0.0,0.0,0.0,2.7197,2.806,2.8769,2.9308,2.946,2.9329,2.9039,2.8486,2.7638,2.6581,2.5184,0.0,0.0,0.0,0.0,0.0,0.0,0.0,0.0,0.0,0.0,0.0,0.0,0.0,0.0,0.0,0.0,0.0,0.0,0.0,0.0,0.0,0.0,0.0,0.0,0.0,0.0,0.0,0.9891,0.0,0.0,0.8743,0.0,0.0,0.0,0.0,0.0,0.0,0.0,0.0,0.0,0.0,0.0,0.0,0.0,0.0,0.0,0.0,0.0,0.0,0.0,0.0,0.0,0.0,1.5835,1.7315,1.9604,2.1083,2.1788,2.1805,2.1805,2.1788,2.1092,2.0011,1.8521,0.0,0.0,0.0,0.0,0.0,0.0,0.0,0.0,0.0,0.0,0.0,0.0,0.0,0.0,0.0,0.0,0.0,0.0,0.0,0.0,0.0,0.0,0.0,0.0,0.0,0.0,1.0637,1.1545,1.2185,0.0,0.0,0.0,0.0,0.0,0.0,0.0,0.0,0.0,0.0,2.7031,2.8493,3.0292,3.0253,3.0186,3.0516,2.9244,2.8112,2.7889,2.817,2.7646,0.0,0.0,0.0,0.0,0.0,0.0,0.0,0.0,0.0,0.0,0.0,0.0,0.0,0.0,0.0,0.0,0.0,0.0,0.0,0.0,0.0,0.0,0.0,0.0,0.0,0.0,0.0,1.3293,1.2451,0.0,0.0,0.0,0.0,0.0,0.0,0.0,0.0,0.0,0.0,0.0,1.8409,1.9204,0.0,0.0,0.0,0.0,0.0,0.0,0.0,0.0,0.0,0.0,0.0,0.0,1.6828,1.8815,2.1031,2.2269,2.2534,2.2526,2.2285,2.1814,2.1564,2.0276,1.7856,0.0,0.0,0.0,0.0,0.0,0.0,0.0,0.0,0.0,0.0,0.0,0.0,0.0,0.0,0.0,0.0,0.0,0.0,0.0,0.0,0.0,0.0,0.0,0.0,0.0,1.1513,0.0,0.0,0.0,0.0,0.0,0.0,0.0,0.0,0.0,0.0,0.0,2.4842,2.5665,2.8357,3.0247,3.0181,3.1172,3.1934,0.0,0.0,0.0,0.0,0.0,0.0,0.0,0.0,0.0,0.0,0.0,0.0,0.0,0.0,2.9883,2.5592,2.4367,2.411,2.4384,0.0,0.0,0.0,0.0,0.0,0.0,0.0,0.0,0.0,0.0,0.0,0.0,0.0,0.0,1.6094,0.0,1.551,0.0,0.0,0.0,0.0,0.0,0.0,0.0,0.0,1.9969,2.1212,2.17,2.2228,2.2143,0.0,2.0992,1.9237,0.0,0.0,0.0,0.0,0.0,0.0,0.0,0.0,1.8034,2.0029,2.1997,2.3101,2.3302,2.3319,2.2955,2.221,2.168,2.0399,1.8226,1.7454,1.6039,0.0,0.0,0.0,0.0,0.0,0.0,0.0,0.0,0.0,0.0,0.0,0.0,0.0,0.0,0.0,0.0,0.0,0.0,0.0,0.0,0.0,0.0,0.0,1.2556,0.0,0.0,0.0,0.0,0.0,0.0,0.0,0.0,0.0,2.4547,2.586,2.7021,2.802,3.0133,3.1511,3.1394,0.0,0.0,0.0,0.0,0.0,0.0,0.0,3.1096,3.1672,3.1462,3.1205,3.121,3.2326,3.302,3.2491,0.0,0.0,2.8794,2.7662,2.7587,2.7983,2.9012,2.9907,3.0239,3.1808,3.3185,0.0,0.0,0.0,0.0,0.0,0.0,0.0,0.0,1.9057,1.9049,0.0,1.904,0.0,0.0,0.0,0.0,0.0,1.9272,0.0,0.0,2.428,2.5447,2.5387,2.5416,2.5306,2.5039,2.4773,2.3799,2.1945,1.7809,0.0,0.0,0.0,0.0,0.0,0.0,1.9434,2.0973,2.2517,2.355,2.4114,2.4147,2.3757,2.289,2.1554,2.0453,1.9671,1.8943,1.7569,1.5428,1.4577,0.0,0.0,0.0,0.0,0.0,0.0,0.0,0.0,0.0,0.0,0.0,0.0,0.0,0.0,0.0,0.0,0.0,0.0,0.0,0.0,1.3301,0.0,0.0,0.0,0.0,0.0,0.0,0.0,0.0,0.0,0.0,2.7552,2.7841,2.909,3.2317,0.0,0.0,0.0,0.0,3.3432,3.3591,3.3232,3.2954,3.2998,3.3982,3.4455,3.3741,0.0,0.0,3.4453,3.4491,3.4418,3.2958,3.4666,3.5569,3.413,3.3055,3.2832,3.3884,3.3027,3.2885,3.4895,3.575,3.6518,2.3373,0.0,0.0,0.0,0.0,2.2309,2.3063,2.4252,2.3687,2.3065,2.247,2.2457,0.0,0.0,0.0,0.0,0.0,0.0,2.2953,2.3869,2.5506,2.631,2.6415,2.6942,2.6743,2.595,2.6104,2.5513,2.4205,2.2607,2.0039,1.6609,0.0,0.0,0.0,0.0,2.1,2.2525,2.4023,2.4853,2.5021,2.5037,2.4402,2.3143,2.2707,2.1905,2.0648,2.0296,1.9382,1.7762,1.6442,0.0,0.0,0.0,0.0,0.0,0.0,0.0,0.0,0.0,0.0,0.0,0.0,0.0,0.0,0.0,0.0,0.0,0.0,0.0,1.3326,1.3761,1.4597,0.0,0.0,0.0,0.0,0.0,0.0,0.0,0.0,0.0,3.0244,3.1054,3.1429,0.0,0.0,3.4142,3.3424,3.4217,3.5094,3.5691,3.5677,0.0,3.6346,3.6274,3.6433,3.731,3.8079,3.8257,3.7513,3.752,3.7642,3.7679,3.8497,3.8893,3.8229,3.6984,3.6283,3.6664,3.7023,3.7487,3.8253,3.9132,3.9926,2.7825,2.6249,2.4658,2.4324,2.4894,2.4868,2.5491,2.6504,2.6015,2.5672,2.545,2.545,2.4652,2.3275,2.2836,0.0,0.0,0.0,2.5171,2.5823,2.6947,2.7507,2.7622,2.804,2.7863,2.713,2.7272,2.6966,2.6181,2.5592,2.3732,2.0747,0.0,0.0,2.0088,2.1386,2.2736,2.4125,2.5025,2.5597,2.5883,2.5573,2.4977,2.4115,2.3796,2.3128,2.2082,2.1956,2.1275,1.994,1.8656,1.7115,0.0,0.0,0.0,0.0,0.0,0.0,0.0,0.0,0.0,0.0,0.0,1.0803,0.975,0.0,0.0,0.0,1.231,1.37,1.5626,1.6325,0.0,0.0,0.0,0.0,0.0,0.0,0.0,2.6961,2.9292,3.1272,3.2591,3.3781,3.4143,3.3206,3.4467,3.5354,3.5,0.0,3.6737,3.7563,3.7959,3.832,3.8806,3.877,3.9067,4.0282,3.9848,3.9558,3.975,3.9553,3.9518,4.0006,4.0525,4.0735,4.0337,4.0014,3.9992,4.0179,4.0219,4.0335,4.0719,4.1412,4.1986,3.2203,3.1897,2.8412,2.6982,2.7011,2.7014,2.6937,2.6882,2.6882,2.731,2.7976,2.7994,2.7592,2.6828,2.5791,0.0,2.5824,2.6928,2.7586,2.7924,2.8523,2.8834,2.881,2.8804,2.8627,2.8318,2.8283,2.8161,2.7908,2.7164,2.6419,2.5732,2.428,2.3656,2.3825,2.3953,2.4587,2.5679,2.5748,2.6055,2.6666,2.5966,2.5563,2.547,2.4788,2.4152,2.3685,2.3565,2.3003,2.184,2.0902,1.9447,1.7372,0.0,0.0,0.0,0.0,0.0,0.0,0.0,0.0,0.0,0.0,0.0,0.0,0.0,0.0,0.0,1.6016,0.0,1.9013,2.0137,0.0,0.0,0.0,2.3675,2.4705,2.6866,2.8913,3.054,0.0,0.0,3.4586,3.5995,3.6893,3.6836,3.6188,3.6215,3.7619,3.7789,3.8256,3.9111,3.9905,4.0384,4.0402,4.0943,4.1512,4.2132,4.1336,4.0652,4.1155,4.0794,4.0409,4.0709,4.1279,4.1633,4.1115,4.2353,4.3714,4.3759,4.2564,4.1712,4.2524,4.2767,4.2974,3.2203,3.2118,3.1224,3.073,3.0543,3.0404,2.9951,2.9359,2.9341,2.9451,2.9635,2.9622,2.9843,3.0216,2.9954,2.9887,2.9941,2.9612,2.9539,2.9574,2.9153,2.8959,2.8934,2.8959,2.8803,2.8552,2.8713,2.8663,2.837,2.8358,2.8233,2.8003,2.764,2.6392,2.4382,2.5467,2.6198,2.644,2.6985,2.7335,2.7411,2.7247,2.6874,2.6315,2.5546,2.4823,2.415,2.3432,2.2932,2.2617,2.1823,2.0794,1.9562,1.693,0.0,0.0,0.0,0.0,0.0,0.0,0.0,0.0,0.0,1.513,1.2436,0.0,1.6955,0.0,1.9264,2.0266,2.0227,2.172,0.0,0.0,2.5647,2.6844,2.9787,3.0545,3.1522,3.3319,3.5038,3.6176,3.6373,3.7252,3.7859,3.7852,3.7689,3.7455,3.7172,3.771,3.862,3.9868,4.0357,4.0682,4.127,4.1532,4.1814,4.2158,4.1875,4.1771,4.2077,4.2009,4.2031,4.256,4.3001,4.315,4.2856,4.3459,4.3881,4.3971,4.3624,4.3388,4.365,4.3687,4.3724,3.3675,3.3647,3.3568,3.3439,3.3193,3.224,3.1534,3.1115,3.1097,3.1097,3.1067,3.1001,3.1159,3.1476,3.1483,3.1489,3.1446,3.101,3.0808,3.0754,3.0312,2.9921,2.9584,2.959,2.9318,2.8833,2.8975,2.8947,2.8731,2.8875,2.8935,2.8875,2.89,2.8081,2.6531,2.7142,2.739,2.719,2.7635,2.7844,2.7783,2.7793,2.7401,2.6627,2.6173,2.5458,2.4456,2.3924,2.3341,2.2653,2.2101,2.14,2.0547,1.8492,1.7001,0.0,0.0,0.0,0.0,0.0,0.0,0.0,0.0,0.0,0.0,0.0,1.976,2.0162,2.1787,2.2973,2.3371,2.5098,2.6849,2.8452,2.919,3.0381,3.2422,3.3152,3.4052,3.5449,3.6427,3.7179,3.7642,3.7983,3.8241,3.837,3.8387,3.8285,3.8066,3.842,3.917,4.0302,4.0809,4.1307,4.2112,4.1822,4.1751,4.2304,4.2426,4.246,4.2746,4.2938,4.3167,4.3568,4.3802,4.386,4.3755,4.3942,4.4116,4.402,4.3997,4.3997,4.3997,4.3997,4.3997,3.5503,3.549,3.5316,3.5198,3.5015,3.3339,3.2527,3.2349,3.2349,3.2349,3.234,3.2248,3.21,3.1951,3.1928,3.1898,3.1911,3.1787,3.1715,3.1679,3.1568,3.1144,3.0475,3.0475,3.0107,2.9438,2.9327,2.9238,2.9175,2.9065,2.9034,2.9028,2.9017,2.9011,2.8969,2.8608,2.8226,2.7961,2.7996,2.801,2.8003,2.801,2.7613,2.6772,2.6631,2.5985,2.4748,2.4593,2.3902,2.2604,2.2279,2.1854,2.1165,2.0082,1.9248,0.0,1.789,0.0,0.0,0.0,0.0,0.0,0.0,0.0,0.0,2.1785,2.289,2.2453,2.4242,2.594,2.7158,2.9024,3.0444,3.1159,3.2748,3.3804,3.3941,3.5195,3.6389,3.7168,3.7277,3.7625,3.8461,3.843,3.8401,3.8615,3.8643,3.886,3.9336,3.9325,3.95,4.0418,4.127,4.2094,4.2723,4.2178,4.1905,4.2841,4.3064,4.3049,4.3473,4.3749,4.3989,4.4061,4.4117,4.4106,4.4082,4.4192,4.4222,4.4074,4.4047,4.4005,4.3997,4.3997,4.3997,3.5503,3.5497,3.5469,3.5435,3.5386,3.5034,3.4233,3.3167,3.3185,3.319,3.3209,3.3661,3.3827,3.3783,3.3599,3.3543,3.3524,3.2871,3.2551,3.2521,3.1887,3.1486,3.1345,3.1363,3.1265,3.1104,3.0458,3.0127,3.0121,2.947,2.9156,2.9175,2.9095,2.9057,2.8999,0.0,0.0,0.0,2.8639,2.8607,2.8551,2.8589,2.8196,2.7362,2.6753,0.0,2.5118,2.4452,2.3951,2.3635,2.3547,0.0,0.0,0.0,0.0,0.0,0.0,0.0,0.0,0.0,0.0,0.0,2.2803,2.2578,2.1225,2.4911,2.6759,2.5319,2.7934,2.964,2.9326,3.1341,3.2756,3.2987,3.4572,3.5908,3.6567,3.7152,3.7787,3.8506,3.861,3.868,3.8852,3.886,3.8846,3.8922,3.891,3.9255,4.0,3.9375,3.9347,4.0643,4.1803,4.2754,4.3602,4.2976,4.2788,4.3785,4.4113,4.4179,4.4452,4.4584,4.4622,4.4588,4.4568,4.4532,4.4418,4.434,4.43,4.4255,4.4124,4.3997,4.3997,4.3997,4.3997,3.5501,0.0,3.5503,3.5503,0.0,3.5503,3.5093,3.4435,3.4431,3.438,3.4308,3.4609,3.4685,3.4582,3.4488,3.4452,3.4414,3.4008,3.3762,3.3619,3.3215,3.2742,3.223,3.223,3.2026,3.1638,3.1255,3.0812,3.0383,2.9995,2.9588,2.9213,2.9123,2.9091,2.9057,2.9017,2.8988,2.8946,2.8911,2.8875,2.8833,2.8875,2.848,2.7624,0.0,0.0,0.0,0.0,0.0,0.0,0.0,0.0,0.0,0.0,0.0,2.2302,2.1952,2.1931,2.2331,2.2717,2.3456,2.4724,2.5895,2.6117,2.4962,2.7194,2.8537,2.844,3.0362,3.1589,3.1643,3.3049,3.4203,3.4772,3.5992,3.7029,3.7581,3.8116,3.8569,3.8908,3.9001,3.9031,3.9135,3.9058,3.9139,3.9397,3.9697,3.9949,4.0184,3.9829,4.0033,4.1537,4.2033,4.2719,4.3636,4.3621,4.342,4.4031,4.443,4.4621,4.4635,4.4789,4.4883,4.4808,4.4808,4.4764,4.4632,4.4544,4.4454,4.4318,4.4226,4.4097,4.4028,4.3997,4.3997,3.5938,3.5923,3.5769,3.5712,3.5692,3.5558,3.5503,3.5503,0.0,0.0,0.0,3.5218,3.5126,3.494,3.4903,3.4908,3.4908,3.4908,3.4791,3.4583,3.4577,3.4082,3.3213,3.3207,3.283,3.2159,3.1986,3.1561,3.0855,3.0577,3.0096,2.9481,2.923,2.9117,2.9124,2.9057,2.9022,2.9022,2.8987,2.8994,2.8988,2.8994,2.8597,2.7733,2.7079,2.6338,2.5481,2.4806,2.4065,2.3275,2.3107,2.3075,2.3109,2.3627,2.4324,2.5172,2.584,2.627,2.6397,2.6397,2.6548,2.6814,2.819,2.8962,2.8823,2.907,2.9783,3.1093,3.2053,3.2908,3.3637,3.4552,3.5468,3.6411,3.7256,3.7896,3.819,3.8741,3.9165,3.9151,3.9184,3.9218,3.9389,3.9445,3.9586,4.0127,4.0685,4.1042,4.0925,4.0973,4.1289,4.2437,4.275,4.3014,4.3785,4.4078,4.4069,4.4154,4.458,4.478,4.4626,4.4713,4.4877,4.4883,4.4895,4.4865,4.477,4.4712,4.4619,4.4387,4.4314,4.4229,4.4051,4.3997,4.3997,3.763,3.7603,3.685,3.6523,3.6462,3.5788,3.5503,3.5503,3.5503,3.549,3.5442,3.5269,3.5193,3.5145,3.4982,3.4908,3.4908,3.4908,3.487,0.0,3.4831,3.4684,3.4365,3.436,3.4192,3.3813,3.317,3.2755,3.2495,3.1251,3.0508,3.0336,2.9646,2.9264,2.9197,2.913,2.9078,2.9078,2.9015,2.8964,2.8923,2.8976,2.8591,2.7753,2.7638,2.7238,2.6439,2.6274,2.6156,2.5954,2.5919,2.5898,2.5836,2.5887,2.6027,2.6106,2.6228,2.6563,2.7176,2.7224,2.7834,2.918,3.014,3.0376,2.9742,3.0901,3.1806,3.2078,3.3353,3.4407,3.482,3.6087,3.7117,3.7647,3.8575,3.9208,3.9233,3.951,3.9728,3.9722,3.9781,3.9745,3.9806,4.0367,4.0935,4.137,4.1845,4.2368,4.2881,4.2975,4.288,4.3194,4.3911,4.4499,4.465,4.4751,4.4714,4.477,4.4802,4.4871,4.4808,4.4852,4.4895,4.4895,4.4895,4.4883,4.4852,4.4764,4.464,4.4508,4.4401,4.4244,4.4059,4.4013,4.4005,3.8169,3.8051,3.7639,3.7449,3.7369,3.7004,3.685,3.6869,3.685,3.6327,3.5512,3.541,3.5358,3.535,3.5262,3.5226,3.523,3.5211,3.5176,3.5068,3.5063,3.4945,3.4762,3.4766,3.4696,3.4559,3.4207,3.3793,3.3291,3.2568,3.2009,3.1543,3.0706,3.0001,2.9493,2.9321,2.9251,2.927,2.9089,2.8994,2.8952,2.8994,2.8804,2.8415,2.8051,2.7646,2.7255,2.6827,2.6578,2.6551,2.6525,2.6469,2.6414,2.6781,2.6972,2.6909,2.7337,2.7725,2.8027,2.8461,2.9192,3.0357,3.1191,3.1581,3.1334,3.1849,3.2432,3.3029,3.4144,3.512,3.5796,3.6957,3.7962,3.8713,3.9227,3.9563,3.9688,3.9809,3.9895,3.9895,3.9895,3.9889,3.9881,4.0666,4.1867,4.2988,4.3319,4.3449,4.4194,4.4216,4.4121,4.4165,4.4556,4.4826,4.4895,4.4895,4.4895,4.4895,4.4895,4.4895,4.4895,4.4895,4.4895,4.4895,4.4895,4.4895,4.4895,4.4846,4.4745,4.4632,4.4508,4.4347,4.4207,4.4082,4.4005,3.8878,3.8767,3.8531,3.829,3.8036,3.8021,3.8018,3.7988,3.7984,3.7276,3.6177,3.6058,3.6061,3.6061,3.5865,3.5788,3.575,3.5577,3.5417,3.5293,3.5262,3.5172,3.4992,3.4978,3.495,3.4917,3.4908,3.4552,3.3932,3.3694,3.3191,3.2403,3.1724,3.1014,3.0329,3.0124,2.9982,2.9778,2.9553,2.9283,2.9011,2.8987,2.8987,2.895,2.8405,2.8068,2.8044,2.7469,2.7134,2.7134,2.7077,2.7045,2.7019,2.7503,2.7785,2.7792,2.833,2.8791,2.9003,2.9881,3.0714,3.1417,3.2194,3.2745,3.2892,3.2738,3.302,3.4051,3.4902,3.5835,3.6856,3.777,3.8626,3.9482,3.9574,3.967,3.9848,3.9895,3.9895,3.9895,4.0071,4.023,4.0416,4.1152,4.2568,4.4227,4.4349,4.4276,4.4762,4.4895,4.4895,4.4895,4.4895,4.4895,4.4895,4.4895,4.4895,4.4895,4.4895,4.4895,4.4895,4.4895,4.4895,4.4895,4.4895,4.4895,4.4895,4.4889,4.4827,4.4718,4.4605,4.4508,4.4314,4.4139,4.4013,4.0544,4.0459,3.9743,3.8943,3.8266,3.8148,3.8127,3.8065,3.8004,3.795,3.7777,3.7757,3.7754,3.768,3.6927,3.6596,3.6523,3.5846,3.5509,3.5495,3.546,3.5358,3.5189,3.5181,3.5081,3.4941,3.4927,3.4889,3.4703,3.4035,3.3234,3.2484,3.2308,3.2222,3.2106,3.2034,3.1649,3.0964,3.0804,3.0155,2.9076,2.8987,2.8987,2.8987,2.8937,2.8889,2.8857,2.884,2.8767,2.8779,2.8736,2.8761,2.8737,2.8758,2.8736,2.8664,2.8694,2.9071,3.0038,3.1476,3.2434,3.2826,3.3506,3.3969,3.4049,3.3869,3.4169,3.5193,3.5998,3.6894,3.8007,3.8832,3.9419,3.973,3.9826,3.9859,3.9889,3.9895,3.9895,3.9895,4.0563,4.1156,4.1484,4.2539,4.3758,4.4705,4.4775,4.4687,4.4838,4.4895,4.4895,4.4895,4.4895,4.4895,4.4895,4.4895,4.4895,4.4895,4.4895,4.4895,4.4895,4.4895,4.4895,4.4895,4.4895,4.4895,4.4895,4.4889,4.4871,4.477,4.4679,4.4592,4.4347,4.4139,4.4013,4.0942,4.0907,4.0578,4.0151,3.9708,3.9648,3.9576,3.9477,3.9515,3.9515,3.9477,3.9473,3.8934,3.7988,3.7619,3.7465,3.7411,3.66,3.6212,3.6177,3.5731,3.5449,3.5376,3.5372,3.5335,3.5258,3.5254,3.525,3.5196,3.4894,3.429,3.3558,3.3463,3.321,3.2721,3.258,3.2345,3.1997,3.1825,3.1214,3.0188,2.9617,2.9368,2.9368,2.9368,2.9301,2.9201,2.9291,2.9307,2.9195,2.9278,2.9348,2.929,2.9269,2.9228,2.9182,2.9582,3.0444,3.1812,3.2519,3.3092,3.3652,3.3999,3.4449,3.5093,3.5078,3.5641,3.7058,3.7335,3.7665,3.8473,3.9262,3.98,3.9859,3.9895,3.9895,3.9895,3.9895,4.0052,4.0563,4.0961,4.1611,4.252,4.3638,4.4478,4.4857,4.4895,4.4895,4.4895,4.4895,4.4895,4.4895,4.4895,4.4895,4.4895,4.4895,4.4895,4.4895,4.4895,4.4895,4.4895,4.4895,4.4895,4.4895,4.4895,4.4895,4.4895,4.4895,4.487,4.4783,4.4639,4.4489,4.4192,4.4059,4.4013,4.1106,4.1066,4.1032,4.0908,4.0789,4.0771,4.069,4.0599,4.0626,4.0621,4.0564,4.056,3.988,3.8761,3.8473,3.8373,3.8238,3.7465,3.7061,3.7004,3.6446,3.6077,3.5865,3.583,3.5712,3.5538,3.5497,3.5497,3.5503,3.5503,3.5157,3.4625,3.4545,3.4237,3.367,3.3498,3.3325,3.305,3.2873,3.2351,3.1495,3.0801,3.021,2.9678,2.9603,2.9537,2.94,2.9532,2.9542,2.9382,2.9528,2.9687,2.987,2.9875,2.9921,3.0124,3.0819,3.1814,3.3114,3.3336,3.3698,3.4304,3.4403,3.4825,3.5738,3.6276,3.7144,3.8353,3.8499,3.859,3.8996,3.9564,3.9862,3.9895,3.9895,3.9895,3.9895,4.0052,4.0506,4.1099,4.1668,4.2331,4.3519,4.4396,4.4857,4.4876,4.4895,4.4895,4.4895,4.4895,4.4895,4.4895,4.4895,4.4895,4.4895,4.4895,4.4895,4.4895,4.4895,4.4895,4.4895,4.4895,4.4895,4.4895,4.4895,4.4895,4.4895,4.4895,4.4889,4.4858,4.4692,4.444,4.4266,4.4105,4.4013,4.1191,4.1172,4.1053,4.0987,4.0969,4.091,4.0848,4.0757,4.0789,4.0737,4.0694,4.0687,4.0557,4.0246,3.9564,3.925,3.9146,3.8334,3.795,3.793,3.7834,3.7411,3.6673,3.6635,3.6269,3.5654,3.5615,3.5558,3.55,3.5503,3.5484,3.5407,3.5369,3.5388,3.5231,3.5179,3.4936,3.4166,3.4028,3.3615,3.2891,3.2662,3.164,2.9986,2.9669,2.9739,2.9692,2.964,2.9659,2.9617,2.9734,3.0044,3.0734,3.0804,3.1056,3.1742,3.2449,3.3007,3.3443,3.4075,3.4577,3.4807,3.4882,3.5267,3.6209,3.7322,3.8203,3.8703,3.931,3.9702,3.9743,3.9805,3.9895,3.9895,3.9895,3.9895,3.9914,4.0582,4.1075,4.1478,4.2577,4.3676,4.4624,4.4857,4.4895,4.4895,4.4895,4.4895,4.4895,4.4895,4.4895,4.4895,4.4895,4.4895,4.4895,4.4895,4.4895,4.4895,4.4895,4.4895,4.4895,4.4895,4.4895,4.4895,4.4895,4.4895,4.4895,4.4889,4.4902,4.4827,4.4659,4.4473,4.4318,4.4143,4.4044,4.1191,4.1191,4.1108,4.1035,4.1009,4.1035,4.0948,4.0801,4.0868,4.082,4.0761,4.077,4.0729,4.067,4.0402,4.0195,4.0004,3.9204,3.8819,3.8761,3.828,3.7834,3.7565,3.7526,3.7081,3.6365,3.6269,3.5984,3.5538,3.5503,3.5503,3.5503,3.5503,3.5503,3.5503,3.5503,3.5327,3.5077,3.4966,3.4519,3.3745,3.3603,3.2905,3.1684,3.1576,3.1522,3.1395,3.1518,3.1526,3.1418,3.1514,3.1724,3.199,3.2039,3.2342,3.3038,3.3384,3.3748,3.4287,3.4627,3.4807,3.4931,3.542,3.6069,3.6922,3.7931,3.8803,3.938,3.9678,3.9895,3.9895,3.9895,3.9895,3.9895,3.9895,3.9895,4.0052,4.0663,4.1383,4.2085,4.3436,4.4567,4.4781,4.4895,4.4895,4.4895,4.4895,4.4895,4.4895,4.4895,4.4895,4.4895,4.4895,4.4895,4.4895,4.4895,4.4895,4.4895,4.4895,4.4895,4.4895,4.4895,4.4895,4.4895,4.4895,4.4895,4.4895,4.4895,4.4883,4.4796,4.4638,4.4494,4.438,4.4166,4.4051,4.1191,4.1191,4.1132,4.1066,4.105,4.1072,4.1026,4.0903,4.0948,4.0924,4.088,4.0874,4.0859,4.0813,4.0808,4.0737,4.0558,4.0027,3.9776,3.9737,3.9177,3.8749,3.8493,3.8448,3.7977,3.7175,3.6863,3.6341,3.5615,3.5556,3.5552,3.5558,3.5574,3.555,3.5541,3.5531,3.5515,3.551,3.546,3.5102,3.457,3.445,3.4163,3.362,3.3528,3.3168,3.2547,3.2641,3.2634,3.2538,3.2645,3.2833,3.3081,3.3368,3.3707,3.4173,3.4249,3.4419,3.4869,3.4931,3.5017,3.5325,3.586,3.6618,3.7685,3.8367,3.9039,3.9654,3.9895,3.9895,3.9895,3.9895,3.9895,3.9895,3.9895,3.9895,3.9951,4.0923,4.2047,4.3127,4.4137,4.48,4.4895,4.4895,4.4895,4.4895,4.4895,4.4895,4.4895,4.4895,4.4895,4.4895,4.4895,4.4895,4.4895,4.4895,4.4895,4.4895,4.4895,4.4895,4.4895,4.4895,4.4895,4.4895,4.4895,4.4895,4.4895,4.4895,4.484,4.4776,4.4626,4.4494,4.4332,4.4158,4.4067,4.1191,4.1191,4.1132,4.111,4.1087,4.1102,4.1115,4.1086,4.1085,4.1041,4.0997,4.0992,4.0942,4.0842,4.0827,4.082,4.0776,4.0696,4.0662,4.0645,4.0609,4.0134,3.9426,3.9404,3.8923,3.8029,3.7294,3.6538,3.5886,3.5844,3.5825,3.5763,3.5709,3.5645,3.559,3.5604,3.5589,3.5528,3.5521,3.5449,3.539,3.5246,3.5143,3.5109,3.505,3.4319,3.2894,3.2844,3.2921,3.2879,3.2863,3.3161,3.3987,3.4598,3.5106,3.5047,3.5083,3.5059,3.5056,3.4978,3.5268,3.5917,3.6201,3.6984,3.8235,3.8727,3.9115,3.973,3.9895,3.9895,3.9895,3.9895,3.9895,3.9895,3.9895,3.9895,4.0279,4.144,4.3013,4.4339,4.4857,4.4895,4.4895,4.4895,4.4895,4.4895,4.4895,4.4895,4.4895,4.4895,4.4895,4.4895,4.4895,4.4895,4.4895,4.4895,4.4895,4.4895,4.4895,4.4895,4.4895,4.4895,4.4895,4.4895,4.4895,4.4895,4.4895,4.4895,4.4895,4.4808,4.4652,4.4515,4.439,4.424,4.409,4.1191,4.1191,4.1191,4.1152,4.1152,4.1129,4.1107,4.1102,4.1099,4.1087,4.1073,4.1071,4.1043,4.1033,4.1009,4.1008,4.1009,4.0989,4.0926,4.0831,4.0813,4.0662,4.0419,4.0354,3.9911,3.9098,3.8256,3.7734,3.7389,3.6865,3.658,3.652,3.6012,3.5722,3.5697,3.5674,3.5653,3.5628,3.5647,3.559,3.5461,3.5396,3.5332,3.5223,3.5213,3.4896,3.446,3.4418,3.4437,3.4384,3.4418,3.4556,3.4827,3.5057,3.5193,3.5179,3.5147,3.5079,3.5043,3.5007,3.5306,3.6088,3.6694,3.7533,3.8576,3.921,3.9578,3.9862,3.9895,3.9895,3.9895,3.9895,3.9911,3.99,3.9895,4.0176,4.0881,4.2248,4.3625,4.463,4.4895,4.4895,4.4895,4.4895,4.4907,4.4895,4.4895,4.4895,4.4895,4.4895,4.4895,4.4895,4.4895,4.4895,4.4895,4.4895,4.4895,4.4895,4.4895,4.4895,4.4895,4.4895,4.4895,4.4895,4.4895,4.4895,4.4895,4.4895,4.4895,4.4821,4.4672,4.4565,4.4489,4.4354,4.4184,4.1191,4.1191,4.1191,4.1172,4.1152,4.1112,4.111,4.1107,4.1104,4.1099,4.1114,4.1112,4.1111,4.1109,4.1108,4.1108,4.1108,4.1108,4.1024,4.0938,4.0928,4.0914,4.088,4.0805,4.0383,3.966,3.9068,3.864,3.8332,3.7848,3.7587,3.7469,3.7037,3.6573,3.6275,3.6211,3.6104,3.5779,3.57,3.5655,3.5599,3.5532,3.5463,3.5371,3.5339,3.5326,3.5277,3.5262,3.5235,3.5202,3.5186,3.5186,3.5186,3.5186,3.5193,3.5183,3.5132,3.5084,3.5067,3.5296,3.5747,3.658,3.742,3.8254,3.9025,3.9697,3.9876,3.9895,3.9895,3.9922,3.9967,3.9982,4.0117,4.0517,4.0176,4.057,4.1667,4.2971,4.4057,4.4764,4.5051,4.5019,4.4937,4.4979,4.4955,4.4919,4.4895,4.4895,4.4895,4.4895,4.4895,4.4895,4.4895,4.4895,4.4895,4.4895,4.4895,4.4895,4.4895,4.4895,4.4895,4.4895,4.4895,4.4895,4.4895,4.4895,4.4895,4.4895,4.4883,4.477,4.4705,4.4605,4.451,4.4383,4.4237,4.125,4.1191,4.1191,4.1172,4.1112,4.1111,4.111,4.1108,4.1107,4.1104,4.11,4.1099,4.1115,4.111,4.1109,4.1108,4.1108,4.1108,4.1087,4.1081,4.1078,4.1041,4.0997,4.0887,4.0495,3.9896,3.9789,3.9402,3.8884,3.8684,3.8669,3.8603,3.8424,3.8105,3.7326,3.7141,3.6648,3.6038,3.5825,3.5712,3.5691,3.5688,3.5648,3.5568,3.5571,3.5513,3.5425,3.5405,3.5332,3.5219,3.5186,3.5186,3.5186,3.5186,3.5186,3.5197,3.5183,3.5254,3.536,3.5894,3.6599,3.7438,3.816,3.9055,3.9678,3.9886,3.9977,3.9972,3.9961,4.0008,4.0086,4.0268,4.0702,4.1386,4.1165,4.1504,4.2722,4.3616,4.4406,4.5034,4.5302,4.5302,4.5053,4.5148,4.5089,4.4985,4.4937,4.4943,4.4895,4.4895,4.4895,4.4895,4.4895,4.4895,4.4895,4.4895,4.4895,4.4895,4.4895,4.4895,4.4895,4.4895,4.4895,4.4895,4.4895,4.4895,4.4895,4.4895,4.4895,4.4852,4.4751,4.4646,4.4544,4.4447,4.434,4.1738,4.1211,4.1191,4.1191,4.1172,4.1132,4.1111,4.111,4.1108,4.1107,4.1104,4.1101,4.1117,4.1115,4.1111,4.1108,4.1108,4.1108,4.1108,4.1108,4.1108,4.1105,4.1075,4.1043,4.0917,4.0666,4.0614,4.0626,4.0354,3.9757,3.9488,3.9449,3.8981,3.8548,3.8168,3.7618,3.7167,3.6806,3.6216,3.5928,3.5868,3.5853,3.57,3.5626,3.5679,3.564,3.5565,3.5543,3.5428,3.5215,3.5186,3.5186,3.5207,3.5245,3.5295,3.5359,3.5734,3.5996,3.6135,3.6687,3.7468,3.825,3.8679,3.9199,3.996,4.0144,4.0195,4.0209,4.0194,4.0218,4.0354,4.0893,4.1658,4.2534,4.2769,4.3124,4.3703,4.4514,4.5122,4.5309,4.5386,4.5438,4.5478,4.5386,4.5281,4.5145,4.5097,4.5057,4.4943,4.4895,4.4895,4.4895,4.4895,4.4895,4.4895,4.4895,4.4895,4.4895,4.4895,4.4895,4.4895,4.4895,4.4895,4.4895,4.4895,4.4895,4.4895,4.4895,4.4895,4.4895,4.4777,4.4647,4.4666,4.4605,4.4475,4.2382,4.1622,4.1621,4.1433,4.1167,4.1111,4.1113,4.1132,4.111,4.1108,4.1107,4.1101,4.1117,4.1114,4.1111,4.1108,4.1108,4.1108,4.1108,4.1108,4.1108,4.1108,4.1108,4.1108,4.1108,4.1108,4.1108,4.1089,4.0991,4.0562,4.0366,4.0288,3.9898,3.9469,3.9077,3.8644,3.8135,3.7801,3.729,3.6994,3.6938,3.6928,3.692,3.6833,3.6796,3.6681,3.6329,3.6474,3.6294,3.5603,3.5373,3.5373,3.5415,3.5745,3.5898,3.5956,3.6585,3.7012,3.7141,3.769,3.8309,3.8833,3.9193,3.9674,4.0094,4.0266,4.0324,4.0296,4.0324,4.0526,4.1064,4.2074,4.3046,4.3694,4.4388,4.4647,4.4393,4.4962,4.5442,4.5545,4.558,4.5613,4.577,4.5605,4.5424,4.5272,4.5175,4.508,4.4943,4.4919,4.4895,4.4895,4.4895,4.4895,4.4895,4.4895,4.4895,4.4895,4.4895,4.4895,4.4901,4.4901,4.4901,4.4901,4.4895,4.4901,4.4919,4.4913,4.4895,4.4858,4.4757,4.4719,4.4744,4.4764,4.4634,4.3072,4.2198,4.22,4.1784,4.114,4.1084,4.1118,4.1151,4.1093,4.1094,4.1073,4.107,4.107,4.108,4.1068,4.1081,4.1101,4.1086,4.108,4.1099,4.1117,4.1116,4.1108,4.1108,4.1108,4.1108,4.1108,4.1108,4.1069,4.105,4.1069,4.0952,4.0952,4.0659,3.9994,3.9752,3.9355,3.873,3.8351,3.8206,3.8173,3.8185,3.8132,3.8143,3.815,3.7833,3.7488,3.7603,3.7441,3.6017,3.5897,3.5994,3.6041,3.669,3.6958,3.7122,3.7623,3.8089,3.8208,3.8761,3.9203,3.9387,3.9917,4.0307,4.0334,4.0363,4.0487,4.0684,4.0504,4.1139,4.2198,4.3649,4.4357,4.4692,4.536,4.5351,4.5047,4.5264,4.5669,4.5786,4.5777,4.5803,4.5778,4.5685,4.5513,4.5386,4.53,4.5173,4.5038,4.4937,4.4913,4.4895,4.4895,4.4895,4.4895,4.4895,4.4895,4.4895,4.4895,4.4895,4.4919,4.4919,4.4913,4.4931,4.5001,4.5001,4.4979,4.4961,4.4973,4.4984,4.5007,4.4894,4.4796,4.487,4.4808,4.3619,4.2198,4.2198,4.1739,4.1089,4.1014,4.1028,4.103,4.1032,4.1025,4.1027,4.1016,4.106,4.1042,4.1107,4.1027,4.1089,4.105,4.1052,4.1112,4.1112,4.1106,4.1097,4.1094,4.1111,4.1109,4.1108,4.1108,4.1108,4.1108,4.1108,4.1108,4.1089,4.1011,4.0756,4.014,3.9744,3.943,3.8912,3.8667,3.8679,3.8675,3.867,3.8661,3.8638,3.8474,3.8269,3.8311,3.8224,3.7924,3.77,3.7586,3.7506,3.7696,3.7854,3.8028,3.8524,3.8956,3.9062,3.9592,4.003,4.0039,4.0261,4.0469,4.0477,4.0651,4.1021,4.1421,4.1652,4.2283,4.3582,4.4271,4.4887,4.5355,4.5629,4.5726,4.5587,4.5647,4.5736,4.5793,4.5803,4.5803,4.5803,4.5789,4.5657,4.5524,4.54,4.5291,4.5137,4.4997,4.4943,4.4919,4.4895,4.4907,4.4979,4.5003,4.5024,4.5019,4.5001,4.499,4.5007,4.5013,4.5061,4.5098,4.5145,4.5137,4.5106,4.5191,4.5239,4.5255,4.5239,4.5124,4.5021,4.5051,4.5182,4.4503,4.3297,4.2872,4.2239,4.1517,4.1114,4.0972,4.0995,4.0987,4.0976,4.1104,4.1407,4.1606,4.1606,4.1611,4.1614,4.1497,4.1147,4.1019,4.1048,4.1069,4.1053,4.1055,4.1054,4.1072,4.1097,4.1108,4.1108,4.1108,4.1109,4.1108,4.1108,4.1108,4.1089,4.1106,4.0624,4.046,4.0376,3.9992,3.9724,3.9718,3.9717,3.9717,3.9727,3.9687,3.957,3.9159,3.9549,3.9451,3.9281,3.9305,3.9062,3.8518,3.8693,3.8868,3.901,3.9594,3.9947,4.0133,4.03,4.0515,4.0538,4.0604,4.0868,4.1079,4.1306,4.1751,4.2376,4.2702,4.3166,4.4442,4.5045,4.5397,4.5649,4.5803,4.5803,4.5803,4.5803,4.5803,4.5803,4.5803,4.5803,4.5803,4.5803,4.5726,4.558,4.5541,4.5419,4.5227,4.5078,4.4991,4.4949,4.4907,4.4937,4.5043,4.5129,4.5197,4.5194,4.5204,4.5199,4.5204,4.5218,4.5237,4.5239,4.5239,4.527,4.526,4.5371,4.5419,4.5366,4.5326,4.5278,4.5241,4.5148,4.545,4.5316,4.4559,4.3804,4.3039,4.2227,4.1602,4.1408,4.1412,4.1358,4.1569,4.152,4.2194,4.2473,4.2484,4.2481,4.2488,4.2292,4.1883,4.1648,4.1352,4.1372,4.1206,4.1095,4.1004,4.1032,4.1065,4.1087,4.1086,4.11,4.1115,4.1117,4.1111,4.1108,4.1108,4.1083,4.1087,4.0996,4.0933,4.0874,4.086,4.0877,4.0896,4.0896,4.0875,4.0836,4.0563,4.0232,4.0485,4.068,4.0117,4.0719,4.0232,3.955,3.9511,3.9998,3.9991,4.0492,4.0653,4.0661,4.0773,4.0794,4.089,4.1003,4.1406,4.1964,4.2254,4.2663,4.3227,4.3711,4.4059,4.4752,4.5278,4.5668,4.5803,4.5803,4.5803,4.5803,4.5803,4.5803,4.5803,4.5803,4.5803,4.5803,4.58,4.5715,4.5657,4.5621,4.5545,4.5351,4.5186,4.5103,4.4991,4.4955,4.4985,4.5108,4.5229,4.5316,4.5332,4.5357,4.5357,4.5357,4.5336,4.5325,4.5276,4.5281,4.5341,4.5415,4.5498,4.5507,4.5448,4.5443,4.5442,4.5361,4.5246,4.5769,4.5339,4.4578,4.4442,4.3876,4.316,4.2931,4.2834,4.3003,4.2879,4.3027,4.3048,4.3244,4.3318,4.3311,4.3305,4.3285,4.3153,4.285,4.2579,4.2149,4.2043,4.1844,4.1365,4.1328,4.1208,4.1021,4.1142,4.1245,4.1094,4.1112,4.1188,4.1136,4.1095,4.1093,4.1102,4.1103,4.1093,4.11,4.1102,4.1109,4.1109,4.1109,4.1109,4.1109,4.1109,4.0992,4.0914,4.0973,4.1031,4.0914,4.1031,4.0895,4.0602,4.068,4.0778,4.0804,4.083,4.0936,4.1012,4.0929,4.1193,4.1587,4.1816,4.2222,4.2818,4.3131,4.3514,4.423,4.4891,4.5378,4.5552,4.5707,4.5765,4.5803,4.5803,4.5803,4.5803,4.5803,4.5803,4.5803,4.5803,4.5803,4.5803,4.5803,4.5775,4.5711,4.5677,4.5629,4.5502,4.5321,4.5192,4.5103,4.4997,4.508,4.5153,4.5296,4.54,4.5428,4.5447,4.5452,4.5438,4.5415,4.5386,4.541,4.5448,4.5488,4.555,4.56,4.5616,4.5601,4.561,4.5618,4.5753,4.5913,4.646,4.5571,4.52,4.4791,4.4365,4.3924,4.3518,4.3382,4.3404,4.3388,4.3433,4.3614,4.3935,4.4171,4.4168,4.4168,4.3974,4.3624,4.3488,4.3265,4.2933,4.2881,4.2776,4.2257,4.2257,4.2312,4.2331,4.2297,4.1763,4.1182,4.1574,4.1481,4.1113,4.1055,4.1053,4.1063,4.1055,4.1112,4.1128,4.116,4.1151,4.1149,4.1149,4.1128,4.1128,4.1148,4.1109,4.1109,4.1109,4.1109,4.1089,4.1109,4.1109,4.1128,4.1167,4.1148,4.1138,4.1056,4.1202,4.1466,4.1546,4.1856,4.2534,4.2686,4.3089,4.3688,4.4056,4.4349,4.5045,4.5432,4.5803,4.5765,4.5803,4.5803,4.5803,4.5803,4.5803,4.5803,4.5803,4.5803,4.5803,4.5803,4.5803,4.5803,4.5803,4.5803,4.5782,4.5726,4.5681,4.5621,4.5465,4.53,4.5216,4.5143,4.5255,4.5326,4.5442,4.5532,4.555,4.5558,4.5558,4.5558,4.5537,4.5578,4.5622,4.566,4.562,4.5653,4.5681,4.5719,4.5781,4.5775,4.5873,4.6258,4.6669,4.7267,4.5803,4.5726,4.5123,4.4852,4.475,4.4195,4.3943,4.392,4.3987,4.4048,4.409,4.4695,4.5045,4.5045,4.4967,4.4656,4.4015,4.4071,4.3998,4.3787,4.3773,4.3709,4.3491,4.3486,4.335,4.3213,4.3578,4.2973,4.2075,4.2264,4.2094,4.1932,4.1599,4.1533,4.1699,4.1853,4.1565,4.1601,4.1615,4.1607,4.1596,4.1602,4.1596,4.1615,4.1614,4.1693,4.181,4.1538,4.146,4.144,4.1421,4.1361,4.138,4.1499,4.1596,4.1552,4.1384,4.1712,4.2187,4.2405,4.271,4.3466,4.3556,4.4036,4.4559,4.4891,4.5084,4.5668,4.5803,4.5803,4.5803,4.5803,4.5803,4.5803,4.5803,4.5803,4.5803,4.5803,4.5803,4.5803,4.5803,4.5803,4.5803,4.5803,4.5803,4.5803,4.5771,4.576,4.5681,4.5563,4.541,4.5341,4.5317,4.5423,4.5537,4.5633,4.5685,4.5696,4.5696,4.57,4.5696,4.5673,4.5719,4.5739,4.5676,4.5644,4.5712,4.5885,4.6101,4.6176,4.602,4.6273,4.6929,4.7556,4.8138,4.5803,4.5784,4.5687,4.5685,4.5696,4.5551,4.5605,4.5598,4.5528,4.5703,4.5494,4.573,4.5785,4.5766,4.5766,4.5747,4.563,4.5436,4.5125,4.4695,4.4617,4.4307,4.3702,4.3486,4.378,4.3935,4.4404,4.4074,4.3424,4.3361,4.3308,4.31,4.2991,4.3205,4.2947,4.2909,4.332,4.3334,4.331,4.3262,4.318,4.3127,4.313,4.316,4.314,4.3078,4.2921,4.2491,4.2179,4.2179,4.218,4.2161,4.2278,4.2919,4.3211,4.3066,4.2749,4.2492,4.3166,4.3294,4.3584,4.4263,4.4449,4.4891,4.5281,4.5533,4.5591,4.5726,4.5803,4.5803,4.5803,4.5803,4.5803,4.5803,4.5803,4.5803,4.5803,4.5803,4.5803,4.5803,4.5803,4.5803,4.5803,4.5803,4.5803,4.5803,4.58,4.5789,4.5746,4.5613,4.5524,4.5438,4.5433,4.5526,4.5614,4.5734,4.5782,4.5803,4.5803,4.5803,4.5786,4.5748,4.5757,4.575,4.5704,4.5833,4.605,4.6293,4.6555,4.6765,4.6848,4.7258,4.7802,4.8413,4.8913,4.5803,4.5803,4.5803,4.5814,4.5854,4.5893,4.5905,4.5955,4.5989,4.5989,4.5999,4.5982,4.5982,4.5982,4.5982,4.5982,4.5982,4.5982,4.5844,4.5533,4.5416,4.5261,4.5047,4.4909,4.4909,4.4889,4.5203,4.5349,4.4859,4.4382,4.4079,4.3634,4.3618,4.3513,4.3796,4.3643,4.3612,4.3631,4.3667,4.3665,4.3657,4.3666,4.3668,4.3648,4.3667,4.3692,4.3574,4.3328,4.3036,4.3036,4.3036,4.3036,4.3094,4.3404,4.3711,4.4252,4.3965,4.3925,4.4175,4.4163,4.4569,4.5054,4.5305,4.5436,4.5745,4.5803,4.5803,4.5803,4.5803,4.5803,4.5803,4.5803,4.5803,4.5803,4.5803,4.5803,4.5803,4.5803,4.5803,4.5803,4.5803,4.5803,4.5803,4.5803,4.5803,4.5803,4.5803,4.5796,4.5757,4.5657,4.5588,4.5537,4.5558,4.5598,4.5692,4.577,4.5789,4.5803,4.5803,4.5803,4.5803,4.5793,4.5775,4.5765,4.5731,4.5965,4.6345,4.6639,4.6863,4.733,4.7793,4.8221,4.8606,4.8875,4.9394,4.5803,4.5803,4.5803,4.5817,4.5818,4.5867,4.592,4.5941,4.598,4.5999,4.5982,4.5982,4.5982,4.5982,4.5982,4.5982,4.5982,4.5982,4.5982,4.5982,4.5982,4.5924,4.5785,4.5863,4.5883,4.5982,4.5824,4.5842,4.575,4.543,4.4832,4.4171,4.4478,4.4404,4.43,4.4409,4.4518,4.4589,4.455,4.4511,4.449,4.4429,4.4382,4.4334,4.4267,4.4258,4.4231,4.3975,4.3918,4.392,4.3925,4.3927,4.3979,4.4306,4.4663,4.5075,4.5048,4.5057,4.5083,4.5116,4.5354,4.5641,4.5851,4.5726,4.5765,4.5803,4.5803,4.5803,4.5803,4.5803,4.5803,4.5803,4.5803,4.5803,4.5803,4.5803,4.5803,4.5803,4.5803,4.5803,4.5803,4.5803,4.5803,4.5803,4.5803,4.5803,4.5803,4.5803,4.5768,4.5692,4.5673,4.5637,4.5657,4.5692,4.573,4.58,4.5803,4.5803,4.5803,4.5803,4.5803,4.5793,4.5771,4.5757,4.5847,4.6319,4.6836,4.7017,4.7274,4.8259,4.9048,4.9106,4.9341,4.9548,4.9779,4.5803,4.5803,4.5807,4.5844,4.5896,4.5886,4.5944,4.598,4.5997,4.5982,4.5982,4.5982,4.5982,4.5982,4.5982,4.5982,4.5982,4.5982,4.5982,4.5982,4.5982,4.5982,4.5982,4.5982,4.5982,4.5982,4.5982,4.6027,4.6089,4.6008,4.5872,4.5916,4.5558,4.5834,4.582,4.5585,4.5649,4.571,4.5718,4.5799,4.582,4.582,4.5796,4.5853,4.5929,4.6007,4.5947,4.522,4.4808,4.4807,4.4811,4.4809,4.4913,4.5315,4.5689,4.5788,4.587,4.5822,4.5784,4.5699,4.5763,4.5802,4.581,4.5803,4.5803,4.5803,4.5803,4.5803,4.5803,4.5803,4.5803,4.5803,4.5803,4.5803,4.5803,4.5803,4.5803,4.5803,4.5803,4.5803,4.5803,4.5803,4.5803,4.5803,4.5803,4.5803,4.5803,4.5803,4.5803,4.5768,4.5775,4.5768,4.5775,4.5786,4.5789,4.5803,4.5803,4.5803,4.5803,4.5803,4.5803,4.5789,4.5798,4.6109,4.6294,4.6818,4.7314,4.7619,4.8259,4.9591,5.0226,4.9957,4.9976,5.0168,5.0322,4.587,4.5871,4.5851,4.5874,4.5903,4.5899,4.5932,4.5994,4.5994,4.5982,4.5982,4.5982,4.5982,4.5982,4.5982,4.5982,4.5982,4.5982,4.5982,4.5982,4.5982,4.5982,4.5982,4.5982,4.5982,4.5982,4.5982,4.6027,4.6096,4.616,4.6167,4.6177,4.6219,4.6237,4.6248,4.6247,4.6274,4.6279,4.629,4.6295,4.6296,4.6281,4.6267,4.6269,4.6269,4.6249,4.6108,4.5872,4.5736,4.5676,4.5652,4.5636,4.5619,4.605,4.6159,4.616,4.6163,4.6142,4.6098,4.601,4.5907,4.5827,4.5803,4.5803,4.5803,4.5803,4.5803,4.5803,4.5803,4.5803,4.5803,4.5803,4.5803,4.5803,4.5803,4.5803,4.5803,4.5803,4.5803,4.5803,4.5803,4.5803,4.5803,4.5803,4.5803,4.5803,4.5803,4.5803,4.5803,4.5803,4.5803,4.5803,4.5803,4.5803,4.5803,4.5803,4.5842,4.59,4.5939,4.6113,4.6229,4.5823,4.5898,4.6283,4.6879,4.7493,4.7992,4.835,4.911,5.0149,5.0495,5.0438,5.0553,5.0688,5.0688,4.5899,4.5908,4.5892,4.5902,4.5932,4.5934,4.596,4.5989,4.5994,4.5982,4.5982,4.5982,4.5982,4.5982,4.5982,4.5982,4.5982,4.5982,4.5982,4.5982,4.5982,4.5982,4.5982,4.5982,4.5982,4.5982,4.6007,4.6032,4.6121,4.6165,4.6201,4.6233,4.6273,4.6297,4.6299,4.6301,4.6301,4.6301,4.6301,4.6301,4.6302,4.6303,4.6288,4.6301,4.6302,4.6285,4.6249,4.6132,4.6152,4.6133,4.6152,4.6191,4.619,4.6208,4.6184,4.6161,4.6135,4.6125,4.609,4.6043,4.595,4.5871,4.5814,4.5807,4.5803,4.5807,4.5803,4.5803,4.5803,4.5803,4.5803,4.5803,4.5803,4.5803,4.5803,4.5803,4.5803,4.5803,4.5803,4.5803,4.5803,4.5803,4.5823,4.5842,4.59,4.5881,4.5803,4.5803,4.5803,4.5803,4.5803,4.5803,4.5803,4.5803,4.5803,4.6248,4.6631,4.6616,4.6693,4.6906,4.6867,4.6477,4.6529,4.7198,4.7801,4.8302,4.8743,4.9173,4.9784,5.05,5.0611,5.0592,5.063,5.0688,5.0688,4.5903,4.5889,4.5892,4.5949,4.5991,4.5994,4.5989,4.5994,4.5999,4.5982,4.5982,4.5982,4.5982,4.5982,4.5982,4.5982,4.5982,4.5982,4.5982,4.5982,4.5982,4.5982,4.5982,4.5982,4.5982,4.5982,4.601,4.6071,4.6171,4.6194,4.6233,4.6286,4.6279,4.6301,4.6301,4.6301,4.6301,4.6301,4.6301,4.6301,4.6301,4.6301,4.6304,4.6306,4.6288,4.6293,4.6295,4.6277,4.6277,4.6278,4.6265,4.6284,4.6278,4.623,4.623,4.6269,4.6209,4.6162,4.6104,4.605,4.5981,4.5922,4.5867,4.5834,4.5817,4.581,4.5817,4.5827,4.5814,4.5807,4.5803,4.5803,4.5803,4.5803,4.5803,4.5803,4.5803,4.5803,4.5803,4.5803,4.5803,4.5803,4.5823,4.5861,4.5977,4.5977,4.5842,4.5861,4.5977,4.6093,4.619,4.6248,4.6287,4.6306,4.65,4.7076,4.7401,4.7386,4.7428,4.7563,4.7746,4.7634,4.7828,4.8259,4.8583,4.8982,4.9509,5.0034,5.0399,5.0649,5.0668,5.0668,5.0688,5.0688,5.0688,4.5963,4.5972,4.5972,4.5978,4.5983,4.5983,4.5994,4.5997,4.5982,4.5982,4.5982,4.5982,4.5982,4.5982,4.5982,4.5982,4.5982,4.5982,4.5982,4.5982,4.5982,4.5982,4.5982,4.5982,4.6002,4.5982,4.601,4.6078,4.6196,4.6201,4.6238,4.6271,4.6301,4.6301,4.6301,4.6301,4.6301,4.6301,4.6301,4.6301,4.6301,4.6301,4.6301,4.6301,4.6301,4.6301,4.6301,4.6301,4.6301,4.6301,4.6295,4.6291,4.6302,4.6264,4.6281,4.6295,4.6263,4.6267,4.621,4.6171,4.6082,4.599,4.5919,4.5892,4.5929,4.5848,4.5844,4.5828,4.5805,4.5814,4.5803,4.5803,4.5803,4.5803,4.5803,4.5803,4.5803,4.5803,4.5803,4.5803,4.5803,4.5861,4.59,4.6484,4.6697,4.6558,4.648,4.6558,4.6674,4.6809,4.6925,4.698,4.7018,4.7003,4.7212,4.7947,4.8194,4.8121,4.8082,4.8121,4.8299,4.8624,4.8797,4.9026,4.9326,4.9643,5.0057,5.0399,5.0534,5.0688,5.0688,5.0688,5.0688,5.0688,5.0688,4.5974,4.5895,4.5958,4.598,4.5961,4.5986,4.5986,4.5999,4.5982,4.5982,4.5982,4.5982,4.5982,4.5982,4.5982,4.5982,4.5982,4.5982,4.5982,4.5982,4.5982,4.5982,4.5982,4.6004,4.6017,4.602,4.6039,4.6119,4.6198,4.6198,4.6227,4.6274,4.6301,4.6301,4.6301,4.6301,4.6301,4.6301,4.6301,4.6301,4.6301,4.6301,4.6301,4.6301,4.6301,4.6301,4.6301,4.6301,4.6301,4.6301,4.6301,4.6301,4.6301,4.6301,4.6301,4.6301,4.6303,4.6291,4.6263,4.625,4.6157,4.6088,4.5996,4.5963,4.5991,4.5934,4.589,4.5877,4.5822,4.5817,4.5803,4.5803,4.5803,4.5803,4.5803,4.5803,4.5803,4.5803,4.5803,4.5803,4.5919,4.5977,4.6248,4.699,4.7574,4.7354,4.7134,4.7308,4.7482,4.7583,4.7757,4.7869,4.7927,4.797,4.8295,4.8972,4.9088,4.8894,4.8933,4.901,4.9316,4.9718,4.9754,4.9766,4.9978,5.0202,5.0452,5.0688,5.0688,5.0688,5.0688,5.0688,5.0688,5.0688,5.0688,4.5877,4.5754,4.592,4.5938,4.5899,4.5938,4.598,4.5999,4.5982,4.5982,4.5982,4.5982,4.5982,4.5982,4.5982,4.5982,4.5982,4.5982,4.5982,4.5982,4.5982,4.5982,4.6004,4.601,4.6035,4.6082,4.6126,4.6137,4.6201,4.6209,4.6244,4.6277,4.6301,4.6301,4.6301,4.6301,4.6301,4.6301,4.6301,4.6301,4.6301,4.6301,4.6301,4.6301,4.6301,4.6301,4.6301,4.6301,4.6301,4.6301,4.6301,4.6301,4.6301,4.6301,4.6301,4.6301,4.6301,4.6303,4.6289,4.6284,4.623,4.6152,4.6075,4.6021,4.6005,4.5989,4.5949,4.5899,4.5841,4.5827,4.5803,4.5803,4.5803,4.5803,4.5803,4.5803,4.5803,4.5803,4.5803,4.5881,4.6058,4.629,4.6867,4.7567,4.8561,4.8473,4.8392,4.8643,4.872,4.843,4.8624,4.8894,4.8933,4.8991,4.9397,4.9877,4.9935,4.9722,5.009,5.026,5.0565,5.0517,5.0383,5.0351,5.0572,5.0721,5.0693,5.0688,5.0688,5.0688,5.0688,5.0688,5.0688,5.0688,5.0688,4.5742,4.5715,4.5764,4.5768,4.5765,4.5775,4.5854,4.5991,4.5982,4.5982,4.5982,4.5982,4.5982,4.5982,4.5982,4.5982,4.5982,4.5982,4.5982,4.5982,4.5982,4.5982,4.6015,4.6035,4.608,4.6104,4.6152,4.6187,4.6224,4.6242,4.6272,4.6299,4.6301,4.6301,4.6301,4.6301,4.6301,4.6301,4.6301,4.6301,4.6301,4.6301,4.6301,4.6301,4.6301,4.6301,4.6301,4.6301,4.6301,4.6301,4.6301,4.6301,4.6301,4.6301,4.6301,4.6301,4.6301,4.6302,4.6305,4.6301,4.6269,4.6205,4.6152,4.6152,4.6125,4.6066,4.6006,4.5963,4.5886,4.5841,4.5821,4.5814,4.581,4.5803,4.5803,4.5803,4.5803,4.5803,4.5823,4.5919,4.6097,4.6793,4.7389,4.8731,4.9583,4.9556,4.9626,4.9838,4.9838,4.9509,4.9432,4.9684,4.9838,4.9861,5.0128,5.0554,5.0593,5.0651,5.084,5.0898,5.0805,5.0734,5.0784,5.0785,5.0736,5.0702,5.0688,5.0688,5.0688,5.0688,5.0688,5.0688,5.0688,5.0688,5.0688,4.5643,4.5566,4.5648,4.5684,4.5684,4.5688,4.58,4.5952,4.595,4.5964,4.5999,4.5982,4.5982,4.5982,4.5982,4.5982,4.5982,4.5982,4.5982,4.5982,4.5982,4.5982,4.602,4.6054,4.6104,4.6129,4.6181,4.6217,4.6239,4.6272,4.6301,4.6301,4.6301,4.6301,4.6301,4.6301,4.6301,4.6301,4.6301,4.6301,4.6301,4.6301,4.6301,4.6301,4.6301,4.6301,4.6301,4.6301,4.6301,4.6301,4.6301,4.6301,4.6301,4.6301,4.6301,4.6301,4.6301,4.6301,4.6305,4.6301,4.6269,4.6224,4.6205,4.6189,4.6185,4.6143,4.609,4.6042,4.5935,4.5858,4.5841,4.5808,4.5814,4.5803,4.5803,4.5803,4.5803,4.5803,4.5881,4.5958,4.6461,4.7177,4.8244,4.9679,5.0531,5.0364,5.0322,5.0438,5.0476,5.0322,5.0264,5.0418,5.0573,5.0689,5.0898,5.0898,5.084,5.0801,5.0859,5.0894,5.0886,5.0841,5.0797,5.0763,5.0726,5.0702,5.0688,5.0688,5.0688,5.0688,5.0688,5.0688,5.0688,5.0688,5.0688,4.5527,4.5319,4.5566,4.5644,4.5684,4.5668,4.5723,4.5883,4.5867,4.5928,4.5986,4.5982,4.5982,4.5982,4.5982,4.5982,4.5982,4.5982,4.5982,4.5982,4.5982,4.5982,4.6017,4.6058,4.6123,4.6181,4.6215,4.6259,4.6275,4.6301,4.6301,4.6301,4.6301,4.6301,4.6301,4.6301,4.6301,4.6301,4.6301,4.6301,4.6301,4.6301,4.6301,4.6301,4.6301,4.6301,4.6301,4.6301,4.6301,4.6301,4.6301,4.6301,4.6301,4.6301,4.6301,4.6301,4.6301,4.6301,4.629,4.6284,4.625,4.6223,4.6203,4.6206,4.6201,4.6181,4.6136,4.6097,4.6003,4.5938,4.5917,4.5876,4.5877,4.5854,4.5841,4.5824,4.5807,4.5923,4.6151,4.6403,4.7099,4.7834,4.8647,4.9985,5.0639,5.0747,5.0825,5.0898,5.0879,5.0786,5.0821,5.0879,5.0898,5.0898,5.0898,5.0898,5.0898,5.0898,5.0898,5.0898,5.0894,5.0848,5.0785,5.0754,5.0707,5.0697,5.0688,5.0688,5.0688,5.0688,5.0688,5.0688,5.0688,5.0688,5.0688,4.536,4.5293,4.537,4.5448,4.5512,4.5429,4.554,4.5746,4.5731,4.5844,4.598,4.5999,4.5982,4.5982,4.5982,4.5982,4.5982,4.5982,4.5982,4.5982,4.5982,4.5982,4.602,4.6098,4.6162,4.6216,4.6246,4.6274,4.6299,4.6301,4.6301,4.6301,4.6301,4.6301,4.6301,4.6301,4.6301,4.6301,4.6301,4.6301,4.6301,4.6301,4.6301,4.6301,4.6301,4.6301,4.6301,4.6301,4.6301,4.6301,4.6301,4.6301,4.6301,4.6301,4.6301,4.6301,4.6301,4.6301,4.6293,4.6248,4.6228,4.6217,4.6211,4.6213,4.6201,4.6199,4.6181,4.6124,4.6066,4.6032,4.6022,4.6,4.6007,4.598,4.6006,4.5976,4.5962,4.6232,4.6519,4.7099,4.7796,4.8508,4.9262,4.9919,5.0534,5.0805,5.0859,5.0898,5.0898,5.0859,5.084,5.0898,5.0898,5.0898,5.0898,5.0898,5.0898,5.0898,5.0898,5.0898,5.0894,5.0848,5.077,5.0721,5.0688,5.0688,5.0688,5.0688,5.0688,5.0688,5.0688,5.0688,5.0688,5.0688,5.0688,4.5283,4.5283,4.5302,4.5353,4.5375,4.5324,4.541,4.5586,4.568,4.5789,4.5958,4.598,4.5982,4.5982,4.5982,4.5982,4.5982,4.5982,4.5982,4.5982,4.5982,4.5982,4.6039,4.6102,4.6156,4.6211,4.6259,4.63,4.6301,4.6301,4.6301,4.6301,4.6301,4.6301,4.6301,4.6301,4.6301,4.6301,4.6301,4.6301,4.6301,4.6301,4.6301,4.6301,4.6301,4.6301,4.6301,4.6301,4.6301,4.6301,4.6301,4.6301,4.6301,4.6301,4.6301,4.6301,4.6301,4.6301,4.6275,4.6249,4.6205,4.6212,4.6214,4.6206,4.6201,4.6197,4.6196,4.6144,4.6113,4.6061,4.6268,4.6309,4.6551,4.6639,4.7039,4.7288,4.7273,4.7389,4.756,4.7811,4.845,4.9068,4.9745,5.0225,5.0743,5.0844,5.0898,5.0898,5.0898,5.0898,5.0898,5.0898,5.0898,5.0898,5.0898,5.0898,5.0898,5.0898,5.0898,5.0893,5.0873,5.0812,5.0775,5.0716,5.0688,5.0688,5.0688,5.0688,5.0688,5.0688,5.0688,5.0688,5.0688,5.0688,5.0688,4.5283,4.5283,4.5283,4.5302,4.5283,4.5283,4.5365,4.5485,4.5643,4.5761,4.5874,4.5958,4.5994,4.5982,4.5982,4.5982,4.5982,4.5982,4.5982,4.5982,4.5982,4.5982,4.602,4.6058,4.6129,4.62,4.6263,4.6296,4.6301,4.6301,4.6301,4.6301,4.6301,4.6301,4.6301,4.6301,4.6301,4.6301,4.6301,4.6301,4.6301,4.6301,4.6301,4.6301,4.6301,4.6301,4.6301,4.6301,4.6301,4.6301,4.6301,4.6301,4.6301,4.6301,4.6301,4.6301,4.6301,4.6301,4.6291,4.623,4.6208,4.6196,4.6205,4.6203,4.6219,4.6236,4.6235,4.6458,4.6411,4.6454,4.6662,4.6963,4.724,4.7453,4.7965,4.8434,4.845,4.8411,4.845,4.8566,4.9126,4.9703,5.0128,5.0608,5.0763,5.0859,5.0898,5.0898,5.0898,5.0898,5.0898,5.0898,5.0898,5.0898,5.0898,5.0898,5.0898,5.0898,5.0894,5.0869,5.0831,5.081,5.0766,5.0702,5.0688,5.0688,5.0688,5.0688,5.0688,5.0688,5.0688,5.0688,5.0688,5.0688,5.0688,4.5283,4.5283,4.5283,4.5283,4.5283,4.5283,4.5323,4.5375,4.5586,4.5704,4.5778,4.5907,4.5982,4.5982,4.5982,4.5982,4.5982,4.5982,4.5982,4.5982,4.5982,4.5982,4.6017,4.6075,4.6123,4.6189,4.6262,4.6297,4.6301,4.6301,4.6301,4.6301,4.6301,4.6301,4.6301,4.6301,4.6301,4.6301,4.6301,4.6301,4.6301,4.6301,4.6301,4.6301,4.6301,4.6301,4.6301,4.6301,4.6301,4.6301,4.6301,4.6301,4.6301,4.6301,4.6301,4.6301,4.6301,4.6301,4.6276,4.623,4.6207,4.6201,4.622,4.6259,4.6295,4.6373,4.6685,4.7425,4.7447,4.7389,4.7591,4.8056,4.8366,4.8402,4.8705,4.9079,4.9258,4.9103,4.8987,4.9355,4.9858,5.0264,5.0573,5.0821,5.0821,5.0898,5.0898,5.0898,5.0898,5.0898,5.0898,5.0898,5.0898,5.0898,5.0898,5.0898,5.0898,5.0898,5.089,5.0873,5.0836,5.0829,5.0776,5.0717,5.0688,5.0688,5.0688,5.0688,5.0688,5.0688,5.0688,5.0688,5.0688,5.0688,5.0688]}]]